<?xml version="1.0" encoding="utf-8"?>
<gpx xmlns:xsi="http://www.w3.org/2001/XMLSchema-instance" xmlns:xsd="http://www.w3.org/2001/XMLSchema" version="1.1" creator="Shapelink.com" xmlns="http://www.topografix.com/GPX/1/1" xmlns:gpxtpx="http://www.garmin.com/xmlschemas/TrackPointExtension/v1">
  <metadata>
    <name>Längdskidåkning - Klassisk 23.72 km, 2011-03-03</name>
    <desc></desc>
    <author><name>Alexander Engvall</name></author> 
    <time>2011-03-03T19:47:02Z</time>
  </metadata>
  <trk>
    <name>Längdskidåkning - Klassisk 23.72 km, 2011-03-03</name>
    <trkseg>
      <trkpt lat="59.5024742" lon="17.8117623">
        <ele>16.4797</ele>
        <time>2011-03-03T19:47:02Z</time>
      </trkpt>
      <trkpt lat="59.5025614" lon="17.811853">
        <ele>16.4797</ele>
        <time>2011-03-03T19:47:06Z</time>
      </trkpt>
      <trkpt lat="59.5026995" lon="17.8120057">
        <ele>15.5184</ele>
        <time>2011-03-03T19:47:10Z</time>
      </trkpt>
      <trkpt lat="59.5028756" lon="17.8121501">
        <ele>14.557</ele>
        <time>2011-03-03T19:47:14Z</time>
      </trkpt>
      <trkpt lat="59.5031009" lon="17.8123635">
        <ele>13.5958</ele>
        <time>2011-03-03T19:47:18Z</time>
      </trkpt>
      <trkpt lat="59.5033217" lon="17.8125805">
        <ele>11.6732</ele>
        <time>2011-03-03T19:47:22Z</time>
      </trkpt>
      <trkpt lat="59.5034897" lon="17.8128848">
        <ele>9.2699</ele>
        <time>2011-03-03T19:47:27Z</time>
      </trkpt>
      <trkpt lat="59.5035152" lon="17.8129428">
        <ele>9.75061</ele>
        <time>2011-03-03T19:47:28Z</time>
      </trkpt>
      <trkpt lat="59.5035512" lon="17.8130429">
        <ele>9.75061</ele>
        <time>2011-03-03T19:47:30Z</time>
      </trkpt>
      <trkpt lat="59.5035784" lon="17.8131467">
        <ele>9.75061</ele>
        <time>2011-03-03T19:47:33Z</time>
      </trkpt>
      <trkpt lat="59.5036563" lon="17.813352">
        <ele>11.1925</ele>
        <time>2011-03-03T19:47:39Z</time>
      </trkpt>
      <trkpt lat="59.5037348" lon="17.8136275">
        <ele>12.1538</ele>
        <time>2011-03-03T19:47:45Z</time>
      </trkpt>
      <trkpt lat="59.5037878" lon="17.8137939">
        <ele>12.1538</ele>
        <time>2011-03-03T19:47:49Z</time>
      </trkpt>
      <trkpt lat="59.5038314" lon="17.8139844">
        <ele>12.6344</ele>
        <time>2011-03-03T19:47:53Z</time>
      </trkpt>
      <trkpt lat="59.5038703" lon="17.8142103">
        <ele>14.0764</ele>
        <time>2011-03-03T19:47:58Z</time>
      </trkpt>
      <trkpt lat="59.5039188" lon="17.8144677">
        <ele>14.557</ele>
        <time>2011-03-03T19:48:02Z</time>
      </trkpt>
      <trkpt lat="59.5039282" lon="17.8146914">
        <ele>16.9604</ele>
        <time>2011-03-03T19:48:06Z</time>
      </trkpt>
      <trkpt lat="59.5039276" lon="17.8147231">
        <ele>18.4023</ele>
        <time>2011-03-03T19:48:07Z</time>
      </trkpt>
      <trkpt lat="59.5038551" lon="17.8147408">
        <ele>22.7283</ele>
        <time>2011-03-03T19:48:12Z</time>
      </trkpt>
      <trkpt lat="59.5037711" lon="17.8148307">
        <ele>25.1317</ele>
        <time>2011-03-03T19:48:16Z</time>
      </trkpt>
      <trkpt lat="59.5037439" lon="17.8150232">
        <ele>28.0155</ele>
        <time>2011-03-03T19:48:20Z</time>
      </trkpt>
      <trkpt lat="59.5037235" lon="17.8153216">
        <ele>27.0543</ele>
        <time>2011-03-03T19:48:27Z</time>
      </trkpt>
      <trkpt lat="59.5036903" lon="17.815513">
        <ele>28.4962</ele>
        <time>2011-03-03T19:48:32Z</time>
      </trkpt>
      <trkpt lat="59.5036754" lon="17.8155464">
        <ele>28.4962</ele>
        <time>2011-03-03T19:48:33Z</time>
      </trkpt>
      <trkpt lat="59.5036666" lon="17.8156036">
        <ele>28.9769</ele>
        <time>2011-03-03T19:48:35Z</time>
      </trkpt>
      <trkpt lat="59.5036076" lon="17.8158007">
        <ele>28.0155</ele>
        <time>2011-03-03T19:48:40Z</time>
      </trkpt>
      <trkpt lat="59.5035406" lon="17.8159026">
        <ele>26.0929</ele>
        <time>2011-03-03T19:48:43Z</time>
      </trkpt>
      <trkpt lat="59.5034823" lon="17.8161147">
        <ele>22.2476</ele>
        <time>2011-03-03T19:48:47Z</time>
      </trkpt>
      <trkpt lat="59.5033914" lon="17.8163249">
        <ele>21.767</ele>
        <time>2011-03-03T19:48:51Z</time>
      </trkpt>
      <trkpt lat="59.5032457" lon="17.8164896">
        <ele>21.2864</ele>
        <time>2011-03-03T19:48:56Z</time>
      </trkpt>
      <trkpt lat="59.5031112" lon="17.8166262">
        <ele>19.3638</ele>
        <time>2011-03-03T19:49:00Z</time>
      </trkpt>
      <trkpt lat="59.502973" lon="17.816751">
        <ele>17.4412</ele>
        <time>2011-03-03T19:49:04Z</time>
      </trkpt>
      <trkpt lat="59.5028664" lon="17.816945">
        <ele>15.0377</ele>
        <time>2011-03-03T19:49:09Z</time>
      </trkpt>
      <trkpt lat="59.5027875" lon="17.8170444">
        <ele>13.1151</ele>
        <time>2011-03-03T19:49:13Z</time>
      </trkpt>
      <trkpt lat="59.5027356" lon="17.8171226">
        <ele>13.5958</ele>
        <time>2011-03-03T19:49:15Z</time>
      </trkpt>
      <trkpt lat="59.5026566" lon="17.8173034">
        <ele>15.0377</ele>
        <time>2011-03-03T19:49:20Z</time>
      </trkpt>
      <trkpt lat="59.5025561" lon="17.8174522">
        <ele>21.2864</ele>
        <time>2011-03-03T19:49:25Z</time>
      </trkpt>
      <trkpt lat="59.5025299" lon="17.8174912">
        <ele>24.1703</ele>
        <time>2011-03-03T19:49:27Z</time>
      </trkpt>
      <trkpt lat="59.5024338" lon="17.8175821">
        <ele>25.6123</ele>
        <time>2011-03-03T19:49:32Z</time>
      </trkpt>
      <trkpt lat="59.5023803" lon="17.8176116">
        <ele>25.6123</ele>
        <time>2011-03-03T19:49:34Z</time>
      </trkpt>
      <trkpt lat="59.5022274" lon="17.817612">
        <ele>25.1317</ele>
        <time>2011-03-03T19:49:39Z</time>
      </trkpt>
      <trkpt lat="59.5021058" lon="17.8175399">
        <ele>26.0929</ele>
        <time>2011-03-03T19:49:44Z</time>
      </trkpt>
      <trkpt lat="59.5020497" lon="17.8173252">
        <ele>27.0543</ele>
        <time>2011-03-03T19:49:48Z</time>
      </trkpt>
      <trkpt lat="59.5020773" lon="17.8169859">
        <ele>26.5736</ele>
        <time>2011-03-03T19:49:51Z</time>
      </trkpt>
      <trkpt lat="59.5020811" lon="17.8168427">
        <ele>24.651</ele>
        <time>2011-03-03T19:49:52Z</time>
      </trkpt>
      <trkpt lat="59.5019782" lon="17.8163176">
        <ele>21.2864</ele>
        <time>2011-03-03T19:49:56Z</time>
      </trkpt>
      <trkpt lat="59.5018391" lon="17.816303">
        <ele>20.325</ele>
        <time>2011-03-03T19:49:58Z</time>
      </trkpt>
      <trkpt lat="59.5017347" lon="17.8164065">
        <ele>20.325</ele>
        <time>2011-03-03T19:50:00Z</time>
      </trkpt>
      <trkpt lat="59.5016272" lon="17.8165627">
        <ele>20.325</ele>
        <time>2011-03-03T19:50:03Z</time>
      </trkpt>
      <trkpt lat="59.5015313" lon="17.8166891">
        <ele>19.8444</ele>
        <time>2011-03-03T19:50:07Z</time>
      </trkpt>
      <trkpt lat="59.5013275" lon="17.8167788">
        <ele>19.3638</ele>
        <time>2011-03-03T19:50:13Z</time>
      </trkpt>
      <trkpt lat="59.5012107" lon="17.8169634">
        <ele>18.8831</ele>
        <time>2011-03-03T19:50:17Z</time>
      </trkpt>
      <trkpt lat="59.5010711" lon="17.8170501">
        <ele>20.325</ele>
        <time>2011-03-03T19:50:21Z</time>
      </trkpt>
      <trkpt lat="59.5009874" lon="17.8170665">
        <ele>20.325</ele>
        <time>2011-03-03T19:50:24Z</time>
      </trkpt>
      <trkpt lat="59.5008686" lon="17.8171383">
        <ele>19.8444</ele>
        <time>2011-03-03T19:50:29Z</time>
      </trkpt>
      <trkpt lat="59.5008402" lon="17.8171755">
        <ele>19.3638</ele>
        <time>2011-03-03T19:50:30Z</time>
      </trkpt>
      <trkpt lat="59.5007885" lon="17.8174082">
        <ele>18.8831</ele>
        <time>2011-03-03T19:50:36Z</time>
      </trkpt>
      <trkpt lat="59.5007842" lon="17.8174429">
        <ele>18.8831</ele>
        <time>2011-03-03T19:50:37Z</time>
      </trkpt>
      <trkpt lat="59.5007755" lon="17.8176603">
        <ele>18.8831</ele>
        <time>2011-03-03T19:50:42Z</time>
      </trkpt>
      <trkpt lat="59.5007612" lon="17.8178137">
        <ele>20.325</ele>
        <time>2011-03-03T19:50:46Z</time>
      </trkpt>
      <trkpt lat="59.5007284" lon="17.8180636">
        <ele>22.7283</ele>
        <time>2011-03-03T19:50:52Z</time>
      </trkpt>
      <trkpt lat="59.5006963" lon="17.818254">
        <ele>26.0929</ele>
        <time>2011-03-03T19:50:56Z</time>
      </trkpt>
      <trkpt lat="59.5006482" lon="17.8183637">
        <ele>28.0155</ele>
        <time>2011-03-03T19:50:59Z</time>
      </trkpt>
      <trkpt lat="59.5005523" lon="17.8184701">
        <ele>30.8995</ele>
        <time>2011-03-03T19:51:04Z</time>
      </trkpt>
      <trkpt lat="59.5003917" lon="17.8185012">
        <ele>32.3416</ele>
        <time>2011-03-03T19:51:09Z</time>
      </trkpt>
      <trkpt lat="59.5002055" lon="17.8184756">
        <ele>32.3416</ele>
        <time>2011-03-03T19:51:14Z</time>
      </trkpt>
      <trkpt lat="59.5000695" lon="17.8184472">
        <ele>34.7449</ele>
        <time>2011-03-03T19:51:19Z</time>
      </trkpt>
      <trkpt lat="59.499972" lon="17.8184086">
        <ele>37.1481</ele>
        <time>2011-03-03T19:51:23Z</time>
      </trkpt>
      <trkpt lat="59.499856" lon="17.818412">
        <ele>39.0707</ele>
        <time>2011-03-03T19:51:28Z</time>
      </trkpt>
      <trkpt lat="59.4997115" lon="17.8183853">
        <ele>37.1481</ele>
        <time>2011-03-03T19:51:32Z</time>
      </trkpt>
      <trkpt lat="59.4995128" lon="17.8182229">
        <ele>37.6287</ele>
        <time>2011-03-03T19:51:37Z</time>
      </trkpt>
      <trkpt lat="59.4993402" lon="17.8181151">
        <ele>40.5128</ele>
        <time>2011-03-03T19:51:42Z</time>
      </trkpt>
      <trkpt lat="59.4991656" lon="17.8180073">
        <ele>38.5901</ele>
        <time>2011-03-03T19:51:47Z</time>
      </trkpt>
      <trkpt lat="59.4990236" lon="17.8179541">
        <ele>38.1094</ele>
        <time>2011-03-03T19:51:51Z</time>
      </trkpt>
      <trkpt lat="59.4989939" lon="17.8179539">
        <ele>38.5901</ele>
        <time>2011-03-03T19:51:52Z</time>
      </trkpt>
      <trkpt lat="59.498867" lon="17.8179172">
        <ele>39.0707</ele>
        <time>2011-03-03T19:51:56Z</time>
      </trkpt>
      <trkpt lat="59.4987199" lon="17.8179033">
        <ele>39.5513</ele>
        <time>2011-03-03T19:52:01Z</time>
      </trkpt>
      <trkpt lat="59.4985432" lon="17.8178987">
        <ele>39.0707</ele>
        <time>2011-03-03T19:52:07Z</time>
      </trkpt>
      <trkpt lat="59.4984303" lon="17.8179186">
        <ele>39.0707</ele>
        <time>2011-03-03T19:52:12Z</time>
      </trkpt>
      <trkpt lat="59.4983638" lon="17.8179017">
        <ele>40.5128</ele>
        <time>2011-03-03T19:52:15Z</time>
      </trkpt>
      <trkpt lat="59.49835" lon="17.8179007">
        <ele>40.0321</ele>
        <time>2011-03-03T19:52:16Z</time>
      </trkpt>
      <trkpt lat="59.4982383" lon="17.8178111">
        <ele>40.9934</ele>
        <time>2011-03-03T19:52:22Z</time>
      </trkpt>
      <trkpt lat="59.4981602" lon="17.8177924">
        <ele>40.9934</ele>
        <time>2011-03-03T19:52:25Z</time>
      </trkpt>
      <trkpt lat="59.4980244" lon="17.8178156">
        <ele>44.358</ele>
        <time>2011-03-03T19:52:30Z</time>
      </trkpt>
      <trkpt lat="59.4978794" lon="17.8179685">
        <ele>40.0321</ele>
        <time>2011-03-03T19:52:35Z</time>
      </trkpt>
      <trkpt lat="59.4977717" lon="17.8181643">
        <ele>32.3416</ele>
        <time>2011-03-03T19:52:39Z</time>
      </trkpt>
      <trkpt lat="59.4976761" lon="17.8183356">
        <ele>31.3801</ele>
        <time>2011-03-03T19:52:43Z</time>
      </trkpt>
      <trkpt lat="59.4975385" lon="17.8185616">
        <ele>33.7834</ele>
        <time>2011-03-03T19:52:48Z</time>
      </trkpt>
      <trkpt lat="59.4974089" lon="17.818714">
        <ele>37.6287</ele>
        <time>2011-03-03T19:52:53Z</time>
      </trkpt>
      <trkpt lat="59.4972674" lon="17.8188294">
        <ele>38.5901</ele>
        <time>2011-03-03T19:52:57Z</time>
      </trkpt>
      <trkpt lat="59.4971045" lon="17.818888">
        <ele>38.5901</ele>
        <time>2011-03-03T19:53:02Z</time>
      </trkpt>
      <trkpt lat="59.4969944" lon="17.8187769">
        <ele>34.2642</ele>
        <time>2011-03-03T19:53:07Z</time>
      </trkpt>
      <trkpt lat="59.4969439" lon="17.8187264">
        <ele>32.3416</ele>
        <time>2011-03-03T19:53:09Z</time>
      </trkpt>
      <trkpt lat="59.496776" lon="17.8186181">
        <ele>32.3416</ele>
        <time>2011-03-03T19:53:14Z</time>
      </trkpt>
      <trkpt lat="59.4966403" lon="17.818605">
        <ele>34.2642</ele>
        <time>2011-03-03T19:53:18Z</time>
      </trkpt>
      <trkpt lat="59.4965382" lon="17.8186649">
        <ele>33.3029</ele>
        <time>2011-03-03T19:53:23Z</time>
      </trkpt>
      <trkpt lat="59.496452" lon="17.8187761">
        <ele>35.2255</ele>
        <time>2011-03-03T19:53:29Z</time>
      </trkpt>
      <trkpt lat="59.4963657" lon="17.8188782">
        <ele>34.2642</ele>
        <time>2011-03-03T19:53:34Z</time>
      </trkpt>
      <trkpt lat="59.496322" lon="17.8189123">
        <ele>33.7834</ele>
        <time>2011-03-03T19:53:37Z</time>
      </trkpt>
      <trkpt lat="59.4962738" lon="17.8190034">
        <ele>35.2255</ele>
        <time>2011-03-03T19:53:42Z</time>
      </trkpt>
      <trkpt lat="59.4962417" lon="17.8190418">
        <ele>35.2255</ele>
        <time>2011-03-03T19:53:45Z</time>
      </trkpt>
      <trkpt lat="59.4961596" lon="17.8190978">
        <ele>36.1868</ele>
        <time>2011-03-03T19:53:50Z</time>
      </trkpt>
      <trkpt lat="59.496125" lon="17.8191432">
        <ele>37.1481</ele>
        <time>2011-03-03T19:53:52Z</time>
      </trkpt>
      <trkpt lat="59.4960345" lon="17.8193391">
        <ele>41.474</ele>
        <time>2011-03-03T19:53:58Z</time>
      </trkpt>
      <trkpt lat="59.495933" lon="17.8194858">
        <ele>41.9547</ele>
        <time>2011-03-03T19:54:04Z</time>
      </trkpt>
      <trkpt lat="59.4958249" lon="17.8195529">
        <ele>44.358</ele>
        <time>2011-03-03T19:54:09Z</time>
      </trkpt>
      <trkpt lat="59.4957395" lon="17.8196294">
        <ele>46.7612</ele>
        <time>2011-03-03T19:54:13Z</time>
      </trkpt>
      <trkpt lat="59.4956104" lon="17.8197356">
        <ele>49.6453</ele>
        <time>2011-03-03T19:54:18Z</time>
      </trkpt>
      <trkpt lat="59.4954873" lon="17.8198479">
        <ele>50.126</ele>
        <time>2011-03-03T19:54:22Z</time>
      </trkpt>
      <trkpt lat="59.4953099" lon="17.8200815">
        <ele>42.4354</ele>
        <time>2011-03-03T19:54:29Z</time>
      </trkpt>
      <trkpt lat="59.4952658" lon="17.8201513">
        <ele>40.9934</ele>
        <time>2011-03-03T19:54:31Z</time>
      </trkpt>
      <trkpt lat="59.4951484" lon="17.820279">
        <ele>38.5901</ele>
        <time>2011-03-03T19:54:36Z</time>
      </trkpt>
      <trkpt lat="59.4950899" lon="17.8203088">
        <ele>40.5128</ele>
        <time>2011-03-03T19:54:39Z</time>
      </trkpt>
      <trkpt lat="59.4950513" lon="17.8202987">
        <ele>40.5128</ele>
        <time>2011-03-03T19:54:41Z</time>
      </trkpt>
      <trkpt lat="59.4949318" lon="17.8201341">
        <ele>41.474</ele>
        <time>2011-03-03T19:54:47Z</time>
      </trkpt>
      <trkpt lat="59.4948434" lon="17.8199762">
        <ele>44.358</ele>
        <time>2011-03-03T19:54:52Z</time>
      </trkpt>
      <trkpt lat="59.4947774" lon="17.8199088">
        <ele>46.2806</ele>
        <time>2011-03-03T19:54:56Z</time>
      </trkpt>
      <trkpt lat="59.4946786" lon="17.8198157">
        <ele>48.684</ele>
        <time>2011-03-03T19:55:01Z</time>
      </trkpt>
      <trkpt lat="59.4945395" lon="17.8197229">
        <ele>50.6066</ele>
        <time>2011-03-03T19:55:06Z</time>
      </trkpt>
      <trkpt lat="59.494415" lon="17.8196617">
        <ele>51.5679</ele>
        <time>2011-03-03T19:55:10Z</time>
      </trkpt>
      <trkpt lat="59.4942985" lon="17.8196183">
        <ele>52.0486</ele>
        <time>2011-03-03T19:55:14Z</time>
      </trkpt>
      <trkpt lat="59.4941813" lon="17.8195851">
        <ele>53.0098</ele>
        <time>2011-03-03T19:55:19Z</time>
      </trkpt>
      <trkpt lat="59.494128" lon="17.819577">
        <ele>53.4905</ele>
        <time>2011-03-03T19:55:21Z</time>
      </trkpt>
      <trkpt lat="59.4940212" lon="17.8194711">
        <ele>55.8938</ele>
        <time>2011-03-03T19:55:27Z</time>
      </trkpt>
      <trkpt lat="59.4939285" lon="17.8193728">
        <ele>56.3745</ele>
        <time>2011-03-03T19:55:32Z</time>
      </trkpt>
      <trkpt lat="59.4939094" lon="17.8193543">
        <ele>56.8551</ele>
        <time>2011-03-03T19:55:33Z</time>
      </trkpt>
      <trkpt lat="59.4937876" lon="17.819249">
        <ele>57.8165</ele>
        <time>2011-03-03T19:55:38Z</time>
      </trkpt>
      <trkpt lat="59.4936497" lon="17.8191202">
        <ele>58.2971</ele>
        <time>2011-03-03T19:55:42Z</time>
      </trkpt>
      <trkpt lat="59.4936185" lon="17.8190921">
        <ele>57.8165</ele>
        <time>2011-03-03T19:55:43Z</time>
      </trkpt>
      <trkpt lat="59.4934363" lon="17.8191355">
        <ele>56.3745</ele>
        <time>2011-03-03T19:55:48Z</time>
      </trkpt>
      <trkpt lat="59.4932664" lon="17.8191526">
        <ele>54.4518</ele>
        <time>2011-03-03T19:55:52Z</time>
      </trkpt>
      <trkpt lat="59.4931541" lon="17.8191026">
        <ele>53.0098</ele>
        <time>2011-03-03T19:55:55Z</time>
      </trkpt>
      <trkpt lat="59.4931158" lon="17.8188151">
        <ele>52.0486</ele>
        <time>2011-03-03T19:55:59Z</time>
      </trkpt>
      <trkpt lat="59.4930846" lon="17.818617">
        <ele>51.5679</ele>
        <time>2011-03-03T19:56:01Z</time>
      </trkpt>
      <trkpt lat="59.493037" lon="17.8183165">
        <ele>50.6066</ele>
        <time>2011-03-03T19:56:04Z</time>
      </trkpt>
      <trkpt lat="59.4929888" lon="17.8180921">
        <ele>49.6453</ele>
        <time>2011-03-03T19:56:06Z</time>
      </trkpt>
      <trkpt lat="59.492911" lon="17.8178472">
        <ele>49.1646</ele>
        <time>2011-03-03T19:56:09Z</time>
      </trkpt>
      <trkpt lat="59.4927308" lon="17.8177096">
        <ele>46.2806</ele>
        <time>2011-03-03T19:56:14Z</time>
      </trkpt>
      <trkpt lat="59.492691" lon="17.8177252">
        <ele>45.3192</ele>
        <time>2011-03-03T19:56:15Z</time>
      </trkpt>
      <trkpt lat="59.4925817" lon="17.8177762">
        <ele>43.8773</ele>
        <time>2011-03-03T19:56:20Z</time>
      </trkpt>
      <trkpt lat="59.4924878" lon="17.8178178">
        <ele>44.358</ele>
        <time>2011-03-03T19:56:24Z</time>
      </trkpt>
      <trkpt lat="59.4923416" lon="17.8177768">
        <ele>48.2034</ele>
        <time>2011-03-03T19:56:30Z</time>
      </trkpt>
      <trkpt lat="59.4922671" lon="17.8177353">
        <ele>49.6453</ele>
        <time>2011-03-03T19:56:33Z</time>
      </trkpt>
      <trkpt lat="59.4921615" lon="17.817619">
        <ele>53.0098</ele>
        <time>2011-03-03T19:56:39Z</time>
      </trkpt>
      <trkpt lat="59.4920668" lon="17.8175224">
        <ele>53.9712</ele>
        <time>2011-03-03T19:56:45Z</time>
      </trkpt>
      <trkpt lat="59.4920222" lon="17.8174837">
        <ele>55.8938</ele>
        <time>2011-03-03T19:56:48Z</time>
      </trkpt>
      <trkpt lat="59.4919248" lon="17.8174278">
        <ele>56.8551</ele>
        <time>2011-03-03T19:56:53Z</time>
      </trkpt>
      <trkpt lat="59.4918212" lon="17.8173614">
        <ele>56.3745</ele>
        <time>2011-03-03T19:56:57Z</time>
      </trkpt>
      <trkpt lat="59.4917213" lon="17.8173024">
        <ele>56.8551</ele>
        <time>2011-03-03T19:57:01Z</time>
      </trkpt>
      <trkpt lat="59.4916326" lon="17.8172734">
        <ele>58.2971</ele>
        <time>2011-03-03T19:57:04Z</time>
      </trkpt>
      <trkpt lat="59.4914954" lon="17.8172507">
        <ele>57.8165</ele>
        <time>2011-03-03T19:57:09Z</time>
      </trkpt>
      <trkpt lat="59.4913717" lon="17.8172587">
        <ele>57.8165</ele>
        <time>2011-03-03T19:57:13Z</time>
      </trkpt>
      <trkpt lat="59.4913053" lon="17.817246">
        <ele>58.2971</ele>
        <time>2011-03-03T19:57:16Z</time>
      </trkpt>
      <trkpt lat="59.4911834" lon="17.8171763">
        <ele>58.2971</ele>
        <time>2011-03-03T19:57:21Z</time>
      </trkpt>
      <trkpt lat="59.4911596" lon="17.8171609">
        <ele>58.2971</ele>
        <time>2011-03-03T19:57:22Z</time>
      </trkpt>
      <trkpt lat="59.4910328" lon="17.8171113">
        <ele>58.2971</ele>
        <time>2011-03-03T19:57:26Z</time>
      </trkpt>
      <trkpt lat="59.4909644" lon="17.8170822">
        <ele>56.8551</ele>
        <time>2011-03-03T19:57:28Z</time>
      </trkpt>
      <trkpt lat="59.490781" lon="17.8167874">
        <ele>55.8938</ele>
        <time>2011-03-03T19:57:32Z</time>
      </trkpt>
      <trkpt lat="59.4904966" lon="17.8165684">
        <ele>52.0486</ele>
        <time>2011-03-03T19:57:37Z</time>
      </trkpt>
      <trkpt lat="59.490231" lon="17.8166513">
        <ele>50.6066</ele>
        <time>2011-03-03T19:57:42Z</time>
      </trkpt>
      <trkpt lat="59.4901826" lon="17.8167225">
        <ele>51.0872</ele>
        <time>2011-03-03T19:57:43Z</time>
      </trkpt>
      <trkpt lat="59.4900309" lon="17.8171755">
        <ele>48.684</ele>
        <time>2011-03-03T19:57:49Z</time>
      </trkpt>
      <trkpt lat="59.4900059" lon="17.8173664">
        <ele>45.3192</ele>
        <time>2011-03-03T19:57:52Z</time>
      </trkpt>
      <trkpt lat="59.4900306" lon="17.8177487">
        <ele>45.7999</ele>
        <time>2011-03-03T19:57:57Z</time>
      </trkpt>
      <trkpt lat="59.4900406" lon="17.8179629">
        <ele>45.7999</ele>
        <time>2011-03-03T19:57:59Z</time>
      </trkpt>
      <trkpt lat="59.4900963" lon="17.8184985">
        <ele>45.7999</ele>
        <time>2011-03-03T19:58:03Z</time>
      </trkpt>
      <trkpt lat="59.4901759" lon="17.8192369">
        <ele>46.2806</ele>
        <time>2011-03-03T19:58:09Z</time>
      </trkpt>
      <trkpt lat="59.4903118" lon="17.8195591">
        <ele>48.2034</ele>
        <time>2011-03-03T19:58:14Z</time>
      </trkpt>
      <trkpt lat="59.4904858" lon="17.8197177">
        <ele>49.1646</ele>
        <time>2011-03-03T19:58:18Z</time>
      </trkpt>
      <trkpt lat="59.4905635" lon="17.8197479">
        <ele>49.6453</ele>
        <time>2011-03-03T19:58:20Z</time>
      </trkpt>
      <trkpt lat="59.4907557" lon="17.819733">
        <ele>52.0486</ele>
        <time>2011-03-03T19:58:26Z</time>
      </trkpt>
      <trkpt lat="59.4907886" lon="17.8197299">
        <ele>52.5292</ele>
        <time>2011-03-03T19:58:27Z</time>
      </trkpt>
      <trkpt lat="59.4909654" lon="17.8196933">
        <ele>50.6066</ele>
        <time>2011-03-03T19:58:32Z</time>
      </trkpt>
      <trkpt lat="59.4911198" lon="17.8197361">
        <ele>50.6066</ele>
        <time>2011-03-03T19:58:37Z</time>
      </trkpt>
      <trkpt lat="59.491288" lon="17.8199038">
        <ele>54.4518</ele>
        <time>2011-03-03T19:58:42Z</time>
      </trkpt>
      <trkpt lat="59.4914478" lon="17.8200591">
        <ele>54.9324</ele>
        <time>2011-03-03T19:58:46Z</time>
      </trkpt>
      <trkpt lat="59.491571" lon="17.8201417">
        <ele>56.3745</ele>
        <time>2011-03-03T19:58:49Z</time>
      </trkpt>
      <trkpt lat="59.491769" lon="17.8202129">
        <ele>56.8551</ele>
        <time>2011-03-03T19:58:54Z</time>
      </trkpt>
      <trkpt lat="59.4918511" lon="17.8203007">
        <ele>57.3358</ele>
        <time>2011-03-03T19:58:56Z</time>
      </trkpt>
      <trkpt lat="59.491935" lon="17.8204048">
        <ele>59.2584</ele>
        <time>2011-03-03T19:58:58Z</time>
      </trkpt>
      <trkpt lat="59.4920039" lon="17.8207043">
        <ele>56.3745</ele>
        <time>2011-03-03T19:59:02Z</time>
      </trkpt>
      <trkpt lat="59.4920025" lon="17.8208583">
        <ele>53.4905</ele>
        <time>2011-03-03T19:59:04Z</time>
      </trkpt>
      <trkpt lat="59.4919402" lon="17.8211104">
        <ele>50.126</ele>
        <time>2011-03-03T19:59:08Z</time>
      </trkpt>
      <trkpt lat="59.4918684" lon="17.8214045">
        <ele>43.8773</ele>
        <time>2011-03-03T19:59:13Z</time>
      </trkpt>
      <trkpt lat="59.4918504" lon="17.8216361">
        <ele>42.4354</ele>
        <time>2011-03-03T19:59:17Z</time>
      </trkpt>
      <trkpt lat="59.4917109" lon="17.821775">
        <ele>38.5901</ele>
        <time>2011-03-03T19:59:22Z</time>
      </trkpt>
      <trkpt lat="59.4916503" lon="17.821833">
        <ele>38.5901</ele>
        <time>2011-03-03T19:59:24Z</time>
      </trkpt>
      <trkpt lat="59.4914681" lon="17.8219623">
        <ele>32.8223</ele>
        <time>2011-03-03T19:59:30Z</time>
      </trkpt>
      <trkpt lat="59.4913733" lon="17.8221853">
        <ele>27.5349</ele>
        <time>2011-03-03T19:59:34Z</time>
      </trkpt>
      <trkpt lat="59.4913892" lon="17.822502">
        <ele>30.8995</ele>
        <time>2011-03-03T19:59:38Z</time>
      </trkpt>
      <trkpt lat="59.4914885" lon="17.8226746">
        <ele>32.8223</ele>
        <time>2011-03-03T19:59:42Z</time>
      </trkpt>
      <trkpt lat="59.4916305" lon="17.8227079">
        <ele>36.1868</ele>
        <time>2011-03-03T19:59:46Z</time>
      </trkpt>
      <trkpt lat="59.4918056" lon="17.8227653">
        <ele>42.4354</ele>
        <time>2011-03-03T19:59:51Z</time>
      </trkpt>
      <trkpt lat="59.4920056" lon="17.8227983">
        <ele>46.7612</ele>
        <time>2011-03-03T19:59:56Z</time>
      </trkpt>
      <trkpt lat="59.4921608" lon="17.822741">
        <ele>49.6453</ele>
        <time>2011-03-03T20:00:00Z</time>
      </trkpt>
      <trkpt lat="59.4923699" lon="17.8227037">
        <ele>53.9712</ele>
        <time>2011-03-03T20:00:06Z</time>
      </trkpt>
      <trkpt lat="59.4924913" lon="17.8228682">
        <ele>56.3745</ele>
        <time>2011-03-03T20:00:10Z</time>
      </trkpt>
      <trkpt lat="59.4926454" lon="17.8229586">
        <ele>55.4131</ele>
        <time>2011-03-03T20:00:15Z</time>
      </trkpt>
      <trkpt lat="59.4927776" lon="17.8230238">
        <ele>56.3745</ele>
        <time>2011-03-03T20:00:20Z</time>
      </trkpt>
      <trkpt lat="59.4928795" lon="17.8231063">
        <ele>53.9712</ele>
        <time>2011-03-03T20:00:24Z</time>
      </trkpt>
      <trkpt lat="59.493035" lon="17.8232371">
        <ele>54.4518</ele>
        <time>2011-03-03T20:00:29Z</time>
      </trkpt>
      <trkpt lat="59.4931255" lon="17.8234346">
        <ele>53.0098</ele>
        <time>2011-03-03T20:00:33Z</time>
      </trkpt>
      <trkpt lat="59.4932293" lon="17.8237526">
        <ele>53.4905</ele>
        <time>2011-03-03T20:00:38Z</time>
      </trkpt>
      <trkpt lat="59.4932516" lon="17.8240576">
        <ele>55.8938</ele>
        <time>2011-03-03T20:00:42Z</time>
      </trkpt>
      <trkpt lat="59.4932442" lon="17.8241484">
        <ele>52.0486</ele>
        <time>2011-03-03T20:00:43Z</time>
      </trkpt>
      <trkpt lat="59.4932286" lon="17.8247781">
        <ele>46.7612</ele>
        <time>2011-03-03T20:00:48Z</time>
      </trkpt>
      <trkpt lat="59.4932663" lon="17.8254656">
        <ele>46.2806</ele>
        <time>2011-03-03T20:00:53Z</time>
      </trkpt>
      <trkpt lat="59.4932697" lon="17.8255865">
        <ele>45.7999</ele>
        <time>2011-03-03T20:00:54Z</time>
      </trkpt>
      <trkpt lat="59.4932758" lon="17.8258807">
        <ele>46.7612</ele>
        <time>2011-03-03T20:00:57Z</time>
      </trkpt>
      <trkpt lat="59.4932877" lon="17.8259453">
        <ele>46.7612</ele>
        <time>2011-03-03T20:00:58Z</time>
      </trkpt>
      <trkpt lat="59.4933882" lon="17.8261625">
        <ele>46.7612</ele>
        <time>2011-03-03T20:01:03Z</time>
      </trkpt>
      <trkpt lat="59.4935736" lon="17.8262907">
        <ele>47.7225</ele>
        <time>2011-03-03T20:01:09Z</time>
      </trkpt>
      <trkpt lat="59.4937713" lon="17.8262945">
        <ele>49.6453</ele>
        <time>2011-03-03T20:01:14Z</time>
      </trkpt>
      <trkpt lat="59.4939834" lon="17.8263192">
        <ele>53.0098</ele>
        <time>2011-03-03T20:01:20Z</time>
      </trkpt>
      <trkpt lat="59.4941348" lon="17.8263886">
        <ele>53.4905</ele>
        <time>2011-03-03T20:01:24Z</time>
      </trkpt>
      <trkpt lat="59.4942724" lon="17.82651">
        <ele>54.4518</ele>
        <time>2011-03-03T20:01:28Z</time>
      </trkpt>
      <trkpt lat="59.4943277" lon="17.8265611">
        <ele>54.4518</ele>
        <time>2011-03-03T20:01:30Z</time>
      </trkpt>
      <trkpt lat="59.4945057" lon="17.8266228">
        <ele>53.4905</ele>
        <time>2011-03-03T20:01:36Z</time>
      </trkpt>
      <trkpt lat="59.4946461" lon="17.8267846">
        <ele>53.0098</ele>
        <time>2011-03-03T20:01:41Z</time>
      </trkpt>
      <trkpt lat="59.4947613" lon="17.8269047">
        <ele>52.5292</ele>
        <time>2011-03-03T20:01:45Z</time>
      </trkpt>
      <trkpt lat="59.4948495" lon="17.826987">
        <ele>51.5679</ele>
        <time>2011-03-03T20:01:49Z</time>
      </trkpt>
      <trkpt lat="59.4949947" lon="17.8270498">
        <ele>49.1646</ele>
        <time>2011-03-03T20:01:54Z</time>
      </trkpt>
      <trkpt lat="59.4951655" lon="17.8271861">
        <ele>49.1646</ele>
        <time>2011-03-03T20:01:59Z</time>
      </trkpt>
      <trkpt lat="59.4953383" lon="17.827273">
        <ele>46.7612</ele>
        <time>2011-03-03T20:02:04Z</time>
      </trkpt>
      <trkpt lat="59.4955327" lon="17.8272227">
        <ele>44.358</ele>
        <time>2011-03-03T20:02:09Z</time>
      </trkpt>
      <trkpt lat="59.4956706" lon="17.8271299">
        <ele>43.8773</ele>
        <time>2011-03-03T20:02:13Z</time>
      </trkpt>
      <trkpt lat="59.4958208" lon="17.8270097">
        <ele>41.9547</ele>
        <time>2011-03-03T20:02:17Z</time>
      </trkpt>
      <trkpt lat="59.4960037" lon="17.8268678">
        <ele>40.5128</ele>
        <time>2011-03-03T20:02:22Z</time>
      </trkpt>
      <trkpt lat="59.4961904" lon="17.8266784">
        <ele>40.0321</ele>
        <time>2011-03-03T20:02:27Z</time>
      </trkpt>
      <trkpt lat="59.4962322" lon="17.8266417">
        <ele>40.5128</ele>
        <time>2011-03-03T20:02:28Z</time>
      </trkpt>
      <trkpt lat="59.4963861" lon="17.8265078">
        <ele>40.0321</ele>
        <time>2011-03-03T20:02:32Z</time>
      </trkpt>
      <trkpt lat="59.496531" lon="17.826399">
        <ele>40.0321</ele>
        <time>2011-03-03T20:02:36Z</time>
      </trkpt>
      <trkpt lat="59.4967185" lon="17.8261822">
        <ele>40.0321</ele>
        <time>2011-03-03T20:02:42Z</time>
      </trkpt>
      <trkpt lat="59.4968804" lon="17.8260348">
        <ele>40.5128</ele>
        <time>2011-03-03T20:02:47Z</time>
      </trkpt>
      <trkpt lat="59.4970286" lon="17.8259277">
        <ele>36.6675</ele>
        <time>2011-03-03T20:02:52Z</time>
      </trkpt>
      <trkpt lat="59.4971412" lon="17.8258485">
        <ele>38.5901</ele>
        <time>2011-03-03T20:02:56Z</time>
      </trkpt>
      <trkpt lat="59.4973335" lon="17.8257112">
        <ele>41.9547</ele>
        <time>2011-03-03T20:03:01Z</time>
      </trkpt>
      <trkpt lat="59.4975264" lon="17.8255211">
        <ele>44.8386</ele>
        <time>2011-03-03T20:03:05Z</time>
      </trkpt>
      <trkpt lat="59.4976473" lon="17.8254498">
        <ele>44.358</ele>
        <time>2011-03-03T20:03:08Z</time>
      </trkpt>
      <trkpt lat="59.4978044" lon="17.8252915">
        <ele>40.5128</ele>
        <time>2011-03-03T20:03:13Z</time>
      </trkpt>
      <trkpt lat="59.4978602" lon="17.8252133">
        <ele>37.6287</ele>
        <time>2011-03-03T20:03:15Z</time>
      </trkpt>
      <trkpt lat="59.4981123" lon="17.8250019">
        <ele>37.6287</ele>
        <time>2011-03-03T20:03:22Z</time>
      </trkpt>
      <trkpt lat="59.4982668" lon="17.8248591">
        <ele>36.6675</ele>
        <time>2011-03-03T20:03:27Z</time>
      </trkpt>
      <trkpt lat="59.4983783" lon="17.8247704">
        <ele>33.7834</ele>
        <time>2011-03-03T20:03:31Z</time>
      </trkpt>
      <trkpt lat="59.4985236" lon="17.8246068">
        <ele>31.8607</ele>
        <time>2011-03-03T20:03:36Z</time>
      </trkpt>
      <trkpt lat="59.498647" lon="17.8244906">
        <ele>32.3416</ele>
        <time>2011-03-03T20:03:40Z</time>
      </trkpt>
      <trkpt lat="59.498791" lon="17.824352">
        <ele>33.3029</ele>
        <time>2011-03-03T20:03:45Z</time>
      </trkpt>
      <trkpt lat="59.4989563" lon="17.8242705">
        <ele>34.7449</ele>
        <time>2011-03-03T20:03:49Z</time>
      </trkpt>
      <trkpt lat="59.4991697" lon="17.8240878">
        <ele>36.6675</ele>
        <time>2011-03-03T20:03:55Z</time>
      </trkpt>
      <trkpt lat="59.4993213" lon="17.8239763">
        <ele>38.1094</ele>
        <time>2011-03-03T20:04:00Z</time>
      </trkpt>
      <trkpt lat="59.4994694" lon="17.8238169">
        <ele>36.6675</ele>
        <time>2011-03-03T20:04:05Z</time>
      </trkpt>
      <trkpt lat="59.499638" lon="17.8235868">
        <ele>37.6287</ele>
        <time>2011-03-03T20:04:10Z</time>
      </trkpt>
      <trkpt lat="59.4997467" lon="17.8234857">
        <ele>37.6287</ele>
        <time>2011-03-03T20:04:13Z</time>
      </trkpt>
      <trkpt lat="59.4999477" lon="17.8233121">
        <ele>37.1481</ele>
        <time>2011-03-03T20:04:19Z</time>
      </trkpt>
      <trkpt lat="59.5001472" lon="17.8231537">
        <ele>36.6675</ele>
        <time>2011-03-03T20:04:23Z</time>
      </trkpt>
      <trkpt lat="59.5004337" lon="17.8229622">
        <ele>36.1868</ele>
        <time>2011-03-03T20:04:28Z</time>
      </trkpt>
      <trkpt lat="59.5006704" lon="17.8227721">
        <ele>35.7061</ele>
        <time>2011-03-03T20:04:33Z</time>
      </trkpt>
      <trkpt lat="59.5008665" lon="17.822559">
        <ele>34.7449</ele>
        <time>2011-03-03T20:04:38Z</time>
      </trkpt>
      <trkpt lat="59.5011584" lon="17.8222899">
        <ele>32.8223</ele>
        <time>2011-03-03T20:04:44Z</time>
      </trkpt>
      <trkpt lat="59.5014022" lon="17.8220919">
        <ele>32.3416</ele>
        <time>2011-03-03T20:04:49Z</time>
      </trkpt>
      <trkpt lat="59.5014433" lon="17.8220506">
        <ele>31.8607</ele>
        <time>2011-03-03T20:04:50Z</time>
      </trkpt>
      <trkpt lat="59.5015375" lon="17.8219951">
        <ele>32.8223</ele>
        <time>2011-03-03T20:04:52Z</time>
      </trkpt>
      <trkpt lat="59.5017365" lon="17.8218795">
        <ele>31.8607</ele>
        <time>2011-03-03T20:04:56Z</time>
      </trkpt>
      <trkpt lat="59.5021269" lon="17.8215438">
        <ele>29.9381</ele>
        <time>2011-03-03T20:05:02Z</time>
      </trkpt>
      <trkpt lat="59.5023859" lon="17.8213049">
        <ele>28.0155</ele>
        <time>2011-03-03T20:05:07Z</time>
      </trkpt>
      <trkpt lat="59.502553" lon="17.8211616">
        <ele>25.1317</ele>
        <time>2011-03-03T20:05:11Z</time>
      </trkpt>
      <trkpt lat="59.5026364" lon="17.8211002">
        <ele>25.6123</ele>
        <time>2011-03-03T20:05:13Z</time>
      </trkpt>
      <trkpt lat="59.5027103" lon="17.8210524">
        <ele>25.6123</ele>
        <time>2011-03-03T20:05:15Z</time>
      </trkpt>
      <trkpt lat="59.5027839" lon="17.820975">
        <ele>26.0929</ele>
        <time>2011-03-03T20:05:17Z</time>
      </trkpt>
      <trkpt lat="59.5029367" lon="17.8207968">
        <ele>25.1317</ele>
        <time>2011-03-03T20:05:22Z</time>
      </trkpt>
      <trkpt lat="59.5030004" lon="17.8207264">
        <ele>25.1317</ele>
        <time>2011-03-03T20:05:24Z</time>
      </trkpt>
      <trkpt lat="59.5031506" lon="17.8205623">
        <ele>24.651</ele>
        <time>2011-03-03T20:05:30Z</time>
      </trkpt>
      <trkpt lat="59.5033217" lon="17.8204379">
        <ele>27.5349</ele>
        <time>2011-03-03T20:05:35Z</time>
      </trkpt>
      <trkpt lat="59.5034291" lon="17.8203328">
        <ele>28.0155</ele>
        <time>2011-03-03T20:05:40Z</time>
      </trkpt>
      <trkpt lat="59.503606" lon="17.8201808">
        <ele>29.4575</ele>
        <time>2011-03-03T20:05:45Z</time>
      </trkpt>
      <trkpt lat="59.5037966" lon="17.8199945">
        <ele>28.4962</ele>
        <time>2011-03-03T20:05:50Z</time>
      </trkpt>
      <trkpt lat="59.503925" lon="17.8198843">
        <ele>28.0155</ele>
        <time>2011-03-03T20:05:54Z</time>
      </trkpt>
      <trkpt lat="59.5040712" lon="17.8197552">
        <ele>27.0543</ele>
        <time>2011-03-03T20:05:59Z</time>
      </trkpt>
      <trkpt lat="59.5042296" lon="17.8196396">
        <ele>25.1317</ele>
        <time>2011-03-03T20:06:04Z</time>
      </trkpt>
      <trkpt lat="59.5043246" lon="17.819521">
        <ele>25.6123</ele>
        <time>2011-03-03T20:06:08Z</time>
      </trkpt>
      <trkpt lat="59.50444" lon="17.8193945">
        <ele>23.209</ele>
        <time>2011-03-03T20:06:13Z</time>
      </trkpt>
      <trkpt lat="59.5045705" lon="17.8192717">
        <ele>23.209</ele>
        <time>2011-03-03T20:06:17Z</time>
      </trkpt>
      <trkpt lat="59.5046721" lon="17.8191273">
        <ele>24.651</ele>
        <time>2011-03-03T20:06:21Z</time>
      </trkpt>
      <trkpt lat="59.504785" lon="17.8190502">
        <ele>26.0929</ele>
        <time>2011-03-03T20:06:26Z</time>
      </trkpt>
      <trkpt lat="59.504945" lon="17.8189741">
        <ele>28.4962</ele>
        <time>2011-03-03T20:06:31Z</time>
      </trkpt>
      <trkpt lat="59.5051321" lon="17.8189109">
        <ele>26.5736</ele>
        <time>2011-03-03T20:06:35Z</time>
      </trkpt>
      <trkpt lat="59.5052165" lon="17.8188735">
        <ele>25.1317</ele>
        <time>2011-03-03T20:06:37Z</time>
      </trkpt>
      <trkpt lat="59.5053007" lon="17.8188158">
        <ele>24.651</ele>
        <time>2011-03-03T20:06:39Z</time>
      </trkpt>
      <trkpt lat="59.5054838" lon="17.8187477">
        <ele>25.6123</ele>
        <time>2011-03-03T20:06:44Z</time>
      </trkpt>
      <trkpt lat="59.5056012" lon="17.8186974">
        <ele>27.0543</ele>
        <time>2011-03-03T20:06:48Z</time>
      </trkpt>
      <trkpt lat="59.5057505" lon="17.818686">
        <ele>27.0543</ele>
        <time>2011-03-03T20:06:52Z</time>
      </trkpt>
      <trkpt lat="59.5058724" lon="17.8185667">
        <ele>27.5349</ele>
        <time>2011-03-03T20:06:56Z</time>
      </trkpt>
      <trkpt lat="59.5059044" lon="17.8183618">
        <ele>27.0543</ele>
        <time>2011-03-03T20:07:00Z</time>
      </trkpt>
      <trkpt lat="59.505909" lon="17.8180679">
        <ele>28.0155</ele>
        <time>2011-03-03T20:07:05Z</time>
      </trkpt>
      <trkpt lat="59.5058472" lon="17.8178509">
        <ele>28.4962</ele>
        <time>2011-03-03T20:07:09Z</time>
      </trkpt>
      <trkpt lat="59.5057448" lon="17.8176669">
        <ele>28.9769</ele>
        <time>2011-03-03T20:07:13Z</time>
      </trkpt>
      <trkpt lat="59.5056495" lon="17.8175354">
        <ele>28.0155</ele>
        <time>2011-03-03T20:07:17Z</time>
      </trkpt>
      <trkpt lat="59.5055307" lon="17.817389">
        <ele>26.5736</ele>
        <time>2011-03-03T20:07:21Z</time>
      </trkpt>
      <trkpt lat="59.5053791" lon="17.8171863">
        <ele>23.6896</ele>
        <time>2011-03-03T20:07:25Z</time>
      </trkpt>
      <trkpt lat="59.5053117" lon="17.8170789">
        <ele>22.2476</ele>
        <time>2011-03-03T20:07:27Z</time>
      </trkpt>
      <trkpt lat="59.5052" lon="17.8169645">
        <ele>20.325</ele>
        <time>2011-03-03T20:07:30Z</time>
      </trkpt>
      <trkpt lat="59.5049832" lon="17.81677">
        <ele>14.557</ele>
        <time>2011-03-03T20:07:35Z</time>
      </trkpt>
      <trkpt lat="59.5049273" lon="17.8167192">
        <ele>13.5958</ele>
        <time>2011-03-03T20:07:36Z</time>
      </trkpt>
      <trkpt lat="59.5046858" lon="17.8164477">
        <ele>10.2312</ele>
        <time>2011-03-03T20:07:41Z</time>
      </trkpt>
      <trkpt lat="59.504624" lon="17.8163594">
        <ele>8.78918</ele>
        <time>2011-03-03T20:07:43Z</time>
      </trkpt>
      <trkpt lat="59.5044206" lon="17.8159111">
        <ele>5.90527</ele>
        <time>2011-03-03T20:07:49Z</time>
      </trkpt>
      <trkpt lat="59.504303" lon="17.8156659">
        <ele>3.98267</ele>
        <time>2011-03-03T20:07:52Z</time>
      </trkpt>
      <trkpt lat="59.504157" lon="17.8153926">
        <ele>4.94385</ele>
        <time>2011-03-03T20:07:55Z</time>
      </trkpt>
      <trkpt lat="59.503952" lon="17.8148882">
        <ele>6.38586</ele>
        <time>2011-03-03T20:08:00Z</time>
      </trkpt>
      <trkpt lat="59.5038059" lon="17.814763">
        <ele>4.94385</ele>
        <time>2011-03-03T20:08:03Z</time>
      </trkpt>
      <trkpt lat="59.5036428" lon="17.8148205">
        <ele>6.86646</ele>
        <time>2011-03-03T20:08:06Z</time>
      </trkpt>
      <trkpt lat="59.503612" lon="17.8150116">
        <ele>8.78918</ele>
        <time>2011-03-03T20:08:09Z</time>
      </trkpt>
      <trkpt lat="59.5036365" lon="17.8151184">
        <ele>9.2699</ele>
        <time>2011-03-03T20:08:12Z</time>
      </trkpt>
      <trkpt lat="59.5036231" lon="17.8153525">
        <ele>8.78918</ele>
        <time>2011-03-03T20:08:18Z</time>
      </trkpt>
      <trkpt lat="59.5035926" lon="17.8155147">
        <ele>8.30859</ele>
        <time>2011-03-03T20:08:23Z</time>
      </trkpt>
      <trkpt lat="59.503532" lon="17.8156682">
        <ele>10.7118</ele>
        <time>2011-03-03T20:08:28Z</time>
      </trkpt>
      <trkpt lat="59.5034655" lon="17.815912">
        <ele>14.0764</ele>
        <time>2011-03-03T20:08:34Z</time>
      </trkpt>
      <trkpt lat="59.5034416" lon="17.8160084">
        <ele>15.0377</ele>
        <time>2011-03-03T20:08:36Z</time>
      </trkpt>
      <trkpt lat="59.5033729" lon="17.8162278">
        <ele>16.9604</ele>
        <time>2011-03-03T20:08:40Z</time>
      </trkpt>
      <trkpt lat="59.5032491" lon="17.8164834">
        <ele>14.557</ele>
        <time>2011-03-03T20:08:46Z</time>
      </trkpt>
      <trkpt lat="59.5031527" lon="17.8165523">
        <ele>13.5958</ele>
        <time>2011-03-03T20:08:49Z</time>
      </trkpt>
      <trkpt lat="59.5031129" lon="17.8165728">
        <ele>13.1151</ele>
        <time>2011-03-03T20:08:50Z</time>
      </trkpt>
      <trkpt lat="59.5029968" lon="17.8167249">
        <ele>9.75061</ele>
        <time>2011-03-03T20:08:54Z</time>
      </trkpt>
      <trkpt lat="59.502885" lon="17.8169346">
        <ele>7.82788</ele>
        <time>2011-03-03T20:08:59Z</time>
      </trkpt>
      <trkpt lat="59.5027901" lon="17.8170812">
        <ele>7.34717</ele>
        <time>2011-03-03T20:09:04Z</time>
      </trkpt>
      <trkpt lat="59.5027601" lon="17.8171144">
        <ele>7.82788</ele>
        <time>2011-03-03T20:09:06Z</time>
      </trkpt>
      <trkpt lat="59.5027062" lon="17.8172506">
        <ele>14.0764</ele>
        <time>2011-03-03T20:09:10Z</time>
      </trkpt>
      <trkpt lat="59.502605" lon="17.817408">
        <ele>17.9218</ele>
        <time>2011-03-03T20:09:15Z</time>
      </trkpt>
      <trkpt lat="59.5025336" lon="17.8174877">
        <ele>18.4023</ele>
        <time>2011-03-03T20:09:19Z</time>
      </trkpt>
      <trkpt lat="59.5024574" lon="17.8175236">
        <ele>17.9218</ele>
        <time>2011-03-03T20:09:23Z</time>
      </trkpt>
      <trkpt lat="59.5023444" lon="17.8175985">
        <ele>19.3638</ele>
        <time>2011-03-03T20:09:28Z</time>
      </trkpt>
      <trkpt lat="59.5022458" lon="17.8176153">
        <ele>20.8057</ele>
        <time>2011-03-03T20:09:32Z</time>
      </trkpt>
      <trkpt lat="59.5021266" lon="17.817622">
        <ele>20.325</ele>
        <time>2011-03-03T20:09:37Z</time>
      </trkpt>
      <trkpt lat="59.5020654" lon="17.8175971">
        <ele>19.8444</ele>
        <time>2011-03-03T20:09:39Z</time>
      </trkpt>
      <trkpt lat="59.5020039" lon="17.8173695">
        <ele>18.8831</ele>
        <time>2011-03-03T20:09:44Z</time>
      </trkpt>
      <trkpt lat="59.502043" lon="17.8170055">
        <ele>17.9218</ele>
        <time>2011-03-03T20:09:47Z</time>
      </trkpt>
      <trkpt lat="59.5019603" lon="17.8163233">
        <ele>15.5184</ele>
        <time>2011-03-03T20:09:52Z</time>
      </trkpt>
      <trkpt lat="59.5017132" lon="17.8163807">
        <ele>14.0764</ele>
        <time>2011-03-03T20:09:56Z</time>
      </trkpt>
      <trkpt lat="59.5015912" lon="17.8165835">
        <ele>14.0764</ele>
        <time>2011-03-03T20:10:00Z</time>
      </trkpt>
      <trkpt lat="59.5015206" lon="17.8166673">
        <ele>15.999</ele>
        <time>2011-03-03T20:10:03Z</time>
      </trkpt>
      <trkpt lat="59.5013335" lon="17.8166896">
        <ele>15.0377</ele>
        <time>2011-03-03T20:10:08Z</time>
      </trkpt>
      <trkpt lat="59.5012459" lon="17.8167967">
        <ele>14.557</ele>
        <time>2011-03-03T20:10:12Z</time>
      </trkpt>
      <trkpt lat="59.5011511" lon="17.8169159">
        <ele>13.1151</ele>
        <time>2011-03-03T20:10:16Z</time>
      </trkpt>
      <trkpt lat="59.501014" lon="17.8170189">
        <ele>14.557</ele>
        <time>2011-03-03T20:10:21Z</time>
      </trkpt>
      <trkpt lat="59.5008978" lon="17.817045">
        <ele>17.4412</ele>
        <time>2011-03-03T20:10:25Z</time>
      </trkpt>
      <trkpt lat="59.5008139" lon="17.8171004">
        <ele>18.8831</ele>
        <time>2011-03-03T20:10:29Z</time>
      </trkpt>
      <trkpt lat="59.500758" lon="17.817231">
        <ele>19.3638</ele>
        <time>2011-03-03T20:10:33Z</time>
      </trkpt>
      <trkpt lat="59.500745" lon="17.8174433">
        <ele>18.8831</ele>
        <time>2011-03-03T20:10:38Z</time>
      </trkpt>
      <trkpt lat="59.5007502" lon="17.8175465">
        <ele>19.8444</ele>
        <time>2011-03-03T20:10:40Z</time>
      </trkpt>
      <trkpt lat="59.5007484" lon="17.8177718">
        <ele>20.325</ele>
        <time>2011-03-03T20:10:45Z</time>
      </trkpt>
      <trkpt lat="59.5007287" lon="17.8179582">
        <ele>20.325</ele>
        <time>2011-03-03T20:10:50Z</time>
      </trkpt>
      <trkpt lat="59.5007133" lon="17.8180944">
        <ele>19.8444</ele>
        <time>2011-03-03T20:10:53Z</time>
      </trkpt>
      <trkpt lat="59.500664" lon="17.8183183">
        <ele>21.767</ele>
        <time>2011-03-03T20:10:58Z</time>
      </trkpt>
      <trkpt lat="59.5005616" lon="17.8184377">
        <ele>21.767</ele>
        <time>2011-03-03T20:11:03Z</time>
      </trkpt>
      <trkpt lat="59.5004798" lon="17.8184621">
        <ele>24.651</ele>
        <time>2011-03-03T20:11:06Z</time>
      </trkpt>
      <trkpt lat="59.5002648" lon="17.8184627">
        <ele>28.9769</ele>
        <time>2011-03-03T20:11:12Z</time>
      </trkpt>
      <trkpt lat="59.5001512" lon="17.8183875">
        <ele>31.3801</ele>
        <time>2011-03-03T20:11:16Z</time>
      </trkpt>
      <trkpt lat="59.500011" lon="17.8183793">
        <ele>33.3029</ele>
        <time>2011-03-03T20:11:21Z</time>
      </trkpt>
      <trkpt lat="59.4999289" lon="17.8183691">
        <ele>34.7449</ele>
        <time>2011-03-03T20:11:25Z</time>
      </trkpt>
      <trkpt lat="59.4998126" lon="17.8183745">
        <ele>35.7061</ele>
        <time>2011-03-03T20:11:29Z</time>
      </trkpt>
      <trkpt lat="59.4997406" lon="17.8183558">
        <ele>35.7061</ele>
        <time>2011-03-03T20:11:31Z</time>
      </trkpt>
      <trkpt lat="59.4995749" lon="17.8182287">
        <ele>36.6675</ele>
        <time>2011-03-03T20:11:37Z</time>
      </trkpt>
      <trkpt lat="59.499397" lon="17.8181245">
        <ele>35.7061</ele>
        <time>2011-03-03T20:11:42Z</time>
      </trkpt>
      <trkpt lat="59.4992496" lon="17.8180613">
        <ele>35.2255</ele>
        <time>2011-03-03T20:11:46Z</time>
      </trkpt>
      <trkpt lat="59.4991297" lon="17.8180012">
        <ele>33.3029</ele>
        <time>2011-03-03T20:11:50Z</time>
      </trkpt>
      <trkpt lat="59.4989889" lon="17.8179675">
        <ele>32.3416</ele>
        <time>2011-03-03T20:11:54Z</time>
      </trkpt>
      <trkpt lat="59.4988749" lon="17.8179348">
        <ele>35.2255</ele>
        <time>2011-03-03T20:11:58Z</time>
      </trkpt>
      <trkpt lat="59.4987543" lon="17.8179167">
        <ele>35.7061</ele>
        <time>2011-03-03T20:12:02Z</time>
      </trkpt>
      <trkpt lat="59.4986144" lon="17.8178668">
        <ele>38.1094</ele>
        <time>2011-03-03T20:12:07Z</time>
      </trkpt>
      <trkpt lat="59.4985958" lon="17.8178661">
        <ele>38.1094</ele>
        <time>2011-03-03T20:12:08Z</time>
      </trkpt>
      <trkpt lat="59.4985021" lon="17.8178847">
        <ele>40.5128</ele>
        <time>2011-03-03T20:12:13Z</time>
      </trkpt>
      <trkpt lat="59.4984309" lon="17.8179121">
        <ele>42.4354</ele>
        <time>2011-03-03T20:12:17Z</time>
      </trkpt>
      <trkpt lat="59.4983219" lon="17.817901">
        <ele>44.358</ele>
        <time>2011-03-03T20:12:22Z</time>
      </trkpt>
      <trkpt lat="59.4982424" lon="17.8178282">
        <ele>42.4354</ele>
        <time>2011-03-03T20:12:27Z</time>
      </trkpt>
      <trkpt lat="59.4981385" lon="17.8177882">
        <ele>43.3966</ele>
        <time>2011-03-03T20:12:31Z</time>
      </trkpt>
      <trkpt lat="59.4980317" lon="17.817794">
        <ele>42.916</ele>
        <time>2011-03-03T20:12:35Z</time>
      </trkpt>
      <trkpt lat="59.497897" lon="17.8178551">
        <ele>42.4354</ele>
        <time>2011-03-03T20:12:39Z</time>
      </trkpt>
      <trkpt lat="59.4977399" lon="17.8181046">
        <ele>38.1094</ele>
        <time>2011-03-03T20:12:44Z</time>
      </trkpt>
      <trkpt lat="59.4976338" lon="17.8183245">
        <ele>33.7834</ele>
        <time>2011-03-03T20:12:49Z</time>
      </trkpt>
      <trkpt lat="59.4975404" lon="17.8185275">
        <ele>33.3029</ele>
        <time>2011-03-03T20:12:53Z</time>
      </trkpt>
      <trkpt lat="59.4974712" lon="17.8186881">
        <ele>30.8995</ele>
        <time>2011-03-03T20:12:56Z</time>
      </trkpt>
      <trkpt lat="59.4972758" lon="17.8188356">
        <ele>28.0155</ele>
        <time>2011-03-03T20:13:02Z</time>
      </trkpt>
      <trkpt lat="59.497097" lon="17.8189314">
        <ele>27.5349</ele>
        <time>2011-03-03T20:13:06Z</time>
      </trkpt>
      <trkpt lat="59.4970086" lon="17.8189222">
        <ele>26.0929</ele>
        <time>2011-03-03T20:13:08Z</time>
      </trkpt>
      <trkpt lat="59.4968365" lon="17.8187663">
        <ele>26.5736</ele>
        <time>2011-03-03T20:13:14Z</time>
      </trkpt>
      <trkpt lat="59.4967009" lon="17.8186771">
        <ele>28.4962</ele>
        <time>2011-03-03T20:13:19Z</time>
      </trkpt>
      <trkpt lat="59.4965718" lon="17.8186413">
        <ele>31.3801</ele>
        <time>2011-03-03T20:13:24Z</time>
      </trkpt>
      <trkpt lat="59.4964572" lon="17.8187179">
        <ele>33.7834</ele>
        <time>2011-03-03T20:13:30Z</time>
      </trkpt>
      <trkpt lat="59.4964396" lon="17.8187285">
        <ele>33.3029</ele>
        <time>2011-03-03T20:13:31Z</time>
      </trkpt>
      <trkpt lat="59.4963839" lon="17.8188242">
        <ele>33.3029</ele>
        <time>2011-03-03T20:13:37Z</time>
      </trkpt>
      <trkpt lat="59.496329" lon="17.8189386">
        <ele>34.2642</ele>
        <time>2011-03-03T20:13:43Z</time>
      </trkpt>
      <trkpt lat="59.4963035" lon="17.8189572">
        <ele>33.7834</ele>
        <time>2011-03-03T20:13:44Z</time>
      </trkpt>
      <trkpt lat="59.4962518" lon="17.8190121">
        <ele>34.7449</ele>
        <time>2011-03-03T20:13:47Z</time>
      </trkpt>
      <trkpt lat="59.4961511" lon="17.8191087">
        <ele>36.6675</ele>
        <time>2011-03-03T20:13:53Z</time>
      </trkpt>
      <trkpt lat="59.4960573" lon="17.819171">
        <ele>37.6287</ele>
        <time>2011-03-03T20:13:57Z</time>
      </trkpt>
      <trkpt lat="59.4959792" lon="17.8192725">
        <ele>42.916</ele>
        <time>2011-03-03T20:14:01Z</time>
      </trkpt>
      <trkpt lat="59.4958735" lon="17.8194506">
        <ele>43.3966</ele>
        <time>2011-03-03T20:14:07Z</time>
      </trkpt>
      <trkpt lat="59.4957668" lon="17.8195582">
        <ele>46.2806</ele>
        <time>2011-03-03T20:14:12Z</time>
      </trkpt>
      <trkpt lat="59.4956554" lon="17.8196267">
        <ele>46.7612</ele>
        <time>2011-03-03T20:14:17Z</time>
      </trkpt>
      <trkpt lat="59.4955924" lon="17.8196707">
        <ele>47.7225</ele>
        <time>2011-03-03T20:14:20Z</time>
      </trkpt>
      <trkpt lat="59.4954613" lon="17.8197656">
        <ele>47.7225</ele>
        <time>2011-03-03T20:14:25Z</time>
      </trkpt>
      <trkpt lat="59.4953601" lon="17.8198809">
        <ele>46.7612</ele>
        <time>2011-03-03T20:14:29Z</time>
      </trkpt>
      <trkpt lat="59.4952582" lon="17.8200477">
        <ele>44.358</ele>
        <time>2011-03-03T20:14:33Z</time>
      </trkpt>
      <trkpt lat="59.4951654" lon="17.8202167">
        <ele>42.4354</ele>
        <time>2011-03-03T20:14:37Z</time>
      </trkpt>
      <trkpt lat="59.4950845" lon="17.8202934">
        <ele>41.474</ele>
        <time>2011-03-03T20:14:41Z</time>
      </trkpt>
      <trkpt lat="59.4949739" lon="17.8202315">
        <ele>40.9934</ele>
        <time>2011-03-03T20:14:46Z</time>
      </trkpt>
      <trkpt lat="59.4949086" lon="17.8201143">
        <ele>41.474</ele>
        <time>2011-03-03T20:14:50Z</time>
      </trkpt>
      <trkpt lat="59.4948494" lon="17.8200225">
        <ele>41.9547</ele>
        <time>2011-03-03T20:14:54Z</time>
      </trkpt>
      <trkpt lat="59.4948134" lon="17.8199758">
        <ele>43.8773</ele>
        <time>2011-03-03T20:14:57Z</time>
      </trkpt>
      <trkpt lat="59.4947672" lon="17.8199096">
        <ele>45.3192</ele>
        <time>2011-03-03T20:15:01Z</time>
      </trkpt>
      <trkpt lat="59.4947066" lon="17.8198176">
        <ele>47.7225</ele>
        <time>2011-03-03T20:15:05Z</time>
      </trkpt>
      <trkpt lat="59.4945977" lon="17.8197173">
        <ele>50.126</ele>
        <time>2011-03-03T20:15:10Z</time>
      </trkpt>
      <trkpt lat="59.4944885" lon="17.819657">
        <ele>50.126</ele>
        <time>2011-03-03T20:15:14Z</time>
      </trkpt>
      <trkpt lat="59.4944501" lon="17.8196345">
        <ele>48.684</ele>
        <time>2011-03-03T20:15:15Z</time>
      </trkpt>
      <trkpt lat="59.4943159" lon="17.8195915">
        <ele>50.126</ele>
        <time>2011-03-03T20:15:20Z</time>
      </trkpt>
      <trkpt lat="59.4942143" lon="17.8195595">
        <ele>51.0872</ele>
        <time>2011-03-03T20:15:25Z</time>
      </trkpt>
      <trkpt lat="59.4941243" lon="17.8195283">
        <ele>51.5679</ele>
        <time>2011-03-03T20:15:29Z</time>
      </trkpt>
      <trkpt lat="59.4940185" lon="17.8194552">
        <ele>53.0098</ele>
        <time>2011-03-03T20:15:34Z</time>
      </trkpt>
      <trkpt lat="59.4939175" lon="17.8193283">
        <ele>52.5292</ele>
        <time>2011-03-03T20:15:40Z</time>
      </trkpt>
      <trkpt lat="59.4938055" lon="17.8192067">
        <ele>52.0486</ele>
        <time>2011-03-03T20:15:45Z</time>
      </trkpt>
      <trkpt lat="59.4936332" lon="17.819089">
        <ele>50.6066</ele>
        <time>2011-03-03T20:15:50Z</time>
      </trkpt>
      <trkpt lat="59.4934842" lon="17.8190909">
        <ele>50.126</ele>
        <time>2011-03-03T20:15:54Z</time>
      </trkpt>
      <trkpt lat="59.4933364" lon="17.8191522">
        <ele>47.7225</ele>
        <time>2011-03-03T20:15:58Z</time>
      </trkpt>
      <trkpt lat="59.4931908" lon="17.8191501">
        <ele>46.7612</ele>
        <time>2011-03-03T20:16:02Z</time>
      </trkpt>
      <trkpt lat="59.4931181" lon="17.8190334">
        <ele>46.7612</ele>
        <time>2011-03-03T20:16:05Z</time>
      </trkpt>
      <trkpt lat="59.4930985" lon="17.8186404">
        <ele>46.7612</ele>
        <time>2011-03-03T20:16:10Z</time>
      </trkpt>
      <trkpt lat="59.4930562" lon="17.8182291">
        <ele>47.7225</ele>
        <time>2011-03-03T20:16:15Z</time>
      </trkpt>
      <trkpt lat="59.4930042" lon="17.8180675">
        <ele>47.2418</ele>
        <time>2011-03-03T20:16:17Z</time>
      </trkpt>
      <trkpt lat="59.492849" lon="17.817768">
        <ele>44.8386</ele>
        <time>2011-03-03T20:16:22Z</time>
      </trkpt>
      <trkpt lat="59.4927556" lon="17.8177478">
        <ele>42.916</ele>
        <time>2011-03-03T20:16:24Z</time>
      </trkpt>
      <trkpt lat="59.492547" lon="17.8178847">
        <ele>46.7612</ele>
        <time>2011-03-03T20:16:32Z</time>
      </trkpt>
      <trkpt lat="59.4924438" lon="17.8179245">
        <ele>48.2034</ele>
        <time>2011-03-03T20:16:36Z</time>
      </trkpt>
      <trkpt lat="59.4923444" lon="17.8178663">
        <ele>49.1646</ele>
        <time>2011-03-03T20:16:40Z</time>
      </trkpt>
      <trkpt lat="59.4922372" lon="17.817754">
        <ele>47.7225</ele>
        <time>2011-03-03T20:16:44Z</time>
      </trkpt>
      <trkpt lat="59.4921621" lon="17.8176535">
        <ele>47.2418</ele>
        <time>2011-03-03T20:16:48Z</time>
      </trkpt>
      <trkpt lat="59.4921415" lon="17.8176422">
        <ele>47.2418</ele>
        <time>2011-03-03T20:16:49Z</time>
      </trkpt>
      <trkpt lat="59.4920726" lon="17.8175778">
        <ele>48.684</ele>
        <time>2011-03-03T20:16:54Z</time>
      </trkpt>
      <trkpt lat="59.4920341" lon="17.8175475">
        <ele>49.1646</ele>
        <time>2011-03-03T20:16:56Z</time>
      </trkpt>
      <trkpt lat="59.4919383" lon="17.8175022">
        <ele>52.0486</ele>
        <time>2011-03-03T20:17:02Z</time>
      </trkpt>
      <trkpt lat="59.4918523" lon="17.8174353">
        <ele>52.5292</ele>
        <time>2011-03-03T20:17:06Z</time>
      </trkpt>
      <trkpt lat="59.4917364" lon="17.8173804">
        <ele>52.5292</ele>
        <time>2011-03-03T20:17:11Z</time>
      </trkpt>
      <trkpt lat="59.4916441" lon="17.8173261">
        <ele>53.0098</ele>
        <time>2011-03-03T20:17:15Z</time>
      </trkpt>
      <trkpt lat="59.491512" lon="17.8172981">
        <ele>54.9324</ele>
        <time>2011-03-03T20:17:20Z</time>
      </trkpt>
      <trkpt lat="59.4913888" lon="17.8172863">
        <ele>55.4131</ele>
        <time>2011-03-03T20:17:24Z</time>
      </trkpt>
      <trkpt lat="59.4913208" lon="17.8172868">
        <ele>54.9324</ele>
        <time>2011-03-03T20:17:26Z</time>
      </trkpt>
      <trkpt lat="59.4912282" lon="17.8171998">
        <ele>55.8938</ele>
        <time>2011-03-03T20:17:31Z</time>
      </trkpt>
      <trkpt lat="59.4911407" lon="17.8171277">
        <ele>56.8551</ele>
        <time>2011-03-03T20:17:35Z</time>
      </trkpt>
      <trkpt lat="59.4910106" lon="17.817091">
        <ele>56.8551</ele>
        <time>2011-03-03T20:17:40Z</time>
      </trkpt>
      <trkpt lat="59.4908261" lon="17.8168814">
        <ele>54.4518</ele>
        <time>2011-03-03T20:17:45Z</time>
      </trkpt>
      <trkpt lat="59.4907335" lon="17.8167404">
        <ele>52.5292</ele>
        <time>2011-03-03T20:17:47Z</time>
      </trkpt>
      <trkpt lat="59.4904036" lon="17.8165497">
        <ele>46.7612</ele>
        <time>2011-03-03T20:17:53Z</time>
      </trkpt>
      <trkpt lat="59.4901569" lon="17.8167005">
        <ele>45.3192</ele>
        <time>2011-03-03T20:17:57Z</time>
      </trkpt>
      <trkpt lat="59.4900399" lon="17.8170241">
        <ele>44.358</ele>
        <time>2011-03-03T20:18:01Z</time>
      </trkpt>
      <trkpt lat="59.489976" lon="17.8173532">
        <ele>43.3966</ele>
        <time>2011-03-03T20:18:05Z</time>
      </trkpt>
      <trkpt lat="59.4900016" lon="17.8176308">
        <ele>44.8386</ele>
        <time>2011-03-03T20:18:09Z</time>
      </trkpt>
      <trkpt lat="59.4900261" lon="17.8178282">
        <ele>45.7999</ele>
        <time>2011-03-03T20:18:12Z</time>
      </trkpt>
      <trkpt lat="59.4900507" lon="17.8181543">
        <ele>45.3192</ele>
        <time>2011-03-03T20:18:15Z</time>
      </trkpt>
      <trkpt lat="59.4901456" lon="17.8188957">
        <ele>46.7612</ele>
        <time>2011-03-03T20:18:21Z</time>
      </trkpt>
      <trkpt lat="59.4901569" lon="17.8190086">
        <ele>47.7225</ele>
        <time>2011-03-03T20:18:22Z</time>
      </trkpt>
      <trkpt lat="59.4901951" lon="17.8192222">
        <ele>48.684</ele>
        <time>2011-03-03T20:18:24Z</time>
      </trkpt>
      <trkpt lat="59.4903266" lon="17.8194843">
        <ele>48.2034</ele>
        <time>2011-03-03T20:18:28Z</time>
      </trkpt>
      <trkpt lat="59.4904331" lon="17.8195703">
        <ele>45.7999</ele>
        <time>2011-03-03T20:18:31Z</time>
      </trkpt>
      <trkpt lat="59.4906397" lon="17.8196702">
        <ele>47.7225</ele>
        <time>2011-03-03T20:18:37Z</time>
      </trkpt>
      <trkpt lat="59.490793" lon="17.8196623">
        <ele>46.7612</ele>
        <time>2011-03-03T20:18:42Z</time>
      </trkpt>
      <trkpt lat="59.4909203" lon="17.819675">
        <ele>47.7225</ele>
        <time>2011-03-03T20:18:47Z</time>
      </trkpt>
      <trkpt lat="59.4910638" lon="17.8196853">
        <ele>49.6453</ele>
        <time>2011-03-03T20:18:52Z</time>
      </trkpt>
      <trkpt lat="59.4912144" lon="17.8198086">
        <ele>50.6066</ele>
        <time>2011-03-03T20:18:57Z</time>
      </trkpt>
      <trkpt lat="59.4913741" lon="17.820026">
        <ele>50.6066</ele>
        <time>2011-03-03T20:19:01Z</time>
      </trkpt>
      <trkpt lat="59.4914544" lon="17.8200897">
        <ele>50.126</ele>
        <time>2011-03-03T20:19:03Z</time>
      </trkpt>
      <trkpt lat="59.4916182" lon="17.8201824">
        <ele>49.1646</ele>
        <time>2011-03-03T20:19:07Z</time>
      </trkpt>
      <trkpt lat="59.4917969" lon="17.820288">
        <ele>47.7225</ele>
        <time>2011-03-03T20:19:12Z</time>
      </trkpt>
      <trkpt lat="59.4919135" lon="17.8203928">
        <ele>47.2418</ele>
        <time>2011-03-03T20:19:15Z</time>
      </trkpt>
      <trkpt lat="59.492007" lon="17.8205713">
        <ele>48.684</ele>
        <time>2011-03-03T20:19:18Z</time>
      </trkpt>
      <trkpt lat="59.4919911" lon="17.8210446">
        <ele>42.4354</ele>
        <time>2011-03-03T20:19:23Z</time>
      </trkpt>
      <trkpt lat="59.4919132" lon="17.8212204">
        <ele>43.8773</ele>
        <time>2011-03-03T20:19:27Z</time>
      </trkpt>
      <trkpt lat="59.4918532" lon="17.8214504">
        <ele>42.916</ele>
        <time>2011-03-03T20:19:31Z</time>
      </trkpt>
      <trkpt lat="59.4918057" lon="17.8216894">
        <ele>38.5901</ele>
        <time>2011-03-03T20:19:35Z</time>
      </trkpt>
      <trkpt lat="59.4916367" lon="17.8218288">
        <ele>35.7061</ele>
        <time>2011-03-03T20:19:40Z</time>
      </trkpt>
      <trkpt lat="59.4915085" lon="17.8219197">
        <ele>33.3029</ele>
        <time>2011-03-03T20:19:44Z</time>
      </trkpt>
      <trkpt lat="59.4913841" lon="17.8220498">
        <ele>31.3801</ele>
        <time>2011-03-03T20:19:49Z</time>
      </trkpt>
      <trkpt lat="59.4913458" lon="17.8221236">
        <ele>28.9769</ele>
        <time>2011-03-03T20:19:51Z</time>
      </trkpt>
      <trkpt lat="59.4913585" lon="17.8224678">
        <ele>34.7449</ele>
        <time>2011-03-03T20:19:55Z</time>
      </trkpt>
      <trkpt lat="59.4913766" lon="17.8225331">
        <ele>37.1481</ele>
        <time>2011-03-03T20:19:56Z</time>
      </trkpt>
      <trkpt lat="59.4914198" lon="17.8226135">
        <ele>37.6287</ele>
        <time>2011-03-03T20:19:58Z</time>
      </trkpt>
      <trkpt lat="59.491417" lon="17.8225954">
        <ele>38.5901</ele>
        <time>2011-03-03T20:20:02Z</time>
      </trkpt>
      <trkpt lat="59.491524" lon="17.8226524">
        <ele>41.9547</ele>
        <time>2011-03-03T20:20:08Z</time>
      </trkpt>
      <trkpt lat="59.4916077" lon="17.8226949">
        <ele>41.9547</ele>
        <time>2011-03-03T20:20:12Z</time>
      </trkpt>
      <trkpt lat="59.4917528" lon="17.8227876">
        <ele>43.3966</ele>
        <time>2011-03-03T20:20:18Z</time>
      </trkpt>
      <trkpt lat="59.4918409" lon="17.8228239">
        <ele>45.3192</ele>
        <time>2011-03-03T20:20:22Z</time>
      </trkpt>
      <trkpt lat="59.4920029" lon="17.8227872">
        <ele>47.7225</ele>
        <time>2011-03-03T20:20:27Z</time>
      </trkpt>
      <trkpt lat="59.4921791" lon="17.8227239">
        <ele>48.684</ele>
        <time>2011-03-03T20:20:32Z</time>
      </trkpt>
      <trkpt lat="59.49231" lon="17.822787">
        <ele>49.6453</ele>
        <time>2011-03-03T20:20:36Z</time>
      </trkpt>
      <trkpt lat="59.4924621" lon="17.8228949">
        <ele>50.6066</ele>
        <time>2011-03-03T20:20:40Z</time>
      </trkpt>
      <trkpt lat="59.4925716" lon="17.8229145">
        <ele>51.5679</ele>
        <time>2011-03-03T20:20:44Z</time>
      </trkpt>
      <trkpt lat="59.4926652" lon="17.8229771">
        <ele>53.0098</ele>
        <time>2011-03-03T20:20:48Z</time>
      </trkpt>
      <trkpt lat="59.4928211" lon="17.8230692">
        <ele>54.4518</ele>
        <time>2011-03-03T20:20:53Z</time>
      </trkpt>
      <trkpt lat="59.4929457" lon="17.8231803">
        <ele>54.4518</ele>
        <time>2011-03-03T20:20:57Z</time>
      </trkpt>
      <trkpt lat="59.4930703" lon="17.8233723">
        <ele>54.9324</ele>
        <time>2011-03-03T20:21:01Z</time>
      </trkpt>
      <trkpt lat="59.493179" lon="17.8235449">
        <ele>55.4131</ele>
        <time>2011-03-03T20:21:05Z</time>
      </trkpt>
      <trkpt lat="59.4932602" lon="17.8238478">
        <ele>54.9324</ele>
        <time>2011-03-03T20:21:10Z</time>
      </trkpt>
      <trkpt lat="59.4932081" lon="17.8241249">
        <ele>47.7225</ele>
        <time>2011-03-03T20:21:14Z</time>
      </trkpt>
      <trkpt lat="59.4931598" lon="17.8243197">
        <ele>44.358</ele>
        <time>2011-03-03T20:21:16Z</time>
      </trkpt>
      <trkpt lat="59.4931388" lon="17.8248271">
        <ele>38.5901</ele>
        <time>2011-03-03T20:21:20Z</time>
      </trkpt>
      <trkpt lat="59.4932188" lon="17.8257274">
        <ele>39.5513</ele>
        <time>2011-03-03T20:21:27Z</time>
      </trkpt>
      <trkpt lat="59.4933323" lon="17.8260749">
        <ele>40.0321</ele>
        <time>2011-03-03T20:21:32Z</time>
      </trkpt>
      <trkpt lat="59.4934349" lon="17.8261629">
        <ele>41.474</ele>
        <time>2011-03-03T20:21:35Z</time>
      </trkpt>
      <trkpt lat="59.4935856" lon="17.8262686">
        <ele>44.358</ele>
        <time>2011-03-03T20:21:40Z</time>
      </trkpt>
      <trkpt lat="59.4937781" lon="17.8262903">
        <ele>45.3192</ele>
        <time>2011-03-03T20:21:46Z</time>
      </trkpt>
      <trkpt lat="59.4938394" lon="17.8263044">
        <ele>44.8386</ele>
        <time>2011-03-03T20:21:49Z</time>
      </trkpt>
      <trkpt lat="59.4940438" lon="17.8264265">
        <ele>47.7225</ele>
        <time>2011-03-03T20:21:54Z</time>
      </trkpt>
      <trkpt lat="59.4941977" lon="17.8265287">
        <ele>50.6066</ele>
        <time>2011-03-03T20:21:58Z</time>
      </trkpt>
      <trkpt lat="59.4942741" lon="17.8265861">
        <ele>51.0872</ele>
        <time>2011-03-03T20:22:00Z</time>
      </trkpt>
      <trkpt lat="59.4943555" lon="17.8266292">
        <ele>50.6066</ele>
        <time>2011-03-03T20:22:02Z</time>
      </trkpt>
      <trkpt lat="59.4945748" lon="17.8267175">
        <ele>46.7612</ele>
        <time>2011-03-03T20:22:08Z</time>
      </trkpt>
      <trkpt lat="59.4946827" lon="17.8268502">
        <ele>43.8773</ele>
        <time>2011-03-03T20:22:12Z</time>
      </trkpt>
      <trkpt lat="59.4947755" lon="17.8269476">
        <ele>43.8773</ele>
        <time>2011-03-03T20:22:16Z</time>
      </trkpt>
      <trkpt lat="59.4949004" lon="17.8270498">
        <ele>46.7612</ele>
        <time>2011-03-03T20:22:20Z</time>
      </trkpt>
      <trkpt lat="59.4950679" lon="17.8271331">
        <ele>49.6453</ele>
        <time>2011-03-03T20:22:25Z</time>
      </trkpt>
      <trkpt lat="59.4952396" lon="17.8272682">
        <ele>49.1646</ele>
        <time>2011-03-03T20:22:30Z</time>
      </trkpt>
      <trkpt lat="59.4953997" lon="17.8273218">
        <ele>46.2806</ele>
        <time>2011-03-03T20:22:35Z</time>
      </trkpt>
      <trkpt lat="59.4955871" lon="17.8272591">
        <ele>43.3966</ele>
        <time>2011-03-03T20:22:40Z</time>
      </trkpt>
      <trkpt lat="59.4957605" lon="17.8271058">
        <ele>40.5128</ele>
        <time>2011-03-03T20:22:45Z</time>
      </trkpt>
      <trkpt lat="59.4959296" lon="17.8269361">
        <ele>38.1094</ele>
        <time>2011-03-03T20:22:50Z</time>
      </trkpt>
      <trkpt lat="59.4960725" lon="17.8268042">
        <ele>35.7061</ele>
        <time>2011-03-03T20:22:54Z</time>
      </trkpt>
      <trkpt lat="59.4962425" lon="17.8266323">
        <ele>34.2642</ele>
        <time>2011-03-03T20:22:59Z</time>
      </trkpt>
      <trkpt lat="59.4964113" lon="17.8264694">
        <ele>32.3416</ele>
        <time>2011-03-03T20:23:04Z</time>
      </trkpt>
      <trkpt lat="59.4965491" lon="17.8263748">
        <ele>32.8223</ele>
        <time>2011-03-03T20:23:08Z</time>
      </trkpt>
      <trkpt lat="59.4966908" lon="17.826251">
        <ele>31.8607</ele>
        <time>2011-03-03T20:23:12Z</time>
      </trkpt>
      <trkpt lat="59.4968636" lon="17.8260929">
        <ele>33.7834</ele>
        <time>2011-03-03T20:23:17Z</time>
      </trkpt>
      <trkpt lat="59.4970117" lon="17.8259195">
        <ele>33.7834</ele>
        <time>2011-03-03T20:23:22Z</time>
      </trkpt>
      <trkpt lat="59.4970708" lon="17.825863">
        <ele>33.7834</ele>
        <time>2011-03-03T20:23:25Z</time>
      </trkpt>
      <trkpt lat="59.497199" lon="17.8257872">
        <ele>35.7061</ele>
        <time>2011-03-03T20:23:30Z</time>
      </trkpt>
      <trkpt lat="59.4973426" lon="17.8256584">
        <ele>34.7449</ele>
        <time>2011-03-03T20:23:34Z</time>
      </trkpt>
      <trkpt lat="59.4975053" lon="17.8254821">
        <ele>35.2255</ele>
        <time>2011-03-03T20:23:39Z</time>
      </trkpt>
      <trkpt lat="59.4976624" lon="17.8253348">
        <ele>34.7449</ele>
        <time>2011-03-03T20:23:44Z</time>
      </trkpt>
      <trkpt lat="59.4977968" lon="17.8251802">
        <ele>33.3029</ele>
        <time>2011-03-03T20:23:48Z</time>
      </trkpt>
      <trkpt lat="59.4979606" lon="17.8250586">
        <ele>34.2642</ele>
        <time>2011-03-03T20:23:53Z</time>
      </trkpt>
      <trkpt lat="59.4981094" lon="17.8249378">
        <ele>34.7449</ele>
        <time>2011-03-03T20:23:58Z</time>
      </trkpt>
      <trkpt lat="59.4982813" lon="17.8248041">
        <ele>37.6287</ele>
        <time>2011-03-03T20:24:03Z</time>
      </trkpt>
      <trkpt lat="59.4984517" lon="17.8246639">
        <ele>38.1094</ele>
        <time>2011-03-03T20:24:08Z</time>
      </trkpt>
      <trkpt lat="59.4986558" lon="17.8245089">
        <ele>37.6287</ele>
        <time>2011-03-03T20:24:14Z</time>
      </trkpt>
      <trkpt lat="59.4988215" lon="17.8243811">
        <ele>37.1481</ele>
        <time>2011-03-03T20:24:20Z</time>
      </trkpt>
      <trkpt lat="59.4989834" lon="17.8242416">
        <ele>37.6287</ele>
        <time>2011-03-03T20:24:25Z</time>
      </trkpt>
      <trkpt lat="59.4991221" lon="17.8241177">
        <ele>37.1481</ele>
        <time>2011-03-03T20:24:30Z</time>
      </trkpt>
      <trkpt lat="59.4992815" lon="17.8239943">
        <ele>38.5901</ele>
        <time>2011-03-03T20:24:35Z</time>
      </trkpt>
      <trkpt lat="59.4993878" lon="17.8238964">
        <ele>37.1481</ele>
        <time>2011-03-03T20:24:39Z</time>
      </trkpt>
      <trkpt lat="59.4995501" lon="17.8237024">
        <ele>35.2255</ele>
        <time>2011-03-03T20:24:44Z</time>
      </trkpt>
      <trkpt lat="59.4996668" lon="17.8236345">
        <ele>35.7061</ele>
        <time>2011-03-03T20:24:48Z</time>
      </trkpt>
      <trkpt lat="59.4998323" lon="17.8235036">
        <ele>37.1481</ele>
        <time>2011-03-03T20:24:53Z</time>
      </trkpt>
      <trkpt lat="59.4999504" lon="17.8233761">
        <ele>35.7061</ele>
        <time>2011-03-03T20:24:57Z</time>
      </trkpt>
      <trkpt lat="59.5001933" lon="17.8231865">
        <ele>34.2642</ele>
        <time>2011-03-03T20:25:02Z</time>
      </trkpt>
      <trkpt lat="59.5004599" lon="17.8229787">
        <ele>35.7061</ele>
        <time>2011-03-03T20:25:07Z</time>
      </trkpt>
      <trkpt lat="59.5005554" lon="17.8229254">
        <ele>34.7449</ele>
        <time>2011-03-03T20:25:09Z</time>
      </trkpt>
      <trkpt lat="59.500671" lon="17.8228134">
        <ele>34.2642</ele>
        <time>2011-03-03T20:25:12Z</time>
      </trkpt>
      <trkpt lat="59.5008149" lon="17.8226576">
        <ele>34.2642</ele>
        <time>2011-03-03T20:25:16Z</time>
      </trkpt>
      <trkpt lat="59.5008874" lon="17.8225659">
        <ele>34.2642</ele>
        <time>2011-03-03T20:25:18Z</time>
      </trkpt>
      <trkpt lat="59.5010528" lon="17.8224031">
        <ele>31.8607</ele>
        <time>2011-03-03T20:25:22Z</time>
      </trkpt>
      <trkpt lat="59.5012946" lon="17.8222034">
        <ele>30.8995</ele>
        <time>2011-03-03T20:25:27Z</time>
      </trkpt>
      <trkpt lat="59.5013706" lon="17.8221189">
        <ele>29.9381</ele>
        <time>2011-03-03T20:25:29Z</time>
      </trkpt>
      <trkpt lat="59.5015824" lon="17.8220218">
        <ele>28.4962</ele>
        <time>2011-03-03T20:25:34Z</time>
      </trkpt>
      <trkpt lat="59.5018116" lon="17.8218038">
        <ele>26.5736</ele>
        <time>2011-03-03T20:25:38Z</time>
      </trkpt>
      <trkpt lat="59.5021841" lon="17.8214931">
        <ele>25.1317</ele>
        <time>2011-03-03T20:25:44Z</time>
      </trkpt>
      <trkpt lat="59.5022861" lon="17.8214091">
        <ele>24.1703</ele>
        <time>2011-03-03T20:25:46Z</time>
      </trkpt>
      <trkpt lat="59.5024975" lon="17.8212776">
        <ele>25.6123</ele>
        <time>2011-03-03T20:25:50Z</time>
      </trkpt>
      <trkpt lat="59.5026047" lon="17.8210844">
        <ele>22.2476</ele>
        <time>2011-03-03T20:25:54Z</time>
      </trkpt>
      <trkpt lat="59.502718" lon="17.8209507">
        <ele>15.999</ele>
        <time>2011-03-03T20:25:59Z</time>
      </trkpt>
      <trkpt lat="59.5029258" lon="17.8208299">
        <ele>18.8831</ele>
        <time>2011-03-03T20:26:05Z</time>
      </trkpt>
      <trkpt lat="59.5030652" lon="17.8206731">
        <ele>18.8831</ele>
        <time>2011-03-03T20:26:10Z</time>
      </trkpt>
      <trkpt lat="59.503166" lon="17.8205534">
        <ele>21.2864</ele>
        <time>2011-03-03T20:26:14Z</time>
      </trkpt>
      <trkpt lat="59.5033118" lon="17.8203902">
        <ele>22.7283</ele>
        <time>2011-03-03T20:26:20Z</time>
      </trkpt>
      <trkpt lat="59.5034638" lon="17.8202658">
        <ele>24.651</ele>
        <time>2011-03-03T20:26:25Z</time>
      </trkpt>
      <trkpt lat="59.5035978" lon="17.8200663">
        <ele>26.0929</ele>
        <time>2011-03-03T20:26:29Z</time>
      </trkpt>
      <trkpt lat="59.5037672" lon="17.8199204">
        <ele>26.5736</ele>
        <time>2011-03-03T20:26:34Z</time>
      </trkpt>
      <trkpt lat="59.5039081" lon="17.8197975">
        <ele>29.4575</ele>
        <time>2011-03-03T20:26:39Z</time>
      </trkpt>
      <trkpt lat="59.5040378" lon="17.8196878">
        <ele>30.8995</ele>
        <time>2011-03-03T20:26:43Z</time>
      </trkpt>
      <trkpt lat="59.5040701" lon="17.819666">
        <ele>32.3416</ele>
        <time>2011-03-03T20:26:44Z</time>
      </trkpt>
      <trkpt lat="59.5042289" lon="17.8195594">
        <ele>28.9769</ele>
        <time>2011-03-03T20:26:49Z</time>
      </trkpt>
      <trkpt lat="59.5042865" lon="17.8195096">
        <ele>28.4962</ele>
        <time>2011-03-03T20:26:51Z</time>
      </trkpt>
      <trkpt lat="59.5043825" lon="17.8194314">
        <ele>27.5349</ele>
        <time>2011-03-03T20:26:54Z</time>
      </trkpt>
      <trkpt lat="59.5044597" lon="17.8193374">
        <ele>26.5736</ele>
        <time>2011-03-03T20:26:57Z</time>
      </trkpt>
      <trkpt lat="59.5045677" lon="17.8192335">
        <ele>26.5736</ele>
        <time>2011-03-03T20:27:01Z</time>
      </trkpt>
      <trkpt lat="59.5046946" lon="17.8191482">
        <ele>28.4962</ele>
        <time>2011-03-03T20:27:05Z</time>
      </trkpt>
      <trkpt lat="59.504798" lon="17.8190859">
        <ele>27.5349</ele>
        <time>2011-03-03T20:27:09Z</time>
      </trkpt>
      <trkpt lat="59.5049522" lon="17.8190625">
        <ele>30.8995</ele>
        <time>2011-03-03T20:27:14Z</time>
      </trkpt>
      <trkpt lat="59.5051491" lon="17.8189862">
        <ele>28.9769</ele>
        <time>2011-03-03T20:27:19Z</time>
      </trkpt>
      <trkpt lat="59.5053081" lon="17.8188979">
        <ele>28.4962</ele>
        <time>2011-03-03T20:27:23Z</time>
      </trkpt>
      <trkpt lat="59.505376" lon="17.8188315">
        <ele>28.9769</ele>
        <time>2011-03-03T20:27:25Z</time>
      </trkpt>
      <trkpt lat="59.5055686" lon="17.818763">
        <ele>29.4575</ele>
        <time>2011-03-03T20:27:31Z</time>
      </trkpt>
      <trkpt lat="59.5057107" lon="17.8187366">
        <ele>28.0155</ele>
        <time>2011-03-03T20:27:36Z</time>
      </trkpt>
      <trkpt lat="59.505851" lon="17.8186591">
        <ele>28.0155</ele>
        <time>2011-03-03T20:27:40Z</time>
      </trkpt>
      <trkpt lat="59.5058789" lon="17.8186223">
        <ele>28.0155</ele>
        <time>2011-03-03T20:27:41Z</time>
      </trkpt>
      <trkpt lat="59.5059443" lon="17.8184477">
        <ele>29.9381</ele>
        <time>2011-03-03T20:27:45Z</time>
      </trkpt>
      <trkpt lat="59.5059608" lon="17.8182456">
        <ele>30.4188</ele>
        <time>2011-03-03T20:27:49Z</time>
      </trkpt>
      <trkpt lat="59.5059034" lon="17.8180156">
        <ele>28.4962</ele>
        <time>2011-03-03T20:27:53Z</time>
      </trkpt>
      <trkpt lat="59.5058464" lon="17.8178547">
        <ele>28.0155</ele>
        <time>2011-03-03T20:27:56Z</time>
      </trkpt>
      <trkpt lat="59.5057407" lon="17.8176738">
        <ele>26.0929</ele>
        <time>2011-03-03T20:28:00Z</time>
      </trkpt>
      <trkpt lat="59.5056282" lon="17.8175148">
        <ele>25.6123</ele>
        <time>2011-03-03T20:28:04Z</time>
      </trkpt>
      <trkpt lat="59.5054579" lon="17.8172644">
        <ele>26.0929</ele>
        <time>2011-03-03T20:28:09Z</time>
      </trkpt>
      <trkpt lat="59.5054165" lon="17.8172108">
        <ele>25.1317</ele>
        <time>2011-03-03T20:28:10Z</time>
      </trkpt>
      <trkpt lat="59.5053287" lon="17.8170741">
        <ele>23.209</ele>
        <time>2011-03-03T20:28:12Z</time>
      </trkpt>
      <trkpt lat="59.5051787" lon="17.8168843">
        <ele>23.6896</ele>
        <time>2011-03-03T20:28:16Z</time>
      </trkpt>
      <trkpt lat="59.5051014" lon="17.8168293">
        <ele>24.1703</ele>
        <time>2011-03-03T20:28:18Z</time>
      </trkpt>
      <trkpt lat="59.5048941" lon="17.8166874">
        <ele>24.1703</ele>
        <time>2011-03-03T20:28:23Z</time>
      </trkpt>
      <trkpt lat="59.504682" lon="17.8164906">
        <ele>22.7283</ele>
        <time>2011-03-03T20:28:28Z</time>
      </trkpt>
      <trkpt lat="59.5044729" lon="17.8160668">
        <ele>16.9604</ele>
        <time>2011-03-03T20:28:34Z</time>
      </trkpt>
      <trkpt lat="59.5043933" lon="17.8158924">
        <ele>18.8831</ele>
        <time>2011-03-03T20:28:36Z</time>
      </trkpt>
      <trkpt lat="59.504166" lon="17.8154464">
        <ele>18.4023</ele>
        <time>2011-03-03T20:28:41Z</time>
      </trkpt>
      <trkpt lat="59.5040687" lon="17.8152392">
        <ele>16.9604</ele>
        <time>2011-03-03T20:28:43Z</time>
      </trkpt>
      <trkpt lat="59.5039847" lon="17.8150107">
        <ele>14.557</ele>
        <time>2011-03-03T20:28:45Z</time>
      </trkpt>
      <trkpt lat="59.5037862" lon="17.8147323">
        <ele>10.7118</ele>
        <time>2011-03-03T20:28:49Z</time>
      </trkpt>
      <trkpt lat="59.5036231" lon="17.8148292">
        <ele>8.30859</ele>
        <time>2011-03-03T20:28:53Z</time>
      </trkpt>
      <trkpt lat="59.5036232" lon="17.8149776">
        <ele>9.75061</ele>
        <time>2011-03-03T20:28:56Z</time>
      </trkpt>
      <trkpt lat="59.5036324" lon="17.8150096">
        <ele>11.1925</ele>
        <time>2011-03-03T20:28:57Z</time>
      </trkpt>
      <trkpt lat="59.5036565" lon="17.8152846">
        <ele>16.4797</ele>
        <time>2011-03-03T20:29:04Z</time>
      </trkpt>
      <trkpt lat="59.5036092" lon="17.815486">
        <ele>12.1538</ele>
        <time>2011-03-03T20:29:09Z</time>
      </trkpt>
      <trkpt lat="59.5035755" lon="17.8156578">
        <ele>14.557</ele>
        <time>2011-03-03T20:29:14Z</time>
      </trkpt>
      <trkpt lat="59.5034961" lon="17.8158286">
        <ele>15.999</ele>
        <time>2011-03-03T20:29:19Z</time>
      </trkpt>
      <trkpt lat="59.5034248" lon="17.8160508">
        <ele>19.3638</ele>
        <time>2011-03-03T20:29:24Z</time>
      </trkpt>
      <trkpt lat="59.5032847" lon="17.8163529">
        <ele>22.2476</ele>
        <time>2011-03-03T20:29:30Z</time>
      </trkpt>
      <trkpt lat="59.5031967" lon="17.8164756">
        <ele>24.651</ele>
        <time>2011-03-03T20:29:34Z</time>
      </trkpt>
      <trkpt lat="59.503071" lon="17.8165923">
        <ele>24.651</ele>
        <time>2011-03-03T20:29:39Z</time>
      </trkpt>
      <trkpt lat="59.5029513" lon="17.8167207">
        <ele>24.651</ele>
        <time>2011-03-03T20:29:43Z</time>
      </trkpt>
      <trkpt lat="59.5028472" lon="17.8169346">
        <ele>24.1703</ele>
        <time>2011-03-03T20:29:48Z</time>
      </trkpt>
      <trkpt lat="59.5027227" lon="17.8171226">
        <ele>29.4575</ele>
        <time>2011-03-03T20:29:53Z</time>
      </trkpt>
      <trkpt lat="59.5026937" lon="17.8171817">
        <ele>28.4962</ele>
        <time>2011-03-03T20:29:55Z</time>
      </trkpt>
      <trkpt lat="59.5026231" lon="17.8173531">
        <ele>30.4188</ele>
        <time>2011-03-03T20:30:01Z</time>
      </trkpt>
      <trkpt lat="59.5025644" lon="17.8174885">
        <ele>29.9381</ele>
        <time>2011-03-03T20:30:05Z</time>
      </trkpt>
      <trkpt lat="59.5024646" lon="17.8175826">
        <ele>29.9381</ele>
        <time>2011-03-03T20:30:10Z</time>
      </trkpt>
      <trkpt lat="59.5023568" lon="17.8175945">
        <ele>30.4188</ele>
        <time>2011-03-03T20:30:15Z</time>
      </trkpt>
      <trkpt lat="59.50223" lon="17.8176685">
        <ele>32.8223</ele>
        <time>2011-03-03T20:30:21Z</time>
      </trkpt>
      <trkpt lat="59.502115" lon="17.8176567">
        <ele>33.3029</ele>
        <time>2011-03-03T20:30:26Z</time>
      </trkpt>
      <trkpt lat="59.5020054" lon="17.8175738">
        <ele>30.8995</ele>
        <time>2011-03-03T20:30:31Z</time>
      </trkpt>
      <trkpt lat="59.5019795" lon="17.8173709">
        <ele>28.0155</ele>
        <time>2011-03-03T20:30:35Z</time>
      </trkpt>
      <trkpt lat="59.5020333" lon="17.8170142">
        <ele>24.1703</ele>
        <time>2011-03-03T20:30:39Z</time>
      </trkpt>
      <trkpt lat="59.5020569" lon="17.8167963">
        <ele>22.2476</ele>
        <time>2011-03-03T20:30:41Z</time>
      </trkpt>
      <trkpt lat="59.5019813" lon="17.8163568">
        <ele>18.8831</ele>
        <time>2011-03-03T20:30:45Z</time>
      </trkpt>
      <trkpt lat="59.5018266" lon="17.8163104">
        <ele>15.5184</ele>
        <time>2011-03-03T20:30:48Z</time>
      </trkpt>
      <trkpt lat="59.5017261" lon="17.8164322">
        <ele>13.1151</ele>
        <time>2011-03-03T20:30:50Z</time>
      </trkpt>
      <trkpt lat="59.5016125" lon="17.8166087">
        <ele>10.7118</ele>
        <time>2011-03-03T20:30:54Z</time>
      </trkpt>
      <trkpt lat="59.5014275" lon="17.8167016">
        <ele>9.75061</ele>
        <time>2011-03-03T20:31:01Z</time>
      </trkpt>
      <trkpt lat="59.5012722" lon="17.8167828">
        <ele>10.2312</ele>
        <time>2011-03-03T20:31:06Z</time>
      </trkpt>
      <trkpt lat="59.501161" lon="17.8168989">
        <ele>10.7118</ele>
        <time>2011-03-03T20:31:10Z</time>
      </trkpt>
      <trkpt lat="59.5010515" lon="17.8169776">
        <ele>10.7118</ele>
        <time>2011-03-03T20:31:14Z</time>
      </trkpt>
      <trkpt lat="59.5009763" lon="17.8170277">
        <ele>12.1538</ele>
        <time>2011-03-03T20:31:17Z</time>
      </trkpt>
      <trkpt lat="59.500948" lon="17.8170378">
        <ele>12.1538</ele>
        <time>2011-03-03T20:31:18Z</time>
      </trkpt>
      <trkpt lat="59.5008293" lon="17.8170759">
        <ele>15.0377</ele>
        <time>2011-03-03T20:31:23Z</time>
      </trkpt>
      <trkpt lat="59.5007938" lon="17.8171188">
        <ele>15.999</ele>
        <time>2011-03-03T20:31:25Z</time>
      </trkpt>
      <trkpt lat="59.5007567" lon="17.81732">
        <ele>16.9604</ele>
        <time>2011-03-03T20:31:31Z</time>
      </trkpt>
      <trkpt lat="59.5007489" lon="17.817533">
        <ele>17.9218</ele>
        <time>2011-03-03T20:31:36Z</time>
      </trkpt>
      <trkpt lat="59.5007539" lon="17.8177489">
        <ele>18.4023</ele>
        <time>2011-03-03T20:31:40Z</time>
      </trkpt>
      <trkpt lat="59.5007419" lon="17.8178137">
        <ele>18.8831</ele>
        <time>2011-03-03T20:31:42Z</time>
      </trkpt>
      <trkpt lat="59.5007289" lon="17.8180046">
        <ele>18.8831</ele>
        <time>2011-03-03T20:31:47Z</time>
      </trkpt>
      <trkpt lat="59.5007113" lon="17.8181333">
        <ele>18.8831</ele>
        <time>2011-03-03T20:31:50Z</time>
      </trkpt>
      <trkpt lat="59.5006502" lon="17.8183463">
        <ele>20.325</ele>
        <time>2011-03-03T20:31:56Z</time>
      </trkpt>
      <trkpt lat="59.5005367" lon="17.8184612">
        <ele>20.8057</ele>
        <time>2011-03-03T20:32:01Z</time>
      </trkpt>
      <trkpt lat="59.500428" lon="17.8185038">
        <ele>25.1317</ele>
        <time>2011-03-03T20:32:05Z</time>
      </trkpt>
      <trkpt lat="59.5003825" lon="17.8185165">
        <ele>27.0543</ele>
        <time>2011-03-03T20:32:07Z</time>
      </trkpt>
      <trkpt lat="59.5001782" lon="17.8185171">
        <ele>28.4962</ele>
        <time>2011-03-03T20:32:14Z</time>
      </trkpt>
      <trkpt lat="59.5000818" lon="17.8184863">
        <ele>28.9769</ele>
        <time>2011-03-03T20:32:18Z</time>
      </trkpt>
      <trkpt lat="59.4999688" lon="17.8184467">
        <ele>27.5349</ele>
        <time>2011-03-03T20:32:23Z</time>
      </trkpt>
      <trkpt lat="59.4998543" lon="17.8184301">
        <ele>28.0155</ele>
        <time>2011-03-03T20:32:27Z</time>
      </trkpt>
      <trkpt lat="59.4997281" lon="17.8183793">
        <ele>28.0155</ele>
        <time>2011-03-03T20:32:31Z</time>
      </trkpt>
      <trkpt lat="59.499579" lon="17.8182939">
        <ele>29.4575</ele>
        <time>2011-03-03T20:32:36Z</time>
      </trkpt>
      <trkpt lat="59.4994584" lon="17.8182189">
        <ele>27.5349</ele>
        <time>2011-03-03T20:32:40Z</time>
      </trkpt>
      <trkpt lat="59.4993477" lon="17.8181385">
        <ele>26.5736</ele>
        <time>2011-03-03T20:32:44Z</time>
      </trkpt>
      <trkpt lat="59.499203" lon="17.818041">
        <ele>28.0155</ele>
        <time>2011-03-03T20:32:49Z</time>
      </trkpt>
      <trkpt lat="59.4990877" lon="17.8179856">
        <ele>28.9769</ele>
        <time>2011-03-03T20:32:53Z</time>
      </trkpt>
      <trkpt lat="59.4989771" lon="17.8179276">
        <ele>29.4575</ele>
        <time>2011-03-03T20:32:58Z</time>
      </trkpt>
      <trkpt lat="59.4988553" lon="17.817909">
        <ele>30.8995</ele>
        <time>2011-03-03T20:33:03Z</time>
      </trkpt>
      <trkpt lat="59.4986976" lon="17.8178691">
        <ele>30.8995</ele>
        <time>2011-03-03T20:33:09Z</time>
      </trkpt>
      <trkpt lat="59.4985533" lon="17.8179099">
        <ele>35.2255</ele>
        <time>2011-03-03T20:33:15Z</time>
      </trkpt>
      <trkpt lat="59.4984139" lon="17.8179649">
        <ele>42.916</ele>
        <time>2011-03-03T20:33:21Z</time>
      </trkpt>
      <trkpt lat="59.4983498" lon="17.8179183">
        <ele>42.916</ele>
        <time>2011-03-03T20:33:25Z</time>
      </trkpt>
      <trkpt lat="59.4982663" lon="17.8178331">
        <ele>39.5513</ele>
        <time>2011-03-03T20:33:31Z</time>
      </trkpt>
      <trkpt lat="59.4981543" lon="17.8178245">
        <ele>38.5901</ele>
        <time>2011-03-03T20:33:36Z</time>
      </trkpt>
      <trkpt lat="59.4980369" lon="17.8178468">
        <ele>37.6287</ele>
        <time>2011-03-03T20:33:40Z</time>
      </trkpt>
      <trkpt lat="59.4979157" lon="17.817922">
        <ele>34.2642</ele>
        <time>2011-03-03T20:33:44Z</time>
      </trkpt>
      <trkpt lat="59.4977862" lon="17.8180809">
        <ele>31.8607</ele>
        <time>2011-03-03T20:33:48Z</time>
      </trkpt>
      <trkpt lat="59.4976975" lon="17.8182421">
        <ele>28.4962</ele>
        <time>2011-03-03T20:33:52Z</time>
      </trkpt>
      <trkpt lat="59.4976082" lon="17.818443">
        <ele>29.9381</ele>
        <time>2011-03-03T20:33:57Z</time>
      </trkpt>
      <trkpt lat="59.4975296" lon="17.8186238">
        <ele>31.8607</ele>
        <time>2011-03-03T20:34:01Z</time>
      </trkpt>
      <trkpt lat="59.4973489" lon="17.8187583">
        <ele>34.2642</ele>
        <time>2011-03-03T20:34:07Z</time>
      </trkpt>
      <trkpt lat="59.4971929" lon="17.8188694">
        <ele>34.7449</ele>
        <time>2011-03-03T20:34:11Z</time>
      </trkpt>
      <trkpt lat="59.4970411" lon="17.8189704">
        <ele>32.3416</ele>
        <time>2011-03-03T20:34:15Z</time>
      </trkpt>
      <trkpt lat="59.4969215" lon="17.8189653">
        <ele>32.3416</ele>
        <time>2011-03-03T20:34:19Z</time>
      </trkpt>
      <trkpt lat="59.4967644" lon="17.8187626">
        <ele>26.5736</ele>
        <time>2011-03-03T20:34:25Z</time>
      </trkpt>
      <trkpt lat="59.4966449" lon="17.8186884">
        <ele>25.1317</ele>
        <time>2011-03-03T20:34:30Z</time>
      </trkpt>
      <trkpt lat="59.4965448" lon="17.8186905">
        <ele>28.0155</ele>
        <time>2011-03-03T20:34:35Z</time>
      </trkpt>
      <trkpt lat="59.4964874" lon="17.8186985">
        <ele>29.4575</ele>
        <time>2011-03-03T20:34:39Z</time>
      </trkpt>
      <trkpt lat="59.4964178" lon="17.818827">
        <ele>34.2642</ele>
        <time>2011-03-03T20:34:44Z</time>
      </trkpt>
      <trkpt lat="59.4963367" lon="17.8189196">
        <ele>33.7834</ele>
        <time>2011-03-03T20:34:50Z</time>
      </trkpt>
      <trkpt lat="59.4963179" lon="17.8189583">
        <ele>31.8607</ele>
        <time>2011-03-03T20:34:52Z</time>
      </trkpt>
      <trkpt lat="59.4963015" lon="17.8190103">
        <ele>33.7834</ele>
        <time>2011-03-03T20:34:54Z</time>
      </trkpt>
      <trkpt lat="59.4962243" lon="17.8191201">
        <ele>35.7061</ele>
        <time>2011-03-03T20:34:59Z</time>
      </trkpt>
      <trkpt lat="59.4961899" lon="17.8191512">
        <ele>36.1868</ele>
        <time>2011-03-03T20:35:01Z</time>
      </trkpt>
      <trkpt lat="59.4961456" lon="17.8191713">
        <ele>36.6675</ele>
        <time>2011-03-03T20:35:03Z</time>
      </trkpt>
      <trkpt lat="59.4960555" lon="17.8192647">
        <ele>40.0321</ele>
        <time>2011-03-03T20:35:08Z</time>
      </trkpt>
      <trkpt lat="59.4959798" lon="17.8193687">
        <ele>40.5128</ele>
        <time>2011-03-03T20:35:13Z</time>
      </trkpt>
      <trkpt lat="59.4959323" lon="17.8194172">
        <ele>40.0321</ele>
        <time>2011-03-03T20:35:16Z</time>
      </trkpt>
      <trkpt lat="59.4957923" lon="17.819536">
        <ele>39.5513</ele>
        <time>2011-03-03T20:35:23Z</time>
      </trkpt>
      <trkpt lat="59.4956854" lon="17.8196257">
        <ele>41.474</ele>
        <time>2011-03-03T20:35:28Z</time>
      </trkpt>
      <trkpt lat="59.495573" lon="17.8197226">
        <ele>43.8773</ele>
        <time>2011-03-03T20:35:33Z</time>
      </trkpt>
      <trkpt lat="59.4954551" lon="17.8198005">
        <ele>43.3966</ele>
        <time>2011-03-03T20:35:37Z</time>
      </trkpt>
      <trkpt lat="59.4953536" lon="17.8199088">
        <ele>42.4354</ele>
        <time>2011-03-03T20:35:41Z</time>
      </trkpt>
      <trkpt lat="59.4952654" lon="17.8200292">
        <ele>43.3966</ele>
        <time>2011-03-03T20:35:45Z</time>
      </trkpt>
      <trkpt lat="59.4951387" lon="17.8202789">
        <ele>45.7999</ele>
        <time>2011-03-03T20:35:51Z</time>
      </trkpt>
      <trkpt lat="59.495037" lon="17.820326">
        <ele>50.126</ele>
        <time>2011-03-03T20:35:55Z</time>
      </trkpt>
      <trkpt lat="59.4949303" lon="17.8202181">
        <ele>51.5679</ele>
        <time>2011-03-03T20:36:00Z</time>
      </trkpt>
      <trkpt lat="59.4948835" lon="17.8201058">
        <ele>49.6453</ele>
        <time>2011-03-03T20:36:05Z</time>
      </trkpt>
      <trkpt lat="59.4948147" lon="17.8199846">
        <ele>49.1646</ele>
        <time>2011-03-03T20:36:10Z</time>
      </trkpt>
      <trkpt lat="59.4947527" lon="17.819894">
        <ele>47.2418</ele>
        <time>2011-03-03T20:36:14Z</time>
      </trkpt>
      <trkpt lat="59.494679" lon="17.8197977">
        <ele>48.2034</ele>
        <time>2011-03-03T20:36:19Z</time>
      </trkpt>
      <trkpt lat="59.4945795" lon="17.8197267">
        <ele>47.7225</ele>
        <time>2011-03-03T20:36:23Z</time>
      </trkpt>
      <trkpt lat="59.4945376" lon="17.8196991">
        <ele>47.7225</ele>
        <time>2011-03-03T20:36:25Z</time>
      </trkpt>
      <trkpt lat="59.4944113" lon="17.8196381">
        <ele>46.2806</ele>
        <time>2011-03-03T20:36:29Z</time>
      </trkpt>
      <trkpt lat="59.4942558" lon="17.8195918">
        <ele>47.7225</ele>
        <time>2011-03-03T20:36:34Z</time>
      </trkpt>
      <trkpt lat="59.4942044" lon="17.8195878">
        <ele>48.2034</ele>
        <time>2011-03-03T20:36:37Z</time>
      </trkpt>
      <trkpt lat="59.4941046" lon="17.819549">
        <ele>48.2034</ele>
        <time>2011-03-03T20:36:42Z</time>
      </trkpt>
      <trkpt lat="59.4940134" lon="17.8194871">
        <ele>47.7225</ele>
        <time>2011-03-03T20:36:47Z</time>
      </trkpt>
      <trkpt lat="59.4939355" lon="17.8193672">
        <ele>48.2034</ele>
        <time>2011-03-03T20:36:52Z</time>
      </trkpt>
      <trkpt lat="59.4938305" lon="17.8192601">
        <ele>51.5679</ele>
        <time>2011-03-03T20:36:57Z</time>
      </trkpt>
      <trkpt lat="59.4937139" lon="17.8191782">
        <ele>52.0486</ele>
        <time>2011-03-03T20:37:01Z</time>
      </trkpt>
      <trkpt lat="59.4936052" lon="17.8191178">
        <ele>52.0486</ele>
        <time>2011-03-03T20:37:04Z</time>
      </trkpt>
      <trkpt lat="59.4934554" lon="17.8191377">
        <ele>52.5292</ele>
        <time>2011-03-03T20:37:08Z</time>
      </trkpt>
      <trkpt lat="59.4932938" lon="17.8191855">
        <ele>52.0486</ele>
        <time>2011-03-03T20:37:12Z</time>
      </trkpt>
      <trkpt lat="59.4932566" lon="17.8191885">
        <ele>51.5679</ele>
        <time>2011-03-03T20:37:13Z</time>
      </trkpt>
      <trkpt lat="59.4931622" lon="17.8191424">
        <ele>50.6066</ele>
        <time>2011-03-03T20:37:16Z</time>
      </trkpt>
      <trkpt lat="59.4930809" lon="17.819006">
        <ele>51.5679</ele>
        <time>2011-03-03T20:37:20Z</time>
      </trkpt>
      <trkpt lat="59.4930883" lon="17.8185865">
        <ele>50.6066</ele>
        <time>2011-03-03T20:37:25Z</time>
      </trkpt>
      <trkpt lat="59.4930173" lon="17.8182275">
        <ele>50.6066</ele>
        <time>2011-03-03T20:37:29Z</time>
      </trkpt>
      <trkpt lat="59.492964" lon="17.8180696">
        <ele>51.0872</ele>
        <time>2011-03-03T20:37:31Z</time>
      </trkpt>
      <trkpt lat="59.4928293" lon="17.8178364">
        <ele>50.6066</ele>
        <time>2011-03-03T20:37:35Z</time>
      </trkpt>
      <trkpt lat="59.4926757" lon="17.8178012">
        <ele>49.1646</ele>
        <time>2011-03-03T20:37:39Z</time>
      </trkpt>
      <trkpt lat="59.4926531" lon="17.8178219">
        <ele>49.6453</ele>
        <time>2011-03-03T20:37:40Z</time>
      </trkpt>
      <trkpt lat="59.4925364" lon="17.8178919">
        <ele>52.0486</ele>
        <time>2011-03-03T20:37:45Z</time>
      </trkpt>
      <trkpt lat="59.4923997" lon="17.817925">
        <ele>52.0486</ele>
        <time>2011-03-03T20:37:51Z</time>
      </trkpt>
      <trkpt lat="59.4922885" lon="17.8178425">
        <ele>52.5292</ele>
        <time>2011-03-03T20:37:56Z</time>
      </trkpt>
      <trkpt lat="59.4922366" lon="17.8177634">
        <ele>53.4905</ele>
        <time>2011-03-03T20:37:59Z</time>
      </trkpt>
      <trkpt lat="59.4921352" lon="17.8176459">
        <ele>54.4518</ele>
        <time>2011-03-03T20:38:05Z</time>
      </trkpt>
      <trkpt lat="59.4920616" lon="17.8175718">
        <ele>55.4131</ele>
        <time>2011-03-03T20:38:11Z</time>
      </trkpt>
      <trkpt lat="59.4919704" lon="17.8174954">
        <ele>53.9712</ele>
        <time>2011-03-03T20:38:16Z</time>
      </trkpt>
      <trkpt lat="59.4918585" lon="17.8174267">
        <ele>52.5292</ele>
        <time>2011-03-03T20:38:21Z</time>
      </trkpt>
      <trkpt lat="59.4917642" lon="17.8173788">
        <ele>53.4905</ele>
        <time>2011-03-03T20:38:25Z</time>
      </trkpt>
      <trkpt lat="59.4916967" lon="17.8173464">
        <ele>53.4905</ele>
        <time>2011-03-03T20:38:28Z</time>
      </trkpt>
      <trkpt lat="59.4915897" lon="17.8173025">
        <ele>53.4905</ele>
        <time>2011-03-03T20:38:32Z</time>
      </trkpt>
      <trkpt lat="59.4914773" lon="17.8172872">
        <ele>52.5292</ele>
        <time>2011-03-03T20:38:37Z</time>
      </trkpt>
      <trkpt lat="59.49133" lon="17.8172563">
        <ele>50.6066</ele>
        <time>2011-03-03T20:38:42Z</time>
      </trkpt>
      <trkpt lat="59.4912554" lon="17.8172039">
        <ele>51.0872</ele>
        <time>2011-03-03T20:38:46Z</time>
      </trkpt>
      <trkpt lat="59.4911634" lon="17.817139">
        <ele>50.126</ele>
        <time>2011-03-03T20:38:50Z</time>
      </trkpt>
      <trkpt lat="59.491065" lon="17.8170865">
        <ele>52.0486</ele>
        <time>2011-03-03T20:38:55Z</time>
      </trkpt>
      <trkpt lat="59.4909387" lon="17.8169978">
        <ele>52.0486</ele>
        <time>2011-03-03T20:38:59Z</time>
      </trkpt>
      <trkpt lat="59.4907801" lon="17.8167371">
        <ele>49.1646</ele>
        <time>2011-03-03T20:39:03Z</time>
      </trkpt>
      <trkpt lat="59.4907308" lon="17.8166864">
        <ele>47.7225</ele>
        <time>2011-03-03T20:39:04Z</time>
      </trkpt>
      <trkpt lat="59.4905597" lon="17.8165803">
        <ele>46.7612</ele>
        <time>2011-03-03T20:39:07Z</time>
      </trkpt>
      <trkpt lat="59.4904448" lon="17.8165584">
        <ele>46.7612</ele>
        <time>2011-03-03T20:39:09Z</time>
      </trkpt>
      <trkpt lat="59.4902166" lon="17.8166427">
        <ele>46.7612</ele>
        <time>2011-03-03T20:39:13Z</time>
      </trkpt>
      <trkpt lat="59.4900992" lon="17.8168298">
        <ele>48.684</ele>
        <time>2011-03-03T20:39:16Z</time>
      </trkpt>
      <trkpt lat="59.4899958" lon="17.8172009">
        <ele>49.6453</ele>
        <time>2011-03-03T20:39:20Z</time>
      </trkpt>
      <trkpt lat="59.4899564" lon="17.817453">
        <ele>49.6453</ele>
        <time>2011-03-03T20:39:23Z</time>
      </trkpt>
      <trkpt lat="59.4899842" lon="17.8177189">
        <ele>49.1646</ele>
        <time>2011-03-03T20:39:27Z</time>
      </trkpt>
      <trkpt lat="59.4900564" lon="17.8179407">
        <ele>48.684</ele>
        <time>2011-03-03T20:39:30Z</time>
      </trkpt>
      <trkpt lat="59.4901191" lon="17.8183967">
        <ele>44.358</ele>
        <time>2011-03-03T20:39:34Z</time>
      </trkpt>
      <trkpt lat="59.4902076" lon="17.8190999">
        <ele>44.358</ele>
        <time>2011-03-03T20:39:40Z</time>
      </trkpt>
      <trkpt lat="59.4902513" lon="17.8193012">
        <ele>47.2418</ele>
        <time>2011-03-03T20:39:42Z</time>
      </trkpt>
      <trkpt lat="59.4904465" lon="17.8196049">
        <ele>46.7612</ele>
        <time>2011-03-03T20:39:48Z</time>
      </trkpt>
      <trkpt lat="59.4904796" lon="17.8196422">
        <ele>45.7999</ele>
        <time>2011-03-03T20:39:49Z</time>
      </trkpt>
      <trkpt lat="59.4906832" lon="17.8197068">
        <ele>45.3192</ele>
        <time>2011-03-03T20:39:55Z</time>
      </trkpt>
      <trkpt lat="59.4908114" lon="17.8196985">
        <ele>46.2806</ele>
        <time>2011-03-03T20:39:59Z</time>
      </trkpt>
      <trkpt lat="59.4909511" lon="17.8196604">
        <ele>47.2418</ele>
        <time>2011-03-03T20:40:04Z</time>
      </trkpt>
      <trkpt lat="59.4910603" lon="17.8196837">
        <ele>47.7225</ele>
        <time>2011-03-03T20:40:08Z</time>
      </trkpt>
      <trkpt lat="59.4912205" lon="17.8198301">
        <ele>47.7225</ele>
        <time>2011-03-03T20:40:13Z</time>
      </trkpt>
      <trkpt lat="59.4913527" lon="17.8200181">
        <ele>47.7225</ele>
        <time>2011-03-03T20:40:17Z</time>
      </trkpt>
      <trkpt lat="59.4914747" lon="17.8201058">
        <ele>47.2418</ele>
        <time>2011-03-03T20:40:21Z</time>
      </trkpt>
      <trkpt lat="59.4916269" lon="17.8201794">
        <ele>48.2034</ele>
        <time>2011-03-03T20:40:25Z</time>
      </trkpt>
      <trkpt lat="59.4917773" lon="17.8202535">
        <ele>48.2034</ele>
        <time>2011-03-03T20:40:29Z</time>
      </trkpt>
      <trkpt lat="59.4918799" lon="17.8203724">
        <ele>48.2034</ele>
        <time>2011-03-03T20:40:32Z</time>
      </trkpt>
      <trkpt lat="59.4920362" lon="17.8207477">
        <ele>46.7612</ele>
        <time>2011-03-03T20:40:37Z</time>
      </trkpt>
      <trkpt lat="59.4920168" lon="17.8210072">
        <ele>42.4354</ele>
        <time>2011-03-03T20:40:40Z</time>
      </trkpt>
      <trkpt lat="59.4919139" lon="17.8213145">
        <ele>40.5128</ele>
        <time>2011-03-03T20:40:46Z</time>
      </trkpt>
      <trkpt lat="59.4918736" lon="17.8214398">
        <ele>38.5901</ele>
        <time>2011-03-03T20:40:48Z</time>
      </trkpt>
      <trkpt lat="59.4917705" lon="17.8217017">
        <ele>40.0321</ele>
        <time>2011-03-03T20:40:53Z</time>
      </trkpt>
      <trkpt lat="59.4915881" lon="17.8218214">
        <ele>38.5901</ele>
        <time>2011-03-03T20:40:59Z</time>
      </trkpt>
      <trkpt lat="59.491427" lon="17.8219573">
        <ele>37.6287</ele>
        <time>2011-03-03T20:41:04Z</time>
      </trkpt>
      <trkpt lat="59.4913274" lon="17.822107">
        <ele>38.1094</ele>
        <time>2011-03-03T20:41:08Z</time>
      </trkpt>
      <trkpt lat="59.4913189" lon="17.8223872">
        <ele>40.9934</ele>
        <time>2011-03-03T20:41:12Z</time>
      </trkpt>
      <trkpt lat="59.4913313" lon="17.8224587">
        <ele>41.474</ele>
        <time>2011-03-03T20:41:13Z</time>
      </trkpt>
      <trkpt lat="59.4914622" lon="17.8225931">
        <ele>43.8773</ele>
        <time>2011-03-03T20:41:17Z</time>
      </trkpt>
      <trkpt lat="59.4916259" lon="17.8226673">
        <ele>43.8773</ele>
        <time>2011-03-03T20:41:22Z</time>
      </trkpt>
      <trkpt lat="59.4917654" lon="17.8227402">
        <ele>44.358</ele>
        <time>2011-03-03T20:41:27Z</time>
      </trkpt>
      <trkpt lat="59.4918171" lon="17.8227665">
        <ele>43.8773</ele>
        <time>2011-03-03T20:41:29Z</time>
      </trkpt>
      <trkpt lat="59.4918863" lon="17.8228135">
        <ele>43.3966</ele>
        <time>2011-03-03T20:41:32Z</time>
      </trkpt>
      <trkpt lat="59.4921367" lon="17.8227248">
        <ele>46.7612</ele>
        <time>2011-03-03T20:41:38Z</time>
      </trkpt>
      <trkpt lat="59.4923124" lon="17.8226927">
        <ele>49.1646</ele>
        <time>2011-03-03T20:41:42Z</time>
      </trkpt>
      <trkpt lat="59.4924566" lon="17.8228937">
        <ele>50.126</ele>
        <time>2011-03-03T20:41:47Z</time>
      </trkpt>
      <trkpt lat="59.4925934" lon="17.8229682">
        <ele>51.0872</ele>
        <time>2011-03-03T20:41:51Z</time>
      </trkpt>
      <trkpt lat="59.492641" lon="17.8229897">
        <ele>51.0872</ele>
        <time>2011-03-03T20:41:53Z</time>
      </trkpt>
      <trkpt lat="59.4927691" lon="17.8230186">
        <ele>52.5292</ele>
        <time>2011-03-03T20:41:59Z</time>
      </trkpt>
      <trkpt lat="59.4928126" lon="17.8230513">
        <ele>52.0486</ele>
        <time>2011-03-03T20:42:01Z</time>
      </trkpt>
      <trkpt lat="59.4928732" lon="17.8231191">
        <ele>51.5679</ele>
        <time>2011-03-03T20:42:04Z</time>
      </trkpt>
      <trkpt lat="59.493027" lon="17.8232744">
        <ele>50.126</ele>
        <time>2011-03-03T20:42:09Z</time>
      </trkpt>
      <trkpt lat="59.4931622" lon="17.8235579">
        <ele>51.5679</ele>
        <time>2011-03-03T20:42:14Z</time>
      </trkpt>
      <trkpt lat="59.4932307" lon="17.82373">
        <ele>52.0486</ele>
        <time>2011-03-03T20:42:17Z</time>
      </trkpt>
      <trkpt lat="59.4932251" lon="17.8241748">
        <ele>48.684</ele>
        <time>2011-03-03T20:42:23Z</time>
      </trkpt>
      <trkpt lat="59.493186" lon="17.8243526">
        <ele>47.7225</ele>
        <time>2011-03-03T20:42:25Z</time>
      </trkpt>
      <trkpt lat="59.4931779" lon="17.8249641">
        <ele>45.7999</ele>
        <time>2011-03-03T20:42:30Z</time>
      </trkpt>
      <trkpt lat="59.4932062" lon="17.8257547">
        <ele>40.5128</ele>
        <time>2011-03-03T20:42:36Z</time>
      </trkpt>
      <trkpt lat="59.4932096" lon="17.8258604">
        <ele>40.0321</ele>
        <time>2011-03-03T20:42:37Z</time>
      </trkpt>
      <trkpt lat="59.4933331" lon="17.8261074">
        <ele>39.5513</ele>
        <time>2011-03-03T20:42:41Z</time>
      </trkpt>
      <trkpt lat="59.4933937" lon="17.8261977">
        <ele>40.9934</ele>
        <time>2011-03-03T20:42:43Z</time>
      </trkpt>
      <trkpt lat="59.4935408" lon="17.8263356">
        <ele>40.5128</ele>
        <time>2011-03-03T20:42:48Z</time>
      </trkpt>
      <trkpt lat="59.4935877" lon="17.8263589">
        <ele>40.5128</ele>
        <time>2011-03-03T20:42:50Z</time>
      </trkpt>
      <trkpt lat="59.493767" lon="17.8263468">
        <ele>40.9934</ele>
        <time>2011-03-03T20:42:56Z</time>
      </trkpt>
      <trkpt lat="59.4939226" lon="17.8263727">
        <ele>42.4354</ele>
        <time>2011-03-03T20:43:01Z</time>
      </trkpt>
      <trkpt lat="59.4940859" lon="17.8264274">
        <ele>41.474</ele>
        <time>2011-03-03T20:43:06Z</time>
      </trkpt>
      <trkpt lat="59.4941977" lon="17.8264982">
        <ele>44.358</ele>
        <time>2011-03-03T20:43:10Z</time>
      </trkpt>
      <trkpt lat="59.4943777" lon="17.8266099">
        <ele>45.3192</ele>
        <time>2011-03-03T20:43:15Z</time>
      </trkpt>
      <trkpt lat="59.4945513" lon="17.826702">
        <ele>46.7612</ele>
        <time>2011-03-03T20:43:20Z</time>
      </trkpt>
      <trkpt lat="59.4946756" lon="17.8268585">
        <ele>46.7612</ele>
        <time>2011-03-03T20:43:25Z</time>
      </trkpt>
      <trkpt lat="59.4947722" lon="17.8269855">
        <ele>47.7225</ele>
        <time>2011-03-03T20:43:29Z</time>
      </trkpt>
      <trkpt lat="59.4949167" lon="17.8270851">
        <ele>51.0872</ele>
        <time>2011-03-03T20:43:34Z</time>
      </trkpt>
      <trkpt lat="59.4950433" lon="17.8271749">
        <ele>54.9324</ele>
        <time>2011-03-03T20:43:39Z</time>
      </trkpt>
      <trkpt lat="59.4951513" lon="17.827287">
        <ele>55.4131</ele>
        <time>2011-03-03T20:43:43Z</time>
      </trkpt>
      <trkpt lat="59.4952701" lon="17.8273431">
        <ele>54.4518</ele>
        <time>2011-03-03T20:43:47Z</time>
      </trkpt>
      <trkpt lat="59.4954416" lon="17.8273429">
        <ele>51.0872</ele>
        <time>2011-03-03T20:43:51Z</time>
      </trkpt>
      <trkpt lat="59.4955944" lon="17.8272039">
        <ele>47.7225</ele>
        <time>2011-03-03T20:43:55Z</time>
      </trkpt>
      <trkpt lat="59.4956954" lon="17.8271077">
        <ele>43.8773</ele>
        <time>2011-03-03T20:43:58Z</time>
      </trkpt>
      <trkpt lat="59.4957637" lon="17.8270477">
        <ele>42.916</ele>
        <time>2011-03-03T20:44:00Z</time>
      </trkpt>
      <trkpt lat="59.4959658" lon="17.8268929">
        <ele>43.3966</ele>
        <time>2011-03-03T20:44:06Z</time>
      </trkpt>
      <trkpt lat="59.4960916" lon="17.8267637">
        <ele>42.916</ele>
        <time>2011-03-03T20:44:10Z</time>
      </trkpt>
      <trkpt lat="59.4962507" lon="17.8266482">
        <ele>44.358</ele>
        <time>2011-03-03T20:44:14Z</time>
      </trkpt>
      <trkpt lat="59.4964282" lon="17.8264785">
        <ele>43.8773</ele>
        <time>2011-03-03T20:44:19Z</time>
      </trkpt>
      <trkpt lat="59.4965469" lon="17.8263562">
        <ele>42.916</ele>
        <time>2011-03-03T20:44:23Z</time>
      </trkpt>
      <trkpt lat="59.4967314" lon="17.8261234">
        <ele>40.5128</ele>
        <time>2011-03-03T20:44:28Z</time>
      </trkpt>
      <trkpt lat="59.4968569" lon="17.8260053">
        <ele>41.474</ele>
        <time>2011-03-03T20:44:32Z</time>
      </trkpt>
      <trkpt lat="59.4970225" lon="17.8259107">
        <ele>37.6287</ele>
        <time>2011-03-03T20:44:37Z</time>
      </trkpt>
      <trkpt lat="59.497127" lon="17.8258297">
        <ele>37.6287</ele>
        <time>2011-03-03T20:44:41Z</time>
      </trkpt>
      <trkpt lat="59.4972696" lon="17.8257143">
        <ele>38.1094</ele>
        <time>2011-03-03T20:44:46Z</time>
      </trkpt>
      <trkpt lat="59.497419" lon="17.8255732">
        <ele>39.0707</ele>
        <time>2011-03-03T20:44:50Z</time>
      </trkpt>
      <trkpt lat="59.4975948" lon="17.8254109">
        <ele>41.474</ele>
        <time>2011-03-03T20:44:55Z</time>
      </trkpt>
      <trkpt lat="59.4977762" lon="17.8252743">
        <ele>39.0707</ele>
        <time>2011-03-03T20:45:00Z</time>
      </trkpt>
      <trkpt lat="59.4979486" lon="17.8251094">
        <ele>40.0321</ele>
        <time>2011-03-03T20:45:05Z</time>
      </trkpt>
      <trkpt lat="59.4980449" lon="17.8250338">
        <ele>40.5128</ele>
        <time>2011-03-03T20:45:08Z</time>
      </trkpt>
      <trkpt lat="59.4981926" lon="17.8248762">
        <ele>40.5128</ele>
        <time>2011-03-03T20:45:14Z</time>
      </trkpt>
      <trkpt lat="59.4982257" lon="17.8248431">
        <ele>39.0707</ele>
        <time>2011-03-03T20:45:15Z</time>
      </trkpt>
      <trkpt lat="59.4984106" lon="17.8246657">
        <ele>33.7834</ele>
        <time>2011-03-03T20:45:21Z</time>
      </trkpt>
      <trkpt lat="59.4985498" lon="17.8245144">
        <ele>28.4962</ele>
        <time>2011-03-03T20:45:26Z</time>
      </trkpt>
      <trkpt lat="59.4986616" lon="17.8243954">
        <ele>28.4962</ele>
        <time>2011-03-03T20:45:30Z</time>
      </trkpt>
      <trkpt lat="59.4988137" lon="17.8242616">
        <ele>30.4188</ele>
        <time>2011-03-03T20:45:35Z</time>
      </trkpt>
      <trkpt lat="59.498932" lon="17.8241846">
        <ele>31.8607</ele>
        <time>2011-03-03T20:45:38Z</time>
      </trkpt>
      <trkpt lat="59.4989737" lon="17.8241552">
        <ele>32.8223</ele>
        <time>2011-03-03T20:45:39Z</time>
      </trkpt>
      <trkpt lat="59.4990629" lon="17.8241123">
        <ele>32.3416</ele>
        <time>2011-03-03T20:45:42Z</time>
      </trkpt>
      <trkpt lat="59.4992206" lon="17.8239778">
        <ele>33.7834</ele>
        <time>2011-03-03T20:45:47Z</time>
      </trkpt>
      <trkpt lat="59.499321" lon="17.8239008">
        <ele>35.2255</ele>
        <time>2011-03-03T20:45:51Z</time>
      </trkpt>
      <trkpt lat="59.4994655" lon="17.823793">
        <ele>36.6675</ele>
        <time>2011-03-03T20:45:55Z</time>
      </trkpt>
      <trkpt lat="59.4995919" lon="17.823705">
        <ele>36.6675</ele>
        <time>2011-03-03T20:45:59Z</time>
      </trkpt>
      <trkpt lat="59.4997442" lon="17.8235682">
        <ele>37.1481</ele>
        <time>2011-03-03T20:46:04Z</time>
      </trkpt>
      <trkpt lat="59.4998443" lon="17.8234541">
        <ele>36.6675</ele>
        <time>2011-03-03T20:46:08Z</time>
      </trkpt>
      <trkpt lat="59.4999845" lon="17.8233184">
        <ele>36.6675</ele>
        <time>2011-03-03T20:46:12Z</time>
      </trkpt>
      <trkpt lat="59.5002133" lon="17.8231396">
        <ele>37.1481</ele>
        <time>2011-03-03T20:46:16Z</time>
      </trkpt>
      <trkpt lat="59.5005305" lon="17.8229036">
        <ele>37.1481</ele>
        <time>2011-03-03T20:46:22Z</time>
      </trkpt>
      <trkpt lat="59.5005773" lon="17.8228693">
        <ele>37.6287</ele>
        <time>2011-03-03T20:46:23Z</time>
      </trkpt>
      <trkpt lat="59.5007182" lon="17.8226948">
        <ele>37.6287</ele>
        <time>2011-03-03T20:46:27Z</time>
      </trkpt>
      <trkpt lat="59.5008797" lon="17.8225193">
        <ele>38.1094</ele>
        <time>2011-03-03T20:46:31Z</time>
      </trkpt>
      <trkpt lat="59.5012201" lon="17.8222262">
        <ele>36.6675</ele>
        <time>2011-03-03T20:46:38Z</time>
      </trkpt>
      <trkpt lat="59.5012738" lon="17.8221762">
        <ele>36.6675</ele>
        <time>2011-03-03T20:46:39Z</time>
      </trkpt>
      <trkpt lat="59.5014457" lon="17.8219959">
        <ele>34.7449</ele>
        <time>2011-03-03T20:46:43Z</time>
      </trkpt>
      <trkpt lat="59.5016516" lon="17.8218987">
        <ele>33.7834</ele>
        <time>2011-03-03T20:46:47Z</time>
      </trkpt>
      <trkpt lat="59.5021581" lon="17.8214329">
        <ele>30.4188</ele>
        <time>2011-03-03T20:46:55Z</time>
      </trkpt>
      <trkpt lat="59.5022693" lon="17.8213517">
        <ele>29.9381</ele>
        <time>2011-03-03T20:46:57Z</time>
      </trkpt>
      <trkpt lat="59.5024943" lon="17.8211258">
        <ele>25.1317</ele>
        <time>2011-03-03T20:47:02Z</time>
      </trkpt>
      <trkpt lat="59.502687" lon="17.8209658">
        <ele>25.1317</ele>
        <time>2011-03-03T20:47:08Z</time>
      </trkpt>
      <trkpt lat="59.5028231" lon="17.8208066">
        <ele>24.651</ele>
        <time>2011-03-03T20:47:13Z</time>
      </trkpt>
      <trkpt lat="59.5029463" lon="17.8207001">
        <ele>24.1703</ele>
        <time>2011-03-03T20:47:17Z</time>
      </trkpt>
      <trkpt lat="59.5030931" lon="17.8205605">
        <ele>25.6123</ele>
        <time>2011-03-03T20:47:22Z</time>
      </trkpt>
      <trkpt lat="59.5032787" lon="17.8204095">
        <ele>27.0543</ele>
        <time>2011-03-03T20:47:28Z</time>
      </trkpt>
      <trkpt lat="59.5033604" lon="17.8203245">
        <ele>28.4962</ele>
        <time>2011-03-03T20:47:32Z</time>
      </trkpt>
      <trkpt lat="59.5034708" lon="17.8202263">
        <ele>31.8607</ele>
        <time>2011-03-03T20:47:36Z</time>
      </trkpt>
      <trkpt lat="59.5036152" lon="17.8200763">
        <ele>33.3029</ele>
        <time>2011-03-03T20:47:40Z</time>
      </trkpt>
      <trkpt lat="59.5037549" lon="17.8199508">
        <ele>33.3029</ele>
        <time>2011-03-03T20:47:44Z</time>
      </trkpt>
      <trkpt lat="59.5039037" lon="17.8198329">
        <ele>32.3416</ele>
        <time>2011-03-03T20:47:49Z</time>
      </trkpt>
      <trkpt lat="59.5040367" lon="17.8197335">
        <ele>35.2255</ele>
        <time>2011-03-03T20:47:53Z</time>
      </trkpt>
      <trkpt lat="59.5041466" lon="17.81961">
        <ele>34.2642</ele>
        <time>2011-03-03T20:47:57Z</time>
      </trkpt>
      <trkpt lat="59.5042823" lon="17.8195455">
        <ele>34.2642</ele>
        <time>2011-03-03T20:48:02Z</time>
      </trkpt>
      <trkpt lat="59.5043587" lon="17.8194506">
        <ele>34.2642</ele>
        <time>2011-03-03T20:48:06Z</time>
      </trkpt>
      <trkpt lat="59.5044211" lon="17.8193402">
        <ele>32.8223</ele>
        <time>2011-03-03T20:48:10Z</time>
      </trkpt>
      <trkpt lat="59.5045309" lon="17.8192414">
        <ele>32.8223</ele>
        <time>2011-03-03T20:48:14Z</time>
      </trkpt>
      <trkpt lat="59.504627" lon="17.8191273">
        <ele>28.4962</ele>
        <time>2011-03-03T20:48:19Z</time>
      </trkpt>
      <trkpt lat="59.5047187" lon="17.8190611">
        <ele>26.5736</ele>
        <time>2011-03-03T20:48:23Z</time>
      </trkpt>
      <trkpt lat="59.5049115" lon="17.8189976">
        <ele>31.8607</ele>
        <time>2011-03-03T20:48:28Z</time>
      </trkpt>
      <trkpt lat="59.5050684" lon="17.8189563">
        <ele>34.2642</ele>
        <time>2011-03-03T20:48:32Z</time>
      </trkpt>
      <trkpt lat="59.5051631" lon="17.8189153">
        <ele>36.1868</ele>
        <time>2011-03-03T20:48:34Z</time>
      </trkpt>
      <trkpt lat="59.5052475" lon="17.8188543">
        <ele>37.1481</ele>
        <time>2011-03-03T20:48:36Z</time>
      </trkpt>
      <trkpt lat="59.5054413" lon="17.8186961">
        <ele>35.7061</ele>
        <time>2011-03-03T20:48:42Z</time>
      </trkpt>
      <trkpt lat="59.5055934" lon="17.8186575">
        <ele>33.3029</ele>
        <time>2011-03-03T20:48:47Z</time>
      </trkpt>
      <trkpt lat="59.5057291" lon="17.8186783">
        <ele>30.8995</ele>
        <time>2011-03-03T20:48:51Z</time>
      </trkpt>
      <trkpt lat="59.5058644" lon="17.8185117">
        <ele>30.8995</ele>
        <time>2011-03-03T20:48:56Z</time>
      </trkpt>
      <trkpt lat="59.5059068" lon="17.8182318">
        <ele>29.9381</ele>
        <time>2011-03-03T20:49:01Z</time>
      </trkpt>
      <trkpt lat="59.5058962" lon="17.8180662">
        <ele>29.4575</ele>
        <time>2011-03-03T20:49:04Z</time>
      </trkpt>
      <trkpt lat="59.5058339" lon="17.8178524">
        <ele>28.9769</ele>
        <time>2011-03-03T20:49:08Z</time>
      </trkpt>
      <trkpt lat="59.5057065" lon="17.8176499">
        <ele>27.5349</ele>
        <time>2011-03-03T20:49:13Z</time>
      </trkpt>
      <trkpt lat="59.5055122" lon="17.8174121">
        <ele>27.5349</ele>
        <time>2011-03-03T20:49:19Z</time>
      </trkpt>
      <trkpt lat="59.5053991" lon="17.81722">
        <ele>29.4575</ele>
        <time>2011-03-03T20:49:23Z</time>
      </trkpt>
      <trkpt lat="59.5052903" lon="17.8170566">
        <ele>29.9381</ele>
        <time>2011-03-03T20:49:26Z</time>
      </trkpt>
      <trkpt lat="59.5051278" lon="17.816861">
        <ele>28.4962</ele>
        <time>2011-03-03T20:49:31Z</time>
      </trkpt>
      <trkpt lat="59.5049313" lon="17.816734">
        <ele>26.0929</ele>
        <time>2011-03-03T20:49:35Z</time>
      </trkpt>
      <trkpt lat="59.5048796" lon="17.8166945">
        <ele>25.6123</ele>
        <time>2011-03-03T20:49:36Z</time>
      </trkpt>
      <trkpt lat="59.5048285" lon="17.8166559">
        <ele>24.651</ele>
        <time>2011-03-03T20:49:37Z</time>
      </trkpt>
      <trkpt lat="59.5047067" lon="17.816511">
        <ele>25.6123</ele>
        <time>2011-03-03T20:49:40Z</time>
      </trkpt>
      <trkpt lat="59.5045564" lon="17.8162419">
        <ele>26.0929</ele>
        <time>2011-03-03T20:49:45Z</time>
      </trkpt>
      <trkpt lat="59.5043142" lon="17.8157586">
        <ele>23.6896</ele>
        <time>2011-03-03T20:49:51Z</time>
      </trkpt>
      <trkpt lat="59.5040748" lon="17.8152667">
        <ele>21.2864</ele>
        <time>2011-03-03T20:49:56Z</time>
      </trkpt>
      <trkpt lat="59.5039969" lon="17.815048">
        <ele>21.2864</ele>
        <time>2011-03-03T20:49:58Z</time>
      </trkpt>
      <trkpt lat="59.5038002" lon="17.8147919">
        <ele>17.9218</ele>
        <time>2011-03-03T20:50:02Z</time>
      </trkpt>
      <trkpt lat="59.5036607" lon="17.8148434">
        <ele>13.5958</ele>
        <time>2011-03-03T20:50:05Z</time>
      </trkpt>
      <trkpt lat="59.5036159" lon="17.8150206">
        <ele>13.5958</ele>
        <time>2011-03-03T20:50:09Z</time>
      </trkpt>
      <trkpt lat="59.5035923" lon="17.8151811">
        <ele>11.1925</ele>
        <time>2011-03-03T20:50:14Z</time>
      </trkpt>
      <trkpt lat="59.5035899" lon="17.8153371">
        <ele>7.82788</ele>
        <time>2011-03-03T20:50:18Z</time>
      </trkpt>
      <trkpt lat="59.5035578" lon="17.8155303">
        <ele>5.42456</ele>
        <time>2011-03-03T20:50:24Z</time>
      </trkpt>
      <trkpt lat="59.5035504" lon="17.8156853">
        <ele>6.38586</ele>
        <time>2011-03-03T20:50:28Z</time>
      </trkpt>
      <trkpt lat="59.5035366" lon="17.8157505">
        <ele>10.2312</ele>
        <time>2011-03-03T20:50:30Z</time>
      </trkpt>
      <trkpt lat="59.503476" lon="17.8159742">
        <ele>12.1538</ele>
        <time>2011-03-03T20:50:36Z</time>
      </trkpt>
      <trkpt lat="59.503407" lon="17.8161455">
        <ele>14.557</ele>
        <time>2011-03-03T20:50:40Z</time>
      </trkpt>
      <trkpt lat="59.5033138" lon="17.8163233">
        <ele>15.0377</ele>
        <time>2011-03-03T20:50:44Z</time>
      </trkpt>
      <trkpt lat="59.503166" lon="17.8164931">
        <ele>17.9218</ele>
        <time>2011-03-03T20:50:50Z</time>
      </trkpt>
      <trkpt lat="59.5031382" lon="17.8165171">
        <ele>17.9218</ele>
        <time>2011-03-03T20:50:51Z</time>
      </trkpt>
      <trkpt lat="59.5029808" lon="17.8166731">
        <ele>18.8831</ele>
        <time>2011-03-03T20:50:57Z</time>
      </trkpt>
      <trkpt lat="59.5028937" lon="17.8168035">
        <ele>16.9604</ele>
        <time>2011-03-03T20:51:01Z</time>
      </trkpt>
      <trkpt lat="59.5027979" lon="17.8169889">
        <ele>18.8831</ele>
        <time>2011-03-03T20:51:06Z</time>
      </trkpt>
      <trkpt lat="59.5027373" lon="17.8171086">
        <ele>17.4412</ele>
        <time>2011-03-03T20:51:10Z</time>
      </trkpt>
      <trkpt lat="59.5026666" lon="17.8173432">
        <ele>20.8057</ele>
        <time>2011-03-03T20:51:17Z</time>
      </trkpt>
      <trkpt lat="59.5026118" lon="17.8174289">
        <ele>18.4023</ele>
        <time>2011-03-03T20:51:20Z</time>
      </trkpt>
      <trkpt lat="59.5024898" lon="17.817566">
        <ele>19.8444</ele>
        <time>2011-03-03T20:51:26Z</time>
      </trkpt>
      <trkpt lat="59.5023648" lon="17.8176037">
        <ele>19.8444</ele>
        <time>2011-03-03T20:51:32Z</time>
      </trkpt>
      <trkpt lat="59.5022673" lon="17.817655">
        <ele>21.767</ele>
        <time>2011-03-03T20:51:37Z</time>
      </trkpt>
      <trkpt lat="59.5022059" lon="17.8176293">
        <ele>23.6896</ele>
        <time>2011-03-03T20:51:40Z</time>
      </trkpt>
      <trkpt lat="59.5020712" lon="17.817576">
        <ele>24.651</ele>
        <time>2011-03-03T20:51:46Z</time>
      </trkpt>
      <trkpt lat="59.5020207" lon="17.817506">
        <ele>26.5736</ele>
        <time>2011-03-03T20:51:49Z</time>
      </trkpt>
      <trkpt lat="59.5020065" lon="17.8172937">
        <ele>25.1317</ele>
        <time>2011-03-03T20:51:53Z</time>
      </trkpt>
      <trkpt lat="59.502067" lon="17.8167847">
        <ele>21.2864</ele>
        <time>2011-03-03T20:51:58Z</time>
      </trkpt>
      <trkpt lat="59.501964" lon="17.8163627">
        <ele>18.8831</ele>
        <time>2011-03-03T20:52:02Z</time>
      </trkpt>
      <trkpt lat="59.5017841" lon="17.8163156">
        <ele>16.9604</ele>
        <time>2011-03-03T20:52:05Z</time>
      </trkpt>
      <trkpt lat="59.5016707" lon="17.8165119">
        <ele>14.0764</ele>
        <time>2011-03-03T20:52:08Z</time>
      </trkpt>
      <trkpt lat="59.5015199" lon="17.8166962">
        <ele>12.6344</ele>
        <time>2011-03-03T20:52:14Z</time>
      </trkpt>
      <trkpt lat="59.5013564" lon="17.8166746">
        <ele>11.1925</ele>
        <time>2011-03-03T20:52:18Z</time>
      </trkpt>
      <trkpt lat="59.5012593" lon="17.8167569">
        <ele>9.75061</ele>
        <time>2011-03-03T20:52:22Z</time>
      </trkpt>
      <trkpt lat="59.5012174" lon="17.8168261">
        <ele>9.75061</ele>
        <time>2011-03-03T20:52:24Z</time>
      </trkpt>
      <trkpt lat="59.5010559" lon="17.8169599">
        <ele>11.1925</ele>
        <time>2011-03-03T20:52:30Z</time>
      </trkpt>
      <trkpt lat="59.5009367" lon="17.8170207">
        <ele>12.1538</ele>
        <time>2011-03-03T20:52:35Z</time>
      </trkpt>
      <trkpt lat="59.5009148" lon="17.8170256">
        <ele>13.5958</ele>
        <time>2011-03-03T20:52:36Z</time>
      </trkpt>
      <trkpt lat="59.5008064" lon="17.817147">
        <ele>15.5184</ele>
        <time>2011-03-03T20:52:42Z</time>
      </trkpt>
      <trkpt lat="59.5007725" lon="17.817349">
        <ele>16.4797</ele>
        <time>2011-03-03T20:52:47Z</time>
      </trkpt>
      <trkpt lat="59.5007611" lon="17.8175117">
        <ele>16.9604</ele>
        <time>2011-03-03T20:52:51Z</time>
      </trkpt>
      <trkpt lat="59.5007528" lon="17.8177531">
        <ele>18.8831</ele>
        <time>2011-03-03T20:52:56Z</time>
      </trkpt>
      <trkpt lat="59.5007347" lon="17.8179516">
        <ele>21.767</ele>
        <time>2011-03-03T20:53:01Z</time>
      </trkpt>
      <trkpt lat="59.5007168" lon="17.818112">
        <ele>21.2864</ele>
        <time>2011-03-03T20:53:05Z</time>
      </trkpt>
      <trkpt lat="59.5006905" lon="17.8182224">
        <ele>21.2864</ele>
        <time>2011-03-03T20:53:08Z</time>
      </trkpt>
      <trkpt lat="59.5006262" lon="17.8184035">
        <ele>18.8831</ele>
        <time>2011-03-03T20:53:13Z</time>
      </trkpt>
      <trkpt lat="59.5005037" lon="17.8185069">
        <ele>19.8444</ele>
        <time>2011-03-03T20:53:18Z</time>
      </trkpt>
      <trkpt lat="59.5004026" lon="17.8185192">
        <ele>23.209</ele>
        <time>2011-03-03T20:53:22Z</time>
      </trkpt>
      <trkpt lat="59.500202" lon="17.8184699">
        <ele>24.651</ele>
        <time>2011-03-03T20:53:28Z</time>
      </trkpt>
      <trkpt lat="59.500083" lon="17.8184223">
        <ele>25.1317</ele>
        <time>2011-03-03T20:53:33Z</time>
      </trkpt>
      <trkpt lat="59.4999575" lon="17.8183864">
        <ele>24.1703</ele>
        <time>2011-03-03T20:53:38Z</time>
      </trkpt>
      <trkpt lat="59.4998217" lon="17.8183948">
        <ele>23.209</ele>
        <time>2011-03-03T20:53:43Z</time>
      </trkpt>
      <trkpt lat="59.4996964" lon="17.8183643">
        <ele>22.7283</ele>
        <time>2011-03-03T20:53:47Z</time>
      </trkpt>
      <trkpt lat="59.4995547" lon="17.8182652">
        <ele>23.6896</ele>
        <time>2011-03-03T20:53:51Z</time>
      </trkpt>
      <trkpt lat="59.4994068" lon="17.8181881">
        <ele>27.5349</ele>
        <time>2011-03-03T20:53:56Z</time>
      </trkpt>
      <trkpt lat="59.4992936" lon="17.8181224">
        <ele>28.9769</ele>
        <time>2011-03-03T20:54:00Z</time>
      </trkpt>
      <trkpt lat="59.4991489" lon="17.8180338">
        <ele>30.8995</ele>
        <time>2011-03-03T20:54:05Z</time>
      </trkpt>
      <trkpt lat="59.4990034" lon="17.8179406">
        <ele>34.7449</ele>
        <time>2011-03-03T20:54:10Z</time>
      </trkpt>
      <trkpt lat="59.4989013" lon="17.8179359">
        <ele>37.1481</ele>
        <time>2011-03-03T20:54:14Z</time>
      </trkpt>
      <trkpt lat="59.4988137" lon="17.8179333">
        <ele>37.1481</ele>
        <time>2011-03-03T20:54:17Z</time>
      </trkpt>
      <trkpt lat="59.4986973" lon="17.8179457">
        <ele>36.1868</ele>
        <time>2011-03-03T20:54:22Z</time>
      </trkpt>
      <trkpt lat="59.4985937" lon="17.817935">
        <ele>34.2642</ele>
        <time>2011-03-03T20:54:27Z</time>
      </trkpt>
      <trkpt lat="59.4984901" lon="17.8179209">
        <ele>34.7449</ele>
        <time>2011-03-03T20:54:33Z</time>
      </trkpt>
      <trkpt lat="59.4984579" lon="17.8179241">
        <ele>35.2255</ele>
        <time>2011-03-03T20:54:35Z</time>
      </trkpt>
      <trkpt lat="59.4983968" lon="17.8178813">
        <ele>35.2255</ele>
        <time>2011-03-03T20:54:39Z</time>
      </trkpt>
      <trkpt lat="59.4983623" lon="17.817859">
        <ele>33.7834</ele>
        <time>2011-03-03T20:54:41Z</time>
      </trkpt>
      <trkpt lat="59.4982725" lon="17.8178126">
        <ele>34.7449</ele>
        <time>2011-03-03T20:54:45Z</time>
      </trkpt>
      <trkpt lat="59.498201" lon="17.8177754">
        <ele>34.2642</ele>
        <time>2011-03-03T20:54:48Z</time>
      </trkpt>
      <trkpt lat="59.4980507" lon="17.8178089">
        <ele>30.8995</ele>
        <time>2011-03-03T20:54:53Z</time>
      </trkpt>
      <trkpt lat="59.4979052" lon="17.8179586">
        <ele>28.4962</ele>
        <time>2011-03-03T20:54:58Z</time>
      </trkpt>
      <trkpt lat="59.497769" lon="17.818141">
        <ele>29.9381</ele>
        <time>2011-03-03T20:55:02Z</time>
      </trkpt>
      <trkpt lat="59.4976798" lon="17.8182895">
        <ele>28.4962</ele>
        <time>2011-03-03T20:55:06Z</time>
      </trkpt>
      <trkpt lat="59.4975723" lon="17.8184893">
        <ele>27.5349</ele>
        <time>2011-03-03T20:55:11Z</time>
      </trkpt>
      <trkpt lat="59.4974653" lon="17.8186284">
        <ele>27.5349</ele>
        <time>2011-03-03T20:55:15Z</time>
      </trkpt>
      <trkpt lat="59.4973168" lon="17.8187314">
        <ele>26.0929</ele>
        <time>2011-03-03T20:55:20Z</time>
      </trkpt>
      <trkpt lat="59.49716" lon="17.818862">
        <ele>25.6123</ele>
        <time>2011-03-03T20:55:25Z</time>
      </trkpt>
      <trkpt lat="59.49701" lon="17.8188712">
        <ele>25.6123</ele>
        <time>2011-03-03T20:55:30Z</time>
      </trkpt>
      <trkpt lat="59.4969091" lon="17.8187809">
        <ele>23.6896</ele>
        <time>2011-03-03T20:55:34Z</time>
      </trkpt>
      <trkpt lat="59.496777" lon="17.8186497">
        <ele>24.651</ele>
        <time>2011-03-03T20:55:39Z</time>
      </trkpt>
      <trkpt lat="59.4967003" lon="17.8185911">
        <ele>25.1317</ele>
        <time>2011-03-03T20:55:42Z</time>
      </trkpt>
      <trkpt lat="59.4965714" lon="17.81859">
        <ele>26.5736</ele>
        <time>2011-03-03T20:55:47Z</time>
      </trkpt>
      <trkpt lat="59.4965415" lon="17.8186212">
        <ele>28.9769</ele>
        <time>2011-03-03T20:55:49Z</time>
      </trkpt>
      <trkpt lat="59.4964386" lon="17.8187311">
        <ele>33.3029</ele>
        <time>2011-03-03T20:55:54Z</time>
      </trkpt>
      <trkpt lat="59.4963516" lon="17.81888">
        <ele>36.1868</ele>
        <time>2011-03-03T20:56:01Z</time>
      </trkpt>
      <trkpt lat="59.4963077" lon="17.8189811">
        <ele>39.0707</ele>
        <time>2011-03-03T20:56:06Z</time>
      </trkpt>
      <trkpt lat="59.496248" lon="17.8190672">
        <ele>36.6675</ele>
        <time>2011-03-03T20:56:11Z</time>
      </trkpt>
      <trkpt lat="59.4961708" lon="17.819137">
        <ele>37.6287</ele>
        <time>2011-03-03T20:56:16Z</time>
      </trkpt>
      <trkpt lat="59.4961008" lon="17.8191859">
        <ele>39.0707</ele>
        <time>2011-03-03T20:56:20Z</time>
      </trkpt>
      <trkpt lat="59.4959948" lon="17.8192901">
        <ele>41.474</ele>
        <time>2011-03-03T20:56:25Z</time>
      </trkpt>
      <trkpt lat="59.4959539" lon="17.819362">
        <ele>41.9547</ele>
        <time>2011-03-03T20:56:27Z</time>
      </trkpt>
      <trkpt lat="59.4958611" lon="17.8194735">
        <ele>40.0321</ele>
        <time>2011-03-03T20:56:32Z</time>
      </trkpt>
      <trkpt lat="59.4957238" lon="17.8195599">
        <ele>40.0321</ele>
        <time>2011-03-03T20:56:38Z</time>
      </trkpt>
      <trkpt lat="59.4955994" lon="17.8196636">
        <ele>38.5901</ele>
        <time>2011-03-03T20:56:44Z</time>
      </trkpt>
      <trkpt lat="59.4954292" lon="17.8197665">
        <ele>37.6287</ele>
        <time>2011-03-03T20:56:50Z</time>
      </trkpt>
      <trkpt lat="59.4953148" lon="17.8199075">
        <ele>37.1481</ele>
        <time>2011-03-03T20:56:55Z</time>
      </trkpt>
      <trkpt lat="59.4952141" lon="17.8201297">
        <ele>37.1481</ele>
        <time>2011-03-03T20:57:00Z</time>
      </trkpt>
      <trkpt lat="59.4951323" lon="17.8202643">
        <ele>38.1094</ele>
        <time>2011-03-03T20:57:04Z</time>
      </trkpt>
      <trkpt lat="59.4950889" lon="17.8203023">
        <ele>39.5513</ele>
        <time>2011-03-03T20:57:06Z</time>
      </trkpt>
      <trkpt lat="59.4949493" lon="17.8202179">
        <ele>42.4354</ele>
        <time>2011-03-03T20:57:12Z</time>
      </trkpt>
      <trkpt lat="59.4948561" lon="17.8200779">
        <ele>45.3192</ele>
        <time>2011-03-03T20:57:17Z</time>
      </trkpt>
      <trkpt lat="59.4948377" lon="17.8200367">
        <ele>46.7612</ele>
        <time>2011-03-03T20:57:19Z</time>
      </trkpt>
      <trkpt lat="59.4948065" lon="17.8199783">
        <ele>49.1646</ele>
        <time>2011-03-03T20:57:22Z</time>
      </trkpt>
      <trkpt lat="59.4947283" lon="17.8198531">
        <ele>50.126</ele>
        <time>2011-03-03T20:57:28Z</time>
      </trkpt>
      <trkpt lat="59.4946626" lon="17.8197799">
        <ele>50.126</ele>
        <time>2011-03-03T20:57:32Z</time>
      </trkpt>
      <trkpt lat="59.4945458" lon="17.8196997">
        <ele>50.126</ele>
        <time>2011-03-03T20:57:37Z</time>
      </trkpt>
      <trkpt lat="59.4944169" lon="17.8196413">
        <ele>50.6066</ele>
        <time>2011-03-03T20:57:42Z</time>
      </trkpt>
      <trkpt lat="59.4942967" lon="17.8195861">
        <ele>51.0872</ele>
        <time>2011-03-03T20:57:46Z</time>
      </trkpt>
      <trkpt lat="59.4942346" lon="17.819551">
        <ele>52.5292</ele>
        <time>2011-03-03T20:57:51Z</time>
      </trkpt>
      <trkpt lat="59.4942227" lon="17.8195444">
        <ele>52.0486</ele>
        <time>2011-03-03T20:57:52Z</time>
      </trkpt>
      <trkpt lat="59.4940834" lon="17.8194903">
        <ele>52.5292</ele>
        <time>2011-03-03T20:57:59Z</time>
      </trkpt>
      <trkpt lat="59.4940524" lon="17.8194651">
        <ele>52.0486</ele>
        <time>2011-03-03T20:58:01Z</time>
      </trkpt>
      <trkpt lat="59.4939949" lon="17.819392">
        <ele>53.0098</ele>
        <time>2011-03-03T20:58:05Z</time>
      </trkpt>
      <trkpt lat="59.4938618" lon="17.8192525">
        <ele>53.4905</ele>
        <time>2011-03-03T20:58:12Z</time>
      </trkpt>
      <trkpt lat="59.4937462" lon="17.8191349">
        <ele>52.0486</ele>
        <time>2011-03-03T20:58:16Z</time>
      </trkpt>
      <trkpt lat="59.4935767" lon="17.8190652">
        <ele>50.6066</ele>
        <time>2011-03-03T20:58:20Z</time>
      </trkpt>
      <trkpt lat="59.4934046" lon="17.8190926">
        <ele>50.126</ele>
        <time>2011-03-03T20:58:24Z</time>
      </trkpt>
      <trkpt lat="59.4932334" lon="17.8191238">
        <ele>49.1646</ele>
        <time>2011-03-03T20:58:28Z</time>
      </trkpt>
      <trkpt lat="59.4930804" lon="17.8190287">
        <ele>49.1646</ele>
        <time>2011-03-03T20:58:33Z</time>
      </trkpt>
      <trkpt lat="59.4930706" lon="17.8187418">
        <ele>47.7225</ele>
        <time>2011-03-03T20:58:37Z</time>
      </trkpt>
      <trkpt lat="59.4930588" lon="17.818567">
        <ele>48.684</ele>
        <time>2011-03-03T20:58:39Z</time>
      </trkpt>
      <trkpt lat="59.4930226" lon="17.8182193">
        <ele>49.6453</ele>
        <time>2011-03-03T20:58:43Z</time>
      </trkpt>
      <trkpt lat="59.4928957" lon="17.8178231">
        <ele>48.684</ele>
        <time>2011-03-03T20:58:48Z</time>
      </trkpt>
      <trkpt lat="59.4926916" lon="17.8177728">
        <ele>47.2418</ele>
        <time>2011-03-03T20:58:53Z</time>
      </trkpt>
      <trkpt lat="59.4926655" lon="17.8177935">
        <ele>46.7612</ele>
        <time>2011-03-03T20:58:54Z</time>
      </trkpt>
      <trkpt lat="59.4925242" lon="17.8179142">
        <ele>45.7999</ele>
        <time>2011-03-03T20:59:00Z</time>
      </trkpt>
      <trkpt lat="59.4924952" lon="17.8179302">
        <ele>45.7999</ele>
        <time>2011-03-03T20:59:01Z</time>
      </trkpt>
      <trkpt lat="59.4923817" lon="17.8178811">
        <ele>46.2806</ele>
        <time>2011-03-03T20:59:06Z</time>
      </trkpt>
      <trkpt lat="59.4922295" lon="17.817734">
        <ele>46.2806</ele>
        <time>2011-03-03T20:59:11Z</time>
      </trkpt>
      <trkpt lat="59.4921859" lon="17.8176614">
        <ele>47.2418</ele>
        <time>2011-03-03T20:59:14Z</time>
      </trkpt>
      <trkpt lat="59.4921107" lon="17.8175847">
        <ele>49.1646</ele>
        <time>2011-03-03T20:59:19Z</time>
      </trkpt>
      <trkpt lat="59.4920854" lon="17.8175634">
        <ele>49.1646</ele>
        <time>2011-03-03T20:59:21Z</time>
      </trkpt>
      <trkpt lat="59.4920225" lon="17.8175035">
        <ele>52.0486</ele>
        <time>2011-03-03T20:59:26Z</time>
      </trkpt>
      <trkpt lat="59.4919109" lon="17.8174253">
        <ele>52.5292</ele>
        <time>2011-03-03T20:59:32Z</time>
      </trkpt>
      <trkpt lat="59.4918057" lon="17.8173911">
        <ele>52.0486</ele>
        <time>2011-03-03T20:59:36Z</time>
      </trkpt>
      <trkpt lat="59.4916636" lon="17.8173133">
        <ele>52.0486</ele>
        <time>2011-03-03T20:59:41Z</time>
      </trkpt>
      <trkpt lat="59.4915808" lon="17.8172883">
        <ele>53.4905</ele>
        <time>2011-03-03T20:59:44Z</time>
      </trkpt>
      <trkpt lat="59.4914484" lon="17.8172806">
        <ele>53.0098</ele>
        <time>2011-03-03T20:59:49Z</time>
      </trkpt>
      <trkpt lat="59.4913085" lon="17.8172361">
        <ele>53.4905</ele>
        <time>2011-03-03T20:59:53Z</time>
      </trkpt>
      <trkpt lat="59.491217" lon="17.8171818">
        <ele>55.4131</ele>
        <time>2011-03-03T20:59:57Z</time>
      </trkpt>
      <trkpt lat="59.4911223" lon="17.8171221">
        <ele>56.3745</ele>
        <time>2011-03-03T21:00:01Z</time>
      </trkpt>
      <trkpt lat="59.4910234" lon="17.8170982">
        <ele>56.8551</ele>
        <time>2011-03-03T21:00:06Z</time>
      </trkpt>
      <trkpt lat="59.4908728" lon="17.8169745">
        <ele>56.3745</ele>
        <time>2011-03-03T21:00:11Z</time>
      </trkpt>
      <trkpt lat="59.4907246" lon="17.8167357">
        <ele>54.4518</ele>
        <time>2011-03-03T21:00:15Z</time>
      </trkpt>
      <trkpt lat="59.4906516" lon="17.8166522">
        <ele>54.9324</ele>
        <time>2011-03-03T21:00:17Z</time>
      </trkpt>
      <trkpt lat="59.4906071" lon="17.8166237">
        <ele>54.9324</ele>
        <time>2011-03-03T21:00:18Z</time>
      </trkpt>
      <trkpt lat="59.4905076" lon="17.8165879">
        <ele>53.4905</ele>
        <time>2011-03-03T21:00:20Z</time>
      </trkpt>
      <trkpt lat="59.490309" lon="17.8165714">
        <ele>52.5292</ele>
        <time>2011-03-03T21:00:24Z</time>
      </trkpt>
      <trkpt lat="59.4901196" lon="17.8168008">
        <ele>51.0872</ele>
        <time>2011-03-03T21:00:28Z</time>
      </trkpt>
      <trkpt lat="59.4900502" lon="17.816973">
        <ele>51.0872</ele>
        <time>2011-03-03T21:00:30Z</time>
      </trkpt>
      <trkpt lat="59.4899854" lon="17.8173123">
        <ele>51.0872</ele>
        <time>2011-03-03T21:00:34Z</time>
      </trkpt>
      <trkpt lat="59.4899684" lon="17.8176189">
        <ele>50.126</ele>
        <time>2011-03-03T21:00:39Z</time>
      </trkpt>
      <trkpt lat="59.4900149" lon="17.8178416">
        <ele>49.1646</ele>
        <time>2011-03-03T21:00:43Z</time>
      </trkpt>
      <trkpt lat="59.4900439" lon="17.8181435">
        <ele>48.684</ele>
        <time>2011-03-03T21:00:46Z</time>
      </trkpt>
      <trkpt lat="59.4900735" lon="17.8185154">
        <ele>48.2034</ele>
        <time>2011-03-03T21:00:49Z</time>
      </trkpt>
      <trkpt lat="59.490102" lon="17.8188904">
        <ele>44.358</ele>
        <time>2011-03-03T21:00:52Z</time>
      </trkpt>
      <trkpt lat="59.4901657" lon="17.8194117">
        <ele>40.0321</ele>
        <time>2011-03-03T21:00:57Z</time>
      </trkpt>
      <trkpt lat="59.4902657" lon="17.819596">
        <ele>37.6287</ele>
        <time>2011-03-03T21:01:00Z</time>
      </trkpt>
      <trkpt lat="59.4903941" lon="17.8197088">
        <ele>36.1868</ele>
        <time>2011-03-03T21:01:03Z</time>
      </trkpt>
      <trkpt lat="59.4905578" lon="17.8197043">
        <ele>37.1481</ele>
        <time>2011-03-03T21:01:07Z</time>
      </trkpt>
      <trkpt lat="59.4906458" lon="17.8196789">
        <ele>37.6287</ele>
        <time>2011-03-03T21:01:09Z</time>
      </trkpt>
      <trkpt lat="59.4907956" lon="17.819663">
        <ele>38.1094</ele>
        <time>2011-03-03T21:01:14Z</time>
      </trkpt>
      <trkpt lat="59.4909361" lon="17.8196369">
        <ele>39.0707</ele>
        <time>2011-03-03T21:01:19Z</time>
      </trkpt>
      <trkpt lat="59.4909614" lon="17.819636">
        <ele>39.5513</ele>
        <time>2011-03-03T21:01:20Z</time>
      </trkpt>
      <trkpt lat="59.491091" lon="17.8197396">
        <ele>40.0321</ele>
        <time>2011-03-03T21:01:25Z</time>
      </trkpt>
      <trkpt lat="59.4912515" lon="17.8199635">
        <ele>38.1094</ele>
        <time>2011-03-03T21:01:30Z</time>
      </trkpt>
      <trkpt lat="59.4914072" lon="17.8200911">
        <ele>38.5901</ele>
        <time>2011-03-03T21:01:34Z</time>
      </trkpt>
      <trkpt lat="59.4915565" lon="17.8201336">
        <ele>37.6287</ele>
        <time>2011-03-03T21:01:38Z</time>
      </trkpt>
      <trkpt lat="59.4917419" lon="17.8202206">
        <ele>36.6675</ele>
        <time>2011-03-03T21:01:43Z</time>
      </trkpt>
      <trkpt lat="59.4919474" lon="17.8204363">
        <ele>36.6675</ele>
        <time>2011-03-03T21:01:48Z</time>
      </trkpt>
      <trkpt lat="59.4920397" lon="17.820739">
        <ele>35.2255</ele>
        <time>2011-03-03T21:01:52Z</time>
      </trkpt>
      <trkpt lat="59.4920277" lon="17.8211339">
        <ele>29.9381</ele>
        <time>2011-03-03T21:01:57Z</time>
      </trkpt>
      <trkpt lat="59.4919921" lon="17.8211589">
        <ele>28.9769</ele>
        <time>2011-03-03T21:01:58Z</time>
      </trkpt>
      <trkpt lat="59.4918715" lon="17.8214443">
        <ele>28.0155</ele>
        <time>2011-03-03T21:02:03Z</time>
      </trkpt>
      <trkpt lat="59.4917998" lon="17.8216039">
        <ele>30.8995</ele>
        <time>2011-03-03T21:02:06Z</time>
      </trkpt>
      <trkpt lat="59.4917031" lon="17.821737">
        <ele>33.3029</ele>
        <time>2011-03-03T21:02:10Z</time>
      </trkpt>
      <trkpt lat="59.4915777" lon="17.8218154">
        <ele>34.7449</ele>
        <time>2011-03-03T21:02:14Z</time>
      </trkpt>
      <trkpt lat="59.4913974" lon="17.8219976">
        <ele>37.1481</ele>
        <time>2011-03-03T21:02:19Z</time>
      </trkpt>
      <trkpt lat="59.4913385" lon="17.8221863">
        <ele>39.5513</ele>
        <time>2011-03-03T21:02:23Z</time>
      </trkpt>
      <trkpt lat="59.4913155" lon="17.8223925">
        <ele>40.0321</ele>
        <time>2011-03-03T21:02:26Z</time>
      </trkpt>
      <trkpt lat="59.4914323" lon="17.8225912">
        <ele>39.5513</ele>
        <time>2011-03-03T21:02:31Z</time>
      </trkpt>
      <trkpt lat="59.4916116" lon="17.8226664">
        <ele>41.9547</ele>
        <time>2011-03-03T21:02:36Z</time>
      </trkpt>
      <trkpt lat="59.4917632" lon="17.8227405">
        <ele>41.9547</ele>
        <time>2011-03-03T21:02:41Z</time>
      </trkpt>
      <trkpt lat="59.4919179" lon="17.8228294">
        <ele>41.474</ele>
        <time>2011-03-03T21:02:46Z</time>
      </trkpt>
      <trkpt lat="59.4920097" lon="17.822784">
        <ele>40.5128</ele>
        <time>2011-03-03T21:02:50Z</time>
      </trkpt>
      <trkpt lat="59.49216" lon="17.8227094">
        <ele>41.9547</ele>
        <time>2011-03-03T21:02:55Z</time>
      </trkpt>
      <trkpt lat="59.4921891" lon="17.8227026">
        <ele>41.9547</ele>
        <time>2011-03-03T21:02:56Z</time>
      </trkpt>
      <trkpt lat="59.492378" lon="17.8228658">
        <ele>42.916</ele>
        <time>2011-03-03T21:03:01Z</time>
      </trkpt>
      <trkpt lat="59.4925312" lon="17.8229425">
        <ele>42.4354</ele>
        <time>2011-03-03T21:03:05Z</time>
      </trkpt>
      <trkpt lat="59.4926522" lon="17.8229631">
        <ele>42.916</ele>
        <time>2011-03-03T21:03:09Z</time>
      </trkpt>
      <trkpt lat="59.492778" lon="17.8230077">
        <ele>42.4354</ele>
        <time>2011-03-03T21:03:14Z</time>
      </trkpt>
      <trkpt lat="59.4929128" lon="17.823113">
        <ele>41.9547</ele>
        <time>2011-03-03T21:03:19Z</time>
      </trkpt>
      <trkpt lat="59.4930518" lon="17.823316">
        <ele>37.6287</ele>
        <time>2011-03-03T21:03:24Z</time>
      </trkpt>
      <trkpt lat="59.4932285" lon="17.8236181">
        <ele>35.2255</ele>
        <time>2011-03-03T21:03:30Z</time>
      </trkpt>
      <trkpt lat="59.4932673" lon="17.8237496">
        <ele>35.7061</ele>
        <time>2011-03-03T21:03:32Z</time>
      </trkpt>
      <trkpt lat="59.4932395" lon="17.8240412">
        <ele>35.7061</ele>
        <time>2011-03-03T21:03:37Z</time>
      </trkpt>
      <trkpt lat="59.4931718" lon="17.8243386">
        <ele>34.7449</ele>
        <time>2011-03-03T21:03:40Z</time>
      </trkpt>
      <trkpt lat="59.4931694" lon="17.8250343">
        <ele>40.0321</ele>
        <time>2011-03-03T21:03:45Z</time>
      </trkpt>
      <trkpt lat="59.493226" lon="17.8257152">
        <ele>41.474</ele>
        <time>2011-03-03T21:03:50Z</time>
      </trkpt>
      <trkpt lat="59.493313" lon="17.8261076">
        <ele>39.5513</ele>
        <time>2011-03-03T21:03:55Z</time>
      </trkpt>
      <trkpt lat="59.4933856" lon="17.8262085">
        <ele>38.5901</ele>
        <time>2011-03-03T21:03:57Z</time>
      </trkpt>
      <trkpt lat="59.4934442" lon="17.8262883">
        <ele>37.1481</ele>
        <time>2011-03-03T21:03:59Z</time>
      </trkpt>
      <trkpt lat="59.4935074" lon="17.826322">
        <ele>37.6287</ele>
        <time>2011-03-03T21:04:01Z</time>
      </trkpt>
      <trkpt lat="59.4936186" lon="17.8263297">
        <ele>36.6675</ele>
        <time>2011-03-03T21:04:04Z</time>
      </trkpt>
      <trkpt lat="59.4937455" lon="17.8263095">
        <ele>37.6287</ele>
        <time>2011-03-03T21:04:08Z</time>
      </trkpt>
      <trkpt lat="59.4938807" lon="17.826339">
        <ele>35.2255</ele>
        <time>2011-03-03T21:04:13Z</time>
      </trkpt>
      <trkpt lat="59.4940595" lon="17.8263826">
        <ele>39.0707</ele>
        <time>2011-03-03T21:04:17Z</time>
      </trkpt>
      <trkpt lat="59.4941738" lon="17.8264829">
        <ele>34.2642</ele>
        <time>2011-03-03T21:04:21Z</time>
      </trkpt>
      <trkpt lat="59.4943274" lon="17.8265996">
        <ele>33.7834</ele>
        <time>2011-03-03T21:04:26Z</time>
      </trkpt>
      <trkpt lat="59.4944728" lon="17.8266551">
        <ele>30.4188</ele>
        <time>2011-03-03T21:04:31Z</time>
      </trkpt>
      <trkpt lat="59.4946237" lon="17.8268268">
        <ele>30.8995</ele>
        <time>2011-03-03T21:04:36Z</time>
      </trkpt>
      <trkpt lat="59.4947567" lon="17.8269797">
        <ele>29.9381</ele>
        <time>2011-03-03T21:04:41Z</time>
      </trkpt>
      <trkpt lat="59.4948657" lon="17.827056">
        <ele>28.9769</ele>
        <time>2011-03-03T21:04:46Z</time>
      </trkpt>
      <trkpt lat="59.4949749" lon="17.8271176">
        <ele>28.0155</ele>
        <time>2011-03-03T21:04:50Z</time>
      </trkpt>
      <trkpt lat="59.4951456" lon="17.8272559">
        <ele>29.4575</ele>
        <time>2011-03-03T21:04:55Z</time>
      </trkpt>
      <trkpt lat="59.4951941" lon="17.8273">
        <ele>29.9381</ele>
        <time>2011-03-03T21:04:57Z</time>
      </trkpt>
      <trkpt lat="59.4953121" lon="17.8273233">
        <ele>31.8607</ele>
        <time>2011-03-03T21:05:01Z</time>
      </trkpt>
      <trkpt lat="59.4954554" lon="17.8272632">
        <ele>36.6675</ele>
        <time>2011-03-03T21:05:05Z</time>
      </trkpt>
      <trkpt lat="59.495581" lon="17.8271466">
        <ele>35.2255</ele>
        <time>2011-03-03T21:05:09Z</time>
      </trkpt>
      <trkpt lat="59.4957057" lon="17.8270456">
        <ele>33.3029</ele>
        <time>2011-03-03T21:05:13Z</time>
      </trkpt>
      <trkpt lat="59.4959181" lon="17.8268251">
        <ele>37.1481</ele>
        <time>2011-03-03T21:05:19Z</time>
      </trkpt>
      <trkpt lat="59.4960736" lon="17.8267405">
        <ele>36.6675</ele>
        <time>2011-03-03T21:05:23Z</time>
      </trkpt>
      <trkpt lat="59.4962935" lon="17.8265858">
        <ele>39.5513</ele>
        <time>2011-03-03T21:05:28Z</time>
      </trkpt>
      <trkpt lat="59.4964947" lon="17.826423">
        <ele>40.9934</ele>
        <time>2011-03-03T21:05:33Z</time>
      </trkpt>
      <trkpt lat="59.4965385" lon="17.8263902">
        <ele>41.9547</ele>
        <time>2011-03-03T21:05:34Z</time>
      </trkpt>
      <trkpt lat="59.4967262" lon="17.8262066">
        <ele>42.916</ele>
        <time>2011-03-03T21:05:40Z</time>
      </trkpt>
      <trkpt lat="59.49688" lon="17.8260384">
        <ele>39.0707</ele>
        <time>2011-03-03T21:05:45Z</time>
      </trkpt>
      <trkpt lat="59.4969763" lon="17.8259257">
        <ele>37.1481</ele>
        <time>2011-03-03T21:05:49Z</time>
      </trkpt>
      <trkpt lat="59.4971019" lon="17.8258253">
        <ele>39.0707</ele>
        <time>2011-03-03T21:05:54Z</time>
      </trkpt>
      <trkpt lat="59.4971842" lon="17.8257429">
        <ele>38.1094</ele>
        <time>2011-03-03T21:05:58Z</time>
      </trkpt>
      <trkpt lat="59.4973148" lon="17.8256136">
        <ele>38.5901</ele>
        <time>2011-03-03T21:06:02Z</time>
      </trkpt>
      <trkpt lat="59.497494" lon="17.8254512">
        <ele>37.1481</ele>
        <time>2011-03-03T21:06:07Z</time>
      </trkpt>
      <trkpt lat="59.4976479" lon="17.825305">
        <ele>35.7061</ele>
        <time>2011-03-03T21:06:12Z</time>
      </trkpt>
      <trkpt lat="59.4978084" lon="17.8251994">
        <ele>39.0707</ele>
        <time>2011-03-03T21:06:16Z</time>
      </trkpt>
      <trkpt lat="59.4979524" lon="17.8250977">
        <ele>35.7061</ele>
        <time>2011-03-03T21:06:21Z</time>
      </trkpt>
      <trkpt lat="59.49812" lon="17.8249521">
        <ele>36.6675</ele>
        <time>2011-03-03T21:06:26Z</time>
      </trkpt>
      <trkpt lat="59.4982493" lon="17.8247963">
        <ele>35.2255</ele>
        <time>2011-03-03T21:06:30Z</time>
      </trkpt>
      <trkpt lat="59.4984171" lon="17.824659">
        <ele>32.3416</ele>
        <time>2011-03-03T21:06:35Z</time>
      </trkpt>
      <trkpt lat="59.4985382" lon="17.8245384">
        <ele>29.4575</ele>
        <time>2011-03-03T21:06:39Z</time>
      </trkpt>
      <trkpt lat="59.4987145" lon="17.8243686">
        <ele>29.9381</ele>
        <time>2011-03-03T21:06:45Z</time>
      </trkpt>
      <trkpt lat="59.4987931" lon="17.824309">
        <ele>29.9381</ele>
        <time>2011-03-03T21:06:48Z</time>
      </trkpt>
      <trkpt lat="59.4989419" lon="17.824185">
        <ele>29.4575</ele>
        <time>2011-03-03T21:06:53Z</time>
      </trkpt>
      <trkpt lat="59.4990665" lon="17.8240981">
        <ele>30.8995</ele>
        <time>2011-03-03T21:06:57Z</time>
      </trkpt>
      <trkpt lat="59.4991887" lon="17.8239723">
        <ele>31.8607</ele>
        <time>2011-03-03T21:07:01Z</time>
      </trkpt>
      <trkpt lat="59.499318" lon="17.8238505">
        <ele>33.7834</ele>
        <time>2011-03-03T21:07:06Z</time>
      </trkpt>
      <trkpt lat="59.4994262" lon="17.8236771">
        <ele>34.7449</ele>
        <time>2011-03-03T21:07:10Z</time>
      </trkpt>
      <trkpt lat="59.4995711" lon="17.8235661">
        <ele>34.2642</ele>
        <time>2011-03-03T21:07:14Z</time>
      </trkpt>
      <trkpt lat="59.4997155" lon="17.8234667">
        <ele>34.2642</ele>
        <time>2011-03-03T21:07:18Z</time>
      </trkpt>
      <trkpt lat="59.4998518" lon="17.8233562">
        <ele>35.2255</ele>
        <time>2011-03-03T21:07:22Z</time>
      </trkpt>
      <trkpt lat="59.4999918" lon="17.8231984">
        <ele>33.3029</ele>
        <time>2011-03-03T21:07:26Z</time>
      </trkpt>
      <trkpt lat="59.5002208" lon="17.8230184">
        <ele>33.7834</ele>
        <time>2011-03-03T21:07:30Z</time>
      </trkpt>
      <trkpt lat="59.5005018" lon="17.8228221">
        <ele>33.7834</ele>
        <time>2011-03-03T21:07:35Z</time>
      </trkpt>
      <trkpt lat="59.5005975" lon="17.8227451">
        <ele>33.7834</ele>
        <time>2011-03-03T21:07:37Z</time>
      </trkpt>
      <trkpt lat="59.5006901" lon="17.822696">
        <ele>34.2642</ele>
        <time>2011-03-03T21:07:39Z</time>
      </trkpt>
      <trkpt lat="59.500814" lon="17.8225887">
        <ele>34.2642</ele>
        <time>2011-03-03T21:07:42Z</time>
      </trkpt>
      <trkpt lat="59.5009256" lon="17.8224437">
        <ele>34.2642</ele>
        <time>2011-03-03T21:07:45Z</time>
      </trkpt>
      <trkpt lat="59.5011077" lon="17.8222616">
        <ele>32.3416</ele>
        <time>2011-03-03T21:07:49Z</time>
      </trkpt>
      <trkpt lat="59.5013784" lon="17.8220383">
        <ele>29.4575</ele>
        <time>2011-03-03T21:07:54Z</time>
      </trkpt>
      <trkpt lat="59.5014283" lon="17.8220028">
        <ele>29.4575</ele>
        <time>2011-03-03T21:07:55Z</time>
      </trkpt>
      <trkpt lat="59.5017049" lon="17.8218588">
        <ele>28.0155</ele>
        <time>2011-03-03T21:08:00Z</time>
      </trkpt>
      <trkpt lat="59.5017422" lon="17.8218293">
        <ele>28.4962</ele>
        <time>2011-03-03T21:08:02Z</time>
      </trkpt>
      <trkpt lat="59.5017613" lon="17.821821">
        <ele>27.5349</ele>
        <time>2011-03-03T21:08:04Z</time>
      </trkpt>
      <trkpt lat="59.5018726" lon="17.8217032">
        <ele>27.5349</ele>
        <time>2011-03-03T21:08:10Z</time>
      </trkpt>
      <trkpt lat="59.5020337" lon="17.8215309">
        <ele>29.4575</ele>
        <time>2011-03-03T21:08:16Z</time>
      </trkpt>
      <trkpt lat="59.5022229" lon="17.8213677">
        <ele>29.4575</ele>
        <time>2011-03-03T21:08:21Z</time>
      </trkpt>
      <trkpt lat="59.5023581" lon="17.8212272">
        <ele>28.9769</ele>
        <time>2011-03-03T21:08:25Z</time>
      </trkpt>
      <trkpt lat="59.5025052" lon="17.8210746">
        <ele>28.0155</ele>
        <time>2011-03-03T21:08:30Z</time>
      </trkpt>
      <trkpt lat="59.5026493" lon="17.820951">
        <ele>27.0543</ele>
        <time>2011-03-03T21:08:35Z</time>
      </trkpt>
      <trkpt lat="59.5027741" lon="17.8208585">
        <ele>28.9769</ele>
        <time>2011-03-03T21:08:39Z</time>
      </trkpt>
      <trkpt lat="59.5028995" lon="17.8207599">
        <ele>28.9769</ele>
        <time>2011-03-03T21:08:43Z</time>
      </trkpt>
      <trkpt lat="59.5030501" lon="17.8206192">
        <ele>29.4575</ele>
        <time>2011-03-03T21:08:48Z</time>
      </trkpt>
      <trkpt lat="59.5031725" lon="17.8205291">
        <ele>29.9381</ele>
        <time>2011-03-03T21:08:53Z</time>
      </trkpt>
      <trkpt lat="59.5032858" lon="17.8204353">
        <ele>29.9381</ele>
        <time>2011-03-03T21:08:57Z</time>
      </trkpt>
      <trkpt lat="59.5033939" lon="17.8203111">
        <ele>29.9381</ele>
        <time>2011-03-03T21:09:02Z</time>
      </trkpt>
      <trkpt lat="59.5035127" lon="17.8201671">
        <ele>28.4962</ele>
        <time>2011-03-03T21:09:06Z</time>
      </trkpt>
      <trkpt lat="59.5036655" lon="17.8199951">
        <ele>27.0543</ele>
        <time>2011-03-03T21:09:10Z</time>
      </trkpt>
      <trkpt lat="59.5037679" lon="17.8198874">
        <ele>26.0929</ele>
        <time>2011-03-03T21:09:14Z</time>
      </trkpt>
      <trkpt lat="59.5039534" lon="17.8197542">
        <ele>23.6896</ele>
        <time>2011-03-03T21:09:20Z</time>
      </trkpt>
      <trkpt lat="59.5041121" lon="17.8196328">
        <ele>24.1703</ele>
        <time>2011-03-03T21:09:25Z</time>
      </trkpt>
      <trkpt lat="59.5042229" lon="17.8195023">
        <ele>24.651</ele>
        <time>2011-03-03T21:09:30Z</time>
      </trkpt>
      <trkpt lat="59.5043188" lon="17.819401">
        <ele>24.1703</ele>
        <time>2011-03-03T21:09:35Z</time>
      </trkpt>
      <trkpt lat="59.5044767" lon="17.8193237">
        <ele>25.6123</ele>
        <time>2011-03-03T21:09:39Z</time>
      </trkpt>
      <trkpt lat="59.504572" lon="17.8192097">
        <ele>28.4962</ele>
        <time>2011-03-03T21:09:43Z</time>
      </trkpt>
      <trkpt lat="59.5046861" lon="17.8190957">
        <ele>30.4188</ele>
        <time>2011-03-03T21:09:47Z</time>
      </trkpt>
      <trkpt lat="59.5048104" lon="17.8190375">
        <ele>32.8223</ele>
        <time>2011-03-03T21:09:52Z</time>
      </trkpt>
      <trkpt lat="59.504915" lon="17.8190145">
        <ele>34.7449</ele>
        <time>2011-03-03T21:09:56Z</time>
      </trkpt>
      <trkpt lat="59.5050361" lon="17.8189674">
        <ele>33.7834</ele>
        <time>2011-03-03T21:09:59Z</time>
      </trkpt>
      <trkpt lat="59.5052367" lon="17.8188564">
        <ele>36.1868</ele>
        <time>2011-03-03T21:10:04Z</time>
      </trkpt>
      <trkpt lat="59.5053553" lon="17.8187676">
        <ele>34.7449</ele>
        <time>2011-03-03T21:10:08Z</time>
      </trkpt>
      <trkpt lat="59.5054826" lon="17.8187443">
        <ele>33.3029</ele>
        <time>2011-03-03T21:10:12Z</time>
      </trkpt>
      <trkpt lat="59.5056235" lon="17.8187134">
        <ele>29.4575</ele>
        <time>2011-03-03T21:10:17Z</time>
      </trkpt>
      <trkpt lat="59.5057816" lon="17.8186393">
        <ele>27.0543</ele>
        <time>2011-03-03T21:10:22Z</time>
      </trkpt>
      <trkpt lat="59.5058708" lon="17.8184424">
        <ele>26.0929</ele>
        <time>2011-03-03T21:10:26Z</time>
      </trkpt>
      <trkpt lat="59.5059137" lon="17.8182565">
        <ele>25.6123</ele>
        <time>2011-03-03T21:10:30Z</time>
      </trkpt>
      <trkpt lat="59.5058779" lon="17.818023">
        <ele>24.1703</ele>
        <time>2011-03-03T21:10:35Z</time>
      </trkpt>
      <trkpt lat="59.5057905" lon="17.8178248">
        <ele>23.209</ele>
        <time>2011-03-03T21:10:39Z</time>
      </trkpt>
      <trkpt lat="59.5056721" lon="17.8176394">
        <ele>24.1703</ele>
        <time>2011-03-03T21:10:44Z</time>
      </trkpt>
      <trkpt lat="59.5055381" lon="17.8174734">
        <ele>23.6896</ele>
        <time>2011-03-03T21:10:48Z</time>
      </trkpt>
      <trkpt lat="59.5053984" lon="17.8172874">
        <ele>24.1703</ele>
        <time>2011-03-03T21:10:52Z</time>
      </trkpt>
      <trkpt lat="59.5053372" lon="17.8171807">
        <ele>25.1317</ele>
        <time>2011-03-03T21:10:54Z</time>
      </trkpt>
      <trkpt lat="59.5052038" lon="17.8170438">
        <ele>26.0929</ele>
        <time>2011-03-03T21:10:57Z</time>
      </trkpt>
      <trkpt lat="59.5050311" lon="17.8168548">
        <ele>27.5349</ele>
        <time>2011-03-03T21:11:01Z</time>
      </trkpt>
      <trkpt lat="59.5048466" lon="17.8167387">
        <ele>30.4188</ele>
        <time>2011-03-03T21:11:05Z</time>
      </trkpt>
      <trkpt lat="59.5045801" lon="17.816485">
        <ele>33.7834</ele>
        <time>2011-03-03T21:11:11Z</time>
      </trkpt>
      <trkpt lat="59.5044835" lon="17.8163378">
        <ele>35.7061</ele>
        <time>2011-03-03T21:11:14Z</time>
      </trkpt>
      <trkpt lat="59.5043027" lon="17.8159105">
        <ele>29.4575</ele>
        <time>2011-03-03T21:11:19Z</time>
      </trkpt>
      <trkpt lat="59.5042664" lon="17.8158095">
        <ele>28.9769</ele>
        <time>2011-03-03T21:11:20Z</time>
      </trkpt>
      <trkpt lat="59.5041723" lon="17.815621">
        <ele>28.9769</ele>
        <time>2011-03-03T21:11:22Z</time>
      </trkpt>
      <trkpt lat="59.5039385" lon="17.8150827">
        <ele>29.4575</ele>
        <time>2011-03-03T21:11:27Z</time>
      </trkpt>
      <trkpt lat="59.5037412" lon="17.8147927">
        <ele>24.651</ele>
        <time>2011-03-03T21:11:31Z</time>
      </trkpt>
      <trkpt lat="59.5035961" lon="17.8148934">
        <ele>19.8444</ele>
        <time>2011-03-03T21:11:35Z</time>
      </trkpt>
      <trkpt lat="59.503597" lon="17.815062">
        <ele>16.9604</ele>
        <time>2011-03-03T21:11:38Z</time>
      </trkpt>
      <trkpt lat="59.5036184" lon="17.8151258">
        <ele>14.557</ele>
        <time>2011-03-03T21:11:40Z</time>
      </trkpt>
      <trkpt lat="59.5036412" lon="17.8151925">
        <ele>13.1151</ele>
        <time>2011-03-03T21:11:42Z</time>
      </trkpt>
      <trkpt lat="59.5036376" lon="17.8153455">
        <ele>11.6732</ele>
        <time>2011-03-03T21:11:47Z</time>
      </trkpt>
      <trkpt lat="59.5036296" lon="17.8155162">
        <ele>12.1538</ele>
        <time>2011-03-03T21:11:52Z</time>
      </trkpt>
      <trkpt lat="59.5035954" lon="17.8156283">
        <ele>15.5184</ele>
        <time>2011-03-03T21:11:55Z</time>
      </trkpt>
      <trkpt lat="59.5035542" lon="17.815721">
        <ele>17.9218</ele>
        <time>2011-03-03T21:11:58Z</time>
      </trkpt>
      <trkpt lat="59.5034947" lon="17.8159023">
        <ele>19.3638</ele>
        <time>2011-03-03T21:12:04Z</time>
      </trkpt>
      <trkpt lat="59.5034262" lon="17.8161281">
        <ele>18.8831</ele>
        <time>2011-03-03T21:12:09Z</time>
      </trkpt>
      <trkpt lat="59.5033443" lon="17.8163073">
        <ele>18.8831</ele>
        <time>2011-03-03T21:12:13Z</time>
      </trkpt>
      <trkpt lat="59.5032336" lon="17.8164737">
        <ele>21.767</ele>
        <time>2011-03-03T21:12:17Z</time>
      </trkpt>
      <trkpt lat="59.503109" lon="17.8165773">
        <ele>22.7283</ele>
        <time>2011-03-03T21:12:21Z</time>
      </trkpt>
      <trkpt lat="59.5029432" lon="17.8166983">
        <ele>23.6896</ele>
        <time>2011-03-03T21:12:25Z</time>
      </trkpt>
      <trkpt lat="59.5028847" lon="17.8167653">
        <ele>25.1317</ele>
        <time>2011-03-03T21:12:27Z</time>
      </trkpt>
      <trkpt lat="59.5028486" lon="17.8168407">
        <ele>27.0543</ele>
        <time>2011-03-03T21:12:29Z</time>
      </trkpt>
      <trkpt lat="59.5027971" lon="17.8169919">
        <ele>24.651</ele>
        <time>2011-03-03T21:12:34Z</time>
      </trkpt>
      <trkpt lat="59.5027155" lon="17.817205">
        <ele>26.5736</ele>
        <time>2011-03-03T21:12:39Z</time>
      </trkpt>
      <trkpt lat="59.5026642" lon="17.8173888">
        <ele>28.0155</ele>
        <time>2011-03-03T21:12:45Z</time>
      </trkpt>
      <trkpt lat="59.5025612" lon="17.8175075">
        <ele>27.5349</ele>
        <time>2011-03-03T21:12:50Z</time>
      </trkpt>
      <trkpt lat="59.5024354" lon="17.8175763">
        <ele>27.0543</ele>
        <time>2011-03-03T21:12:55Z</time>
      </trkpt>
      <trkpt lat="59.5024201" lon="17.8175831">
        <ele>27.5349</ele>
        <time>2011-03-03T21:12:56Z</time>
      </trkpt>
      <trkpt lat="59.5023301" lon="17.8176469">
        <ele>27.5349</ele>
        <time>2011-03-03T21:13:01Z</time>
      </trkpt>
      <trkpt lat="59.5022369" lon="17.8176489">
        <ele>28.0155</ele>
        <time>2011-03-03T21:13:05Z</time>
      </trkpt>
      <trkpt lat="59.5021063" lon="17.8175914">
        <ele>25.6123</ele>
        <time>2011-03-03T21:13:10Z</time>
      </trkpt>
      <trkpt lat="59.5020321" lon="17.8175465">
        <ele>26.0929</ele>
        <time>2011-03-03T21:13:13Z</time>
      </trkpt>
      <trkpt lat="59.5020189" lon="17.8172699">
        <ele>23.209</ele>
        <time>2011-03-03T21:13:18Z</time>
      </trkpt>
      <trkpt lat="59.5020605" lon="17.8167916">
        <ele>17.9218</ele>
        <time>2011-03-03T21:13:22Z</time>
      </trkpt>
      <trkpt lat="59.501931" lon="17.8163371">
        <ele>14.557</ele>
        <time>2011-03-03T21:13:26Z</time>
      </trkpt>
      <trkpt lat="59.5017443" lon="17.8163201">
        <ele>12.6344</ele>
        <time>2011-03-03T21:13:29Z</time>
      </trkpt>
      <trkpt lat="59.5016725" lon="17.8164877">
        <ele>12.1538</ele>
        <time>2011-03-03T21:13:32Z</time>
      </trkpt>
      <trkpt lat="59.5016484" lon="17.8165575">
        <ele>14.0764</ele>
        <time>2011-03-03T21:13:34Z</time>
      </trkpt>
      <trkpt lat="59.5015396" lon="17.8166673">
        <ele>13.5958</ele>
        <time>2011-03-03T21:13:39Z</time>
      </trkpt>
      <trkpt lat="59.5013553" lon="17.8166694">
        <ele>14.557</ele>
        <time>2011-03-03T21:13:44Z</time>
      </trkpt>
      <trkpt lat="59.5012592" lon="17.8167919">
        <ele>15.0377</ele>
        <time>2011-03-03T21:13:48Z</time>
      </trkpt>
      <trkpt lat="59.5011076" lon="17.8169625">
        <ele>15.5184</ele>
        <time>2011-03-03T21:13:54Z</time>
      </trkpt>
      <trkpt lat="59.5009694" lon="17.8170204">
        <ele>17.4412</ele>
        <time>2011-03-03T21:13:59Z</time>
      </trkpt>
      <trkpt lat="59.5008563" lon="17.8170605">
        <ele>18.4023</ele>
        <time>2011-03-03T21:14:04Z</time>
      </trkpt>
      <trkpt lat="59.5007871" lon="17.8171807">
        <ele>18.4023</ele>
        <time>2011-03-03T21:14:09Z</time>
      </trkpt>
      <trkpt lat="59.5007718" lon="17.817377">
        <ele>18.8831</ele>
        <time>2011-03-03T21:14:14Z</time>
      </trkpt>
      <trkpt lat="59.5007686" lon="17.817575">
        <ele>20.325</ele>
        <time>2011-03-03T21:14:19Z</time>
      </trkpt>
      <trkpt lat="59.5007614" lon="17.8176743">
        <ele>20.8057</ele>
        <time>2011-03-03T21:14:21Z</time>
      </trkpt>
      <trkpt lat="59.5007517" lon="17.8179122">
        <ele>23.209</ele>
        <time>2011-03-03T21:14:27Z</time>
      </trkpt>
      <trkpt lat="59.5007398" lon="17.8180856">
        <ele>24.1703</ele>
        <time>2011-03-03T21:14:31Z</time>
      </trkpt>
      <trkpt lat="59.5006842" lon="17.8182895">
        <ele>26.5736</ele>
        <time>2011-03-03T21:14:36Z</time>
      </trkpt>
      <trkpt lat="59.5006569" lon="17.818369">
        <ele>26.5736</ele>
        <time>2011-03-03T21:14:38Z</time>
      </trkpt>
      <trkpt lat="59.5005511" lon="17.8184958">
        <ele>28.4962</ele>
        <time>2011-03-03T21:14:43Z</time>
      </trkpt>
      <trkpt lat="59.5004333" lon="17.8185304">
        <ele>28.0155</ele>
        <time>2011-03-03T21:14:47Z</time>
      </trkpt>
      <trkpt lat="59.5002735" lon="17.8185104">
        <ele>27.5349</ele>
        <time>2011-03-03T21:14:52Z</time>
      </trkpt>
      <trkpt lat="59.5001424" lon="17.8184812">
        <ele>27.5349</ele>
        <time>2011-03-03T21:14:57Z</time>
      </trkpt>
      <trkpt lat="59.5000918" lon="17.8184679">
        <ele>28.4962</ele>
        <time>2011-03-03T21:14:59Z</time>
      </trkpt>
      <trkpt lat="59.4999565" lon="17.8184281">
        <ele>31.3801</ele>
        <time>2011-03-03T21:15:05Z</time>
      </trkpt>
      <trkpt lat="59.4999254" lon="17.8184279">
        <ele>31.3801</ele>
        <time>2011-03-03T21:15:06Z</time>
      </trkpt>
      <trkpt lat="59.4997561" lon="17.818402">
        <ele>32.8223</ele>
        <time>2011-03-03T21:15:11Z</time>
      </trkpt>
      <trkpt lat="59.4996391" lon="17.8183353">
        <ele>31.8607</ele>
        <time>2011-03-03T21:15:15Z</time>
      </trkpt>
      <trkpt lat="59.4994905" lon="17.8182686">
        <ele>32.3416</ele>
        <time>2011-03-03T21:15:19Z</time>
      </trkpt>
      <trkpt lat="59.4993669" lon="17.8182187">
        <ele>32.8223</ele>
        <time>2011-03-03T21:15:23Z</time>
      </trkpt>
      <trkpt lat="59.4992335" lon="17.8181664">
        <ele>32.8223</ele>
        <time>2011-03-03T21:15:27Z</time>
      </trkpt>
      <trkpt lat="59.4991076" lon="17.8180808">
        <ele>33.7834</ele>
        <time>2011-03-03T21:15:31Z</time>
      </trkpt>
      <trkpt lat="59.4989082" lon="17.8179561">
        <ele>32.8223</ele>
        <time>2011-03-03T21:15:37Z</time>
      </trkpt>
      <trkpt lat="59.4987745" lon="17.8179256">
        <ele>34.7449</ele>
        <time>2011-03-03T21:15:42Z</time>
      </trkpt>
      <trkpt lat="59.4986823" lon="17.8178981">
        <ele>36.1868</ele>
        <time>2011-03-03T21:15:47Z</time>
      </trkpt>
      <trkpt lat="59.498551" lon="17.8179183">
        <ele>34.2642</ele>
        <time>2011-03-03T21:15:52Z</time>
      </trkpt>
      <trkpt lat="59.4984601" lon="17.8179473">
        <ele>32.8223</ele>
        <time>2011-03-03T21:15:57Z</time>
      </trkpt>
      <trkpt lat="59.4983647" lon="17.8179142">
        <ele>31.8607</ele>
        <time>2011-03-03T21:16:02Z</time>
      </trkpt>
      <trkpt lat="59.4982801" lon="17.8178546">
        <ele>29.9381</ele>
        <time>2011-03-03T21:16:06Z</time>
      </trkpt>
      <trkpt lat="59.4981658" lon="17.8177996">
        <ele>28.4962</ele>
        <time>2011-03-03T21:16:11Z</time>
      </trkpt>
      <trkpt lat="59.4980348" lon="17.8178504">
        <ele>28.9769</ele>
        <time>2011-03-03T21:16:16Z</time>
      </trkpt>
      <trkpt lat="59.4978985" lon="17.8179547">
        <ele>28.4962</ele>
        <time>2011-03-03T21:16:21Z</time>
      </trkpt>
      <trkpt lat="59.4978504" lon="17.81803">
        <ele>28.0155</ele>
        <time>2011-03-03T21:16:23Z</time>
      </trkpt>
      <trkpt lat="59.497756" lon="17.8182254">
        <ele>27.5349</ele>
        <time>2011-03-03T21:16:28Z</time>
      </trkpt>
      <trkpt lat="59.4976639" lon="17.8183488">
        <ele>28.4962</ele>
        <time>2011-03-03T21:16:32Z</time>
      </trkpt>
      <trkpt lat="59.4975364" lon="17.8185871">
        <ele>30.8995</ele>
        <time>2011-03-03T21:16:37Z</time>
      </trkpt>
      <trkpt lat="59.4974102" lon="17.8186886">
        <ele>31.3801</ele>
        <time>2011-03-03T21:16:41Z</time>
      </trkpt>
      <trkpt lat="59.4972899" lon="17.8188218">
        <ele>33.3029</ele>
        <time>2011-03-03T21:16:45Z</time>
      </trkpt>
      <trkpt lat="59.4972472" lon="17.8188725">
        <ele>32.8223</ele>
        <time>2011-03-03T21:16:47Z</time>
      </trkpt>
      <trkpt lat="59.4970385" lon="17.8188752">
        <ele>32.8223</ele>
        <time>2011-03-03T21:16:52Z</time>
      </trkpt>
      <trkpt lat="59.4969944" lon="17.8188671">
        <ele>33.7834</ele>
        <time>2011-03-03T21:16:53Z</time>
      </trkpt>
      <trkpt lat="59.4968217" lon="17.8187108">
        <ele>35.2255</ele>
        <time>2011-03-03T21:16:58Z</time>
      </trkpt>
      <trkpt lat="59.4966299" lon="17.8186196">
        <ele>36.6675</ele>
        <time>2011-03-03T21:17:04Z</time>
      </trkpt>
      <trkpt lat="59.4965332" lon="17.8186455">
        <ele>36.6675</ele>
        <time>2011-03-03T21:17:09Z</time>
      </trkpt>
      <trkpt lat="59.4964989" lon="17.8186759">
        <ele>37.1481</ele>
        <time>2011-03-03T21:17:11Z</time>
      </trkpt>
      <trkpt lat="59.4964342" lon="17.8188256">
        <ele>38.5901</ele>
        <time>2011-03-03T21:17:17Z</time>
      </trkpt>
      <trkpt lat="59.4963941" lon="17.8188985">
        <ele>37.6287</ele>
        <time>2011-03-03T21:17:20Z</time>
      </trkpt>
      <trkpt lat="59.4963636" lon="17.818958">
        <ele>39.0707</ele>
        <time>2011-03-03T21:17:23Z</time>
      </trkpt>
      <trkpt lat="59.4962522" lon="17.8190888">
        <ele>39.5513</ele>
        <time>2011-03-03T21:17:30Z</time>
      </trkpt>
      <trkpt lat="59.4961649" lon="17.8191355">
        <ele>39.5513</ele>
        <time>2011-03-03T21:17:34Z</time>
      </trkpt>
      <trkpt lat="59.4961047" lon="17.8191786">
        <ele>39.0707</ele>
        <time>2011-03-03T21:17:37Z</time>
      </trkpt>
      <trkpt lat="59.4959923" lon="17.8193013">
        <ele>37.6287</ele>
        <time>2011-03-03T21:17:43Z</time>
      </trkpt>
      <trkpt lat="59.4959419" lon="17.8193841">
        <ele>39.0707</ele>
        <time>2011-03-03T21:17:48Z</time>
      </trkpt>
      <trkpt lat="59.4958865" lon="17.8194542">
        <ele>38.5901</ele>
        <time>2011-03-03T21:17:51Z</time>
      </trkpt>
      <trkpt lat="59.4957285" lon="17.8195604">
        <ele>40.9934</ele>
        <time>2011-03-03T21:17:58Z</time>
      </trkpt>
      <trkpt lat="59.4957121" lon="17.8195721">
        <ele>40.9934</ele>
        <time>2011-03-03T21:17:59Z</time>
      </trkpt>
      <trkpt lat="59.4956057" lon="17.8196645">
        <ele>41.474</ele>
        <time>2011-03-03T21:18:04Z</time>
      </trkpt>
      <trkpt lat="59.4955193" lon="17.8197612">
        <ele>41.9547</ele>
        <time>2011-03-03T21:18:08Z</time>
      </trkpt>
      <trkpt lat="59.4954015" lon="17.8198964">
        <ele>43.3966</ele>
        <time>2011-03-03T21:18:12Z</time>
      </trkpt>
      <trkpt lat="59.4952873" lon="17.8200977">
        <ele>43.3966</ele>
        <time>2011-03-03T21:18:17Z</time>
      </trkpt>
      <trkpt lat="59.4951689" lon="17.8202778">
        <ele>43.8773</ele>
        <time>2011-03-03T21:18:22Z</time>
      </trkpt>
      <trkpt lat="59.4950997" lon="17.8202856">
        <ele>44.358</ele>
        <time>2011-03-03T21:18:26Z</time>
      </trkpt>
      <trkpt lat="59.49498" lon="17.8202202">
        <ele>45.3192</ele>
        <time>2011-03-03T21:18:31Z</time>
      </trkpt>
      <trkpt lat="59.4949148" lon="17.8201399">
        <ele>44.8386</ele>
        <time>2011-03-03T21:18:34Z</time>
      </trkpt>
      <trkpt lat="59.4948687" lon="17.8200515">
        <ele>44.8386</ele>
        <time>2011-03-03T21:18:38Z</time>
      </trkpt>
      <trkpt lat="59.4947699" lon="17.8199168">
        <ele>45.7999</ele>
        <time>2011-03-03T21:18:45Z</time>
      </trkpt>
      <trkpt lat="59.4946883" lon="17.8198029">
        <ele>46.7612</ele>
        <time>2011-03-03T21:18:50Z</time>
      </trkpt>
      <trkpt lat="59.4946013" lon="17.8197446">
        <ele>46.2806</ele>
        <time>2011-03-03T21:18:54Z</time>
      </trkpt>
      <trkpt lat="59.4944652" lon="17.8196892">
        <ele>46.7612</ele>
        <time>2011-03-03T21:18:59Z</time>
      </trkpt>
      <trkpt lat="59.4943036" lon="17.8196156">
        <ele>47.7225</ele>
        <time>2011-03-03T21:19:04Z</time>
      </trkpt>
      <trkpt lat="59.4942009" lon="17.8195877">
        <ele>50.126</ele>
        <time>2011-03-03T21:19:10Z</time>
      </trkpt>
      <trkpt lat="59.4940813" lon="17.8195495">
        <ele>53.0098</ele>
        <time>2011-03-03T21:19:15Z</time>
      </trkpt>
      <trkpt lat="59.4939887" lon="17.8194713">
        <ele>53.9712</ele>
        <time>2011-03-03T21:19:20Z</time>
      </trkpt>
      <trkpt lat="59.4939293" lon="17.8193799">
        <ele>53.9712</ele>
        <time>2011-03-03T21:19:24Z</time>
      </trkpt>
      <trkpt lat="59.4938157" lon="17.8192846">
        <ele>53.9712</ele>
        <time>2011-03-03T21:19:29Z</time>
      </trkpt>
      <trkpt lat="59.4936859" lon="17.8192062">
        <ele>53.4905</ele>
        <time>2011-03-03T21:19:33Z</time>
      </trkpt>
      <trkpt lat="59.4935333" lon="17.8191279">
        <ele>52.5292</ele>
        <time>2011-03-03T21:19:37Z</time>
      </trkpt>
      <trkpt lat="59.493395" lon="17.8191413">
        <ele>51.5679</ele>
        <time>2011-03-03T21:19:41Z</time>
      </trkpt>
      <trkpt lat="59.4932072" lon="17.8191394">
        <ele>50.126</ele>
        <time>2011-03-03T21:19:46Z</time>
      </trkpt>
      <trkpt lat="59.4931742" lon="17.8191279">
        <ele>49.6453</ele>
        <time>2011-03-03T21:19:47Z</time>
      </trkpt>
      <trkpt lat="59.4930826" lon="17.8189061">
        <ele>49.1646</ele>
        <time>2011-03-03T21:19:52Z</time>
      </trkpt>
      <trkpt lat="59.4930728" lon="17.8186767">
        <ele>48.684</ele>
        <time>2011-03-03T21:19:55Z</time>
      </trkpt>
      <trkpt lat="59.4930618" lon="17.8185876">
        <ele>49.1646</ele>
        <time>2011-03-03T21:19:56Z</time>
      </trkpt>
      <trkpt lat="59.4929979" lon="17.8181571">
        <ele>46.2806</ele>
        <time>2011-03-03T21:20:01Z</time>
      </trkpt>
      <trkpt lat="59.4929104" lon="17.8179421">
        <ele>46.2806</ele>
        <time>2011-03-03T21:20:04Z</time>
      </trkpt>
      <trkpt lat="59.4927016" lon="17.8177442">
        <ele>45.7999</ele>
        <time>2011-03-03T21:20:09Z</time>
      </trkpt>
      <trkpt lat="59.4925724" lon="17.8178546">
        <ele>45.7999</ele>
        <time>2011-03-03T21:20:14Z</time>
      </trkpt>
      <trkpt lat="59.4924698" lon="17.8179051">
        <ele>46.2806</ele>
        <time>2011-03-03T21:20:19Z</time>
      </trkpt>
      <trkpt lat="59.4924174" lon="17.8178972">
        <ele>46.7612</ele>
        <time>2011-03-03T21:20:22Z</time>
      </trkpt>
      <trkpt lat="59.4922657" lon="17.8177713">
        <ele>47.7225</ele>
        <time>2011-03-03T21:20:28Z</time>
      </trkpt>
      <trkpt lat="59.4921931" lon="17.8176676">
        <ele>49.6453</ele>
        <time>2011-03-03T21:20:32Z</time>
      </trkpt>
      <trkpt lat="59.492103" lon="17.8176133">
        <ele>49.6453</ele>
        <time>2011-03-03T21:20:36Z</time>
      </trkpt>
      <trkpt lat="59.4920301" lon="17.8175706">
        <ele>49.6453</ele>
        <time>2011-03-03T21:20:40Z</time>
      </trkpt>
      <trkpt lat="59.4920174" lon="17.8175607">
        <ele>50.126</ele>
        <time>2011-03-03T21:20:41Z</time>
      </trkpt>
      <trkpt lat="59.4919314" lon="17.8174728">
        <ele>51.0872</ele>
        <time>2011-03-03T21:20:47Z</time>
      </trkpt>
      <trkpt lat="59.491869" lon="17.8174501">
        <ele>50.126</ele>
        <time>2011-03-03T21:20:51Z</time>
      </trkpt>
      <trkpt lat="59.4918495" lon="17.8174381">
        <ele>50.126</ele>
        <time>2011-03-03T21:20:52Z</time>
      </trkpt>
      <trkpt lat="59.4917677" lon="17.817382">
        <ele>52.0486</ele>
        <time>2011-03-03T21:20:56Z</time>
      </trkpt>
      <trkpt lat="59.4916524" lon="17.8173035">
        <ele>53.4905</ele>
        <time>2011-03-03T21:21:01Z</time>
      </trkpt>
      <trkpt lat="59.4915094" lon="17.8172797">
        <ele>53.4905</ele>
        <time>2011-03-03T21:21:06Z</time>
      </trkpt>
      <trkpt lat="59.4914097" lon="17.817294">
        <ele>53.4905</ele>
        <time>2011-03-03T21:21:10Z</time>
      </trkpt>
      <trkpt lat="59.4912722" lon="17.8172625">
        <ele>54.9324</ele>
        <time>2011-03-03T21:21:14Z</time>
      </trkpt>
      <trkpt lat="59.4912486" lon="17.8172505">
        <ele>54.9324</ele>
        <time>2011-03-03T21:21:15Z</time>
      </trkpt>
      <trkpt lat="59.4911722" lon="17.8172065">
        <ele>55.4131</ele>
        <time>2011-03-03T21:21:19Z</time>
      </trkpt>
      <trkpt lat="59.4910575" lon="17.8171475">
        <ele>57.3358</ele>
        <time>2011-03-03T21:21:25Z</time>
      </trkpt>
      <trkpt lat="59.4909594" lon="17.8170831">
        <ele>56.8551</ele>
        <time>2011-03-03T21:21:29Z</time>
      </trkpt>
      <trkpt lat="59.4908014" lon="17.81689">
        <ele>57.3358</ele>
        <time>2011-03-03T21:21:33Z</time>
      </trkpt>
      <trkpt lat="59.4906832" lon="17.816699">
        <ele>56.8551</ele>
        <time>2011-03-03T21:21:36Z</time>
      </trkpt>
      <trkpt lat="59.4905853" lon="17.8166237">
        <ele>57.3358</ele>
        <time>2011-03-03T21:21:38Z</time>
      </trkpt>
      <trkpt lat="59.4903585" lon="17.816572">
        <ele>56.8551</ele>
        <time>2011-03-03T21:21:42Z</time>
      </trkpt>
      <trkpt lat="59.4900971" lon="17.8168216">
        <ele>55.4131</ele>
        <time>2011-03-03T21:21:47Z</time>
      </trkpt>
      <trkpt lat="59.4900174" lon="17.8170041">
        <ele>53.4905</ele>
        <time>2011-03-03T21:21:49Z</time>
      </trkpt>
      <trkpt lat="59.489942" lon="17.8172877">
        <ele>51.0872</ele>
        <time>2011-03-03T21:21:52Z</time>
      </trkpt>
      <trkpt lat="59.4899443" lon="17.8176105">
        <ele>48.684</ele>
        <time>2011-03-03T21:21:57Z</time>
      </trkpt>
      <trkpt lat="59.4899862" lon="17.8178435">
        <ele>46.2806</ele>
        <time>2011-03-03T21:22:01Z</time>
      </trkpt>
      <trkpt lat="59.4899925" lon="17.8179214">
        <ele>46.2806</ele>
        <time>2011-03-03T21:22:02Z</time>
      </trkpt>
      <trkpt lat="59.4900101" lon="17.8184166">
        <ele>44.358</ele>
        <time>2011-03-03T21:22:06Z</time>
      </trkpt>
      <trkpt lat="59.4900389" lon="17.8191402">
        <ele>39.0707</ele>
        <time>2011-03-03T21:22:12Z</time>
      </trkpt>
      <trkpt lat="59.4900518" lon="17.8192434">
        <ele>38.1094</ele>
        <time>2011-03-03T21:22:13Z</time>
      </trkpt>
      <trkpt lat="59.4901951" lon="17.8195615">
        <ele>39.5513</ele>
        <time>2011-03-03T21:22:17Z</time>
      </trkpt>
      <trkpt lat="59.490388" lon="17.8196987">
        <ele>41.9547</ele>
        <time>2011-03-03T21:22:21Z</time>
      </trkpt>
      <trkpt lat="59.4905408" lon="17.8197484">
        <ele>42.916</ele>
        <time>2011-03-03T21:22:25Z</time>
      </trkpt>
      <trkpt lat="59.4907353" lon="17.8197368">
        <ele>44.8386</ele>
        <time>2011-03-03T21:22:31Z</time>
      </trkpt>
      <trkpt lat="59.4908759" lon="17.8196993">
        <ele>46.2806</ele>
        <time>2011-03-03T21:22:36Z</time>
      </trkpt>
      <trkpt lat="59.4909777" lon="17.8196764">
        <ele>45.7999</ele>
        <time>2011-03-03T21:22:40Z</time>
      </trkpt>
      <trkpt lat="59.4911142" lon="17.8197494">
        <ele>43.3966</ele>
        <time>2011-03-03T21:22:45Z</time>
      </trkpt>
      <trkpt lat="59.4911499" lon="17.8198043">
        <ele>41.9547</ele>
        <time>2011-03-03T21:22:46Z</time>
      </trkpt>
      <trkpt lat="59.4913006" lon="17.8200199">
        <ele>38.5901</ele>
        <time>2011-03-03T21:22:50Z</time>
      </trkpt>
      <trkpt lat="59.4915136" lon="17.8201868">
        <ele>37.1481</ele>
        <time>2011-03-03T21:22:55Z</time>
      </trkpt>
      <trkpt lat="59.4916782" lon="17.8202384">
        <ele>35.7061</ele>
        <time>2011-03-03T21:22:59Z</time>
      </trkpt>
      <trkpt lat="59.4918695" lon="17.8203747">
        <ele>38.1094</ele>
        <time>2011-03-03T21:23:03Z</time>
      </trkpt>
      <trkpt lat="59.4920216" lon="17.8206606">
        <ele>38.1094</ele>
        <time>2011-03-03T21:23:07Z</time>
      </trkpt>
      <trkpt lat="59.4920524" lon="17.8208956">
        <ele>35.7061</ele>
        <time>2011-03-03T21:23:10Z</time>
      </trkpt>
      <trkpt lat="59.4920006" lon="17.8211086">
        <ele>36.1868</ele>
        <time>2011-03-03T21:23:14Z</time>
      </trkpt>
      <trkpt lat="59.491935" lon="17.8213526">
        <ele>36.6675</ele>
        <time>2011-03-03T21:23:18Z</time>
      </trkpt>
      <trkpt lat="59.4919098" lon="17.8214277">
        <ele>37.6287</ele>
        <time>2011-03-03T21:23:19Z</time>
      </trkpt>
      <trkpt lat="59.4917841" lon="17.8216992">
        <ele>40.0321</ele>
        <time>2011-03-03T21:23:24Z</time>
      </trkpt>
      <trkpt lat="59.4916244" lon="17.8218161">
        <ele>47.2418</ele>
        <time>2011-03-03T21:23:29Z</time>
      </trkpt>
      <trkpt lat="59.491513" lon="17.8219156">
        <ele>50.6066</ele>
        <time>2011-03-03T21:23:33Z</time>
      </trkpt>
      <trkpt lat="59.4913783" lon="17.8221588">
        <ele>52.5292</ele>
        <time>2011-03-03T21:23:38Z</time>
      </trkpt>
      <trkpt lat="59.4913317" lon="17.8224716">
        <ele>52.5292</ele>
        <time>2011-03-03T21:23:42Z</time>
      </trkpt>
      <trkpt lat="59.4913597" lon="17.8225715">
        <ele>52.0486</ele>
        <time>2011-03-03T21:23:44Z</time>
      </trkpt>
      <trkpt lat="59.4915489" lon="17.8226736">
        <ele>47.2418</ele>
        <time>2011-03-03T21:23:49Z</time>
      </trkpt>
      <trkpt lat="59.4917394" lon="17.8227463">
        <ele>44.8386</ele>
        <time>2011-03-03T21:23:54Z</time>
      </trkpt>
      <trkpt lat="59.4918896" lon="17.8228487">
        <ele>42.916</ele>
        <time>2011-03-03T21:23:59Z</time>
      </trkpt>
      <trkpt lat="59.4919134" lon="17.8228664">
        <ele>42.4354</ele>
        <time>2011-03-03T21:24:00Z</time>
      </trkpt>
      <trkpt lat="59.4920755" lon="17.8227912">
        <ele>43.3966</ele>
        <time>2011-03-03T21:24:06Z</time>
      </trkpt>
      <trkpt lat="59.4922687" lon="17.8228237">
        <ele>43.8773</ele>
        <time>2011-03-03T21:24:12Z</time>
      </trkpt>
      <trkpt lat="59.4924168" lon="17.8229238">
        <ele>42.4354</ele>
        <time>2011-03-03T21:24:16Z</time>
      </trkpt>
      <trkpt lat="59.4925564" lon="17.8230052">
        <ele>44.358</ele>
        <time>2011-03-03T21:24:20Z</time>
      </trkpt>
      <trkpt lat="59.4926485" lon="17.823033">
        <ele>44.8386</ele>
        <time>2011-03-03T21:24:24Z</time>
      </trkpt>
      <trkpt lat="59.4927543" lon="17.8230839">
        <ele>44.358</ele>
        <time>2011-03-03T21:24:29Z</time>
      </trkpt>
      <trkpt lat="59.4928861" lon="17.8231756">
        <ele>43.3966</ele>
        <time>2011-03-03T21:24:34Z</time>
      </trkpt>
      <trkpt lat="59.4930163" lon="17.8232946">
        <ele>41.9547</ele>
        <time>2011-03-03T21:24:38Z</time>
      </trkpt>
      <trkpt lat="59.493124" lon="17.8234672">
        <ele>41.474</ele>
        <time>2011-03-03T21:24:42Z</time>
      </trkpt>
      <trkpt lat="59.4932162" lon="17.8237185">
        <ele>41.474</ele>
        <time>2011-03-03T21:24:47Z</time>
      </trkpt>
      <trkpt lat="59.4932541" lon="17.8240117">
        <ele>41.474</ele>
        <time>2011-03-03T21:24:51Z</time>
      </trkpt>
      <trkpt lat="59.493221" lon="17.8243404">
        <ele>39.5513</ele>
        <time>2011-03-03T21:24:55Z</time>
      </trkpt>
      <trkpt lat="59.4931966" lon="17.8244597">
        <ele>40.5128</ele>
        <time>2011-03-03T21:24:56Z</time>
      </trkpt>
      <trkpt lat="59.4931727" lon="17.8247677">
        <ele>39.0707</ele>
        <time>2011-03-03T21:24:58Z</time>
      </trkpt>
      <trkpt lat="59.4932565" lon="17.8255824">
        <ele>40.9934</ele>
        <time>2011-03-03T21:25:04Z</time>
      </trkpt>
      <trkpt lat="59.4932611" lon="17.8256982">
        <ele>40.9934</ele>
        <time>2011-03-03T21:25:05Z</time>
      </trkpt>
      <trkpt lat="59.4932974" lon="17.8260237">
        <ele>39.0707</ele>
        <time>2011-03-03T21:25:09Z</time>
      </trkpt>
      <trkpt lat="59.4934079" lon="17.8261581">
        <ele>38.5901</ele>
        <time>2011-03-03T21:25:13Z</time>
      </trkpt>
      <trkpt lat="59.4936068" lon="17.8262749">
        <ele>36.6675</ele>
        <time>2011-03-03T21:25:20Z</time>
      </trkpt>
      <trkpt lat="59.4936912" lon="17.8262604">
        <ele>36.6675</ele>
        <time>2011-03-03T21:25:23Z</time>
      </trkpt>
      <trkpt lat="59.4938771" lon="17.8262969">
        <ele>35.2255</ele>
        <time>2011-03-03T21:25:29Z</time>
      </trkpt>
      <trkpt lat="59.4940202" lon="17.8263879">
        <ele>38.1094</ele>
        <time>2011-03-03T21:25:33Z</time>
      </trkpt>
      <trkpt lat="59.4941915" lon="17.8265137">
        <ele>38.5901</ele>
        <time>2011-03-03T21:25:39Z</time>
      </trkpt>
      <trkpt lat="59.4942788" lon="17.8265987">
        <ele>37.6287</ele>
        <time>2011-03-03T21:25:42Z</time>
      </trkpt>
      <trkpt lat="59.494415" lon="17.8266504">
        <ele>35.2255</ele>
        <time>2011-03-03T21:25:47Z</time>
      </trkpt>
      <trkpt lat="59.4945122" lon="17.8267089">
        <ele>35.2255</ele>
        <time>2011-03-03T21:25:50Z</time>
      </trkpt>
      <trkpt lat="59.494682" lon="17.8268973">
        <ele>35.7061</ele>
        <time>2011-03-03T21:25:55Z</time>
      </trkpt>
      <trkpt lat="59.4948338" lon="17.8270146">
        <ele>36.6675</ele>
        <time>2011-03-03T21:26:00Z</time>
      </trkpt>
      <trkpt lat="59.4949573" lon="17.827061">
        <ele>39.5513</ele>
        <time>2011-03-03T21:26:04Z</time>
      </trkpt>
      <trkpt lat="59.4950978" lon="17.827154">
        <ele>40.0321</ele>
        <time>2011-03-03T21:26:09Z</time>
      </trkpt>
      <trkpt lat="59.4952495" lon="17.827317">
        <ele>40.0321</ele>
        <time>2011-03-03T21:26:14Z</time>
      </trkpt>
      <trkpt lat="59.4953717" lon="17.8274016">
        <ele>39.5513</ele>
        <time>2011-03-03T21:26:18Z</time>
      </trkpt>
      <trkpt lat="59.4954323" lon="17.8273745">
        <ele>38.5901</ele>
        <time>2011-03-03T21:26:20Z</time>
      </trkpt>
      <trkpt lat="59.4956531" lon="17.8271993">
        <ele>36.6675</ele>
        <time>2011-03-03T21:26:26Z</time>
      </trkpt>
      <trkpt lat="59.4957896" lon="17.8270575">
        <ele>36.1868</ele>
        <time>2011-03-03T21:26:30Z</time>
      </trkpt>
      <trkpt lat="59.4959451" lon="17.8269026">
        <ele>37.6287</ele>
        <time>2011-03-03T21:26:35Z</time>
      </trkpt>
      <trkpt lat="59.4961083" lon="17.8267773">
        <ele>39.0707</ele>
        <time>2011-03-03T21:26:39Z</time>
      </trkpt>
      <trkpt lat="59.4962444" lon="17.8266312">
        <ele>40.0321</ele>
        <time>2011-03-03T21:26:43Z</time>
      </trkpt>
      <trkpt lat="59.4964546" lon="17.8264773">
        <ele>41.9547</ele>
        <time>2011-03-03T21:26:48Z</time>
      </trkpt>
      <trkpt lat="59.4964962" lon="17.8264345">
        <ele>41.9547</ele>
        <time>2011-03-03T21:26:49Z</time>
      </trkpt>
      <trkpt lat="59.4966755" lon="17.8262646">
        <ele>43.3966</ele>
        <time>2011-03-03T21:26:54Z</time>
      </trkpt>
      <trkpt lat="59.4967454" lon="17.8261913">
        <ele>41.9547</ele>
        <time>2011-03-03T21:26:56Z</time>
      </trkpt>
      <trkpt lat="59.4968615" lon="17.8260817">
        <ele>40.0321</ele>
        <time>2011-03-03T21:27:00Z</time>
      </trkpt>
      <trkpt lat="59.4969921" lon="17.8259564">
        <ele>40.5128</ele>
        <time>2011-03-03T21:27:05Z</time>
      </trkpt>
      <trkpt lat="59.4970968" lon="17.8258713">
        <ele>40.0321</ele>
        <time>2011-03-03T21:27:10Z</time>
      </trkpt>
      <trkpt lat="59.49714" lon="17.8258442">
        <ele>40.5128</ele>
        <time>2011-03-03T21:27:12Z</time>
      </trkpt>
      <trkpt lat="59.4973202" lon="17.8256961">
        <ele>39.0707</ele>
        <time>2011-03-03T21:27:17Z</time>
      </trkpt>
      <trkpt lat="59.4975297" lon="17.8255196">
        <ele>38.1094</ele>
        <time>2011-03-03T21:27:22Z</time>
      </trkpt>
      <trkpt lat="59.4976036" lon="17.8254646">
        <ele>37.1481</ele>
        <time>2011-03-03T21:27:24Z</time>
      </trkpt>
      <trkpt lat="59.4977831" lon="17.8252693">
        <ele>36.1868</ele>
        <time>2011-03-03T21:27:30Z</time>
      </trkpt>
      <trkpt lat="59.4979254" lon="17.8251527">
        <ele>39.0707</ele>
        <time>2011-03-03T21:27:34Z</time>
      </trkpt>
      <trkpt lat="59.4980586" lon="17.8250668">
        <ele>38.5901</ele>
        <time>2011-03-03T21:27:38Z</time>
      </trkpt>
      <trkpt lat="59.4981969" lon="17.8249632">
        <ele>38.1094</ele>
        <time>2011-03-03T21:27:42Z</time>
      </trkpt>
      <trkpt lat="59.4983879" lon="17.8247156">
        <ele>36.6675</ele>
        <time>2011-03-03T21:27:48Z</time>
      </trkpt>
      <trkpt lat="59.4985906" lon="17.8245074">
        <ele>33.7834</ele>
        <time>2011-03-03T21:27:54Z</time>
      </trkpt>
      <trkpt lat="59.4987345" lon="17.8243846">
        <ele>33.7834</ele>
        <time>2011-03-03T21:27:59Z</time>
      </trkpt>
      <trkpt lat="59.4988584" lon="17.8242731">
        <ele>34.2642</ele>
        <time>2011-03-03T21:28:03Z</time>
      </trkpt>
      <trkpt lat="59.499018" lon="17.8241287">
        <ele>36.1868</ele>
        <time>2011-03-03T21:28:08Z</time>
      </trkpt>
      <trkpt lat="59.4991656" lon="17.8240187">
        <ele>36.6675</ele>
        <time>2011-03-03T21:28:13Z</time>
      </trkpt>
      <trkpt lat="59.499321" lon="17.8239143">
        <ele>37.1481</ele>
        <time>2011-03-03T21:28:19Z</time>
      </trkpt>
      <trkpt lat="59.499442" lon="17.8237827">
        <ele>36.1868</ele>
        <time>2011-03-03T21:28:23Z</time>
      </trkpt>
      <trkpt lat="59.4995799" lon="17.8236778">
        <ele>35.7061</ele>
        <time>2011-03-03T21:28:27Z</time>
      </trkpt>
      <trkpt lat="59.4996933" lon="17.8235682">
        <ele>34.2642</ele>
        <time>2011-03-03T21:28:31Z</time>
      </trkpt>
      <trkpt lat="59.4998003" lon="17.82349">
        <ele>33.7834</ele>
        <time>2011-03-03T21:28:35Z</time>
      </trkpt>
      <trkpt lat="59.4999124" lon="17.8234045">
        <ele>33.3029</ele>
        <time>2011-03-03T21:28:38Z</time>
      </trkpt>
      <trkpt lat="59.500116" lon="17.8232078">
        <ele>31.8607</ele>
        <time>2011-03-03T21:28:42Z</time>
      </trkpt>
      <trkpt lat="59.5004074" lon="17.8230088">
        <ele>29.4575</ele>
        <time>2011-03-03T21:28:47Z</time>
      </trkpt>
      <trkpt lat="59.5006221" lon="17.8228495">
        <ele>29.9381</ele>
        <time>2011-03-03T21:28:51Z</time>
      </trkpt>
      <trkpt lat="59.500821" lon="17.8226202">
        <ele>29.4575</ele>
        <time>2011-03-03T21:28:56Z</time>
      </trkpt>
      <trkpt lat="59.5010304" lon="17.822381">
        <ele>27.5349</ele>
        <time>2011-03-03T21:29:01Z</time>
      </trkpt>
      <trkpt lat="59.5011422" lon="17.8223088">
        <ele>26.5736</ele>
        <time>2011-03-03T21:29:03Z</time>
      </trkpt>
      <trkpt lat="59.5013287" lon="17.822123">
        <ele>24.1703</ele>
        <time>2011-03-03T21:29:07Z</time>
      </trkpt>
      <trkpt lat="59.5015006" lon="17.8220122">
        <ele>23.6896</ele>
        <time>2011-03-03T21:29:11Z</time>
      </trkpt>
      <trkpt lat="59.5017818" lon="17.8217626">
        <ele>21.2864</ele>
        <time>2011-03-03T21:29:16Z</time>
      </trkpt>
      <trkpt lat="59.50211" lon="17.8215367">
        <ele>19.3638</ele>
        <time>2011-03-03T21:29:21Z</time>
      </trkpt>
      <trkpt lat="59.5022212" lon="17.821464">
        <ele>18.4023</ele>
        <time>2011-03-03T21:29:23Z</time>
      </trkpt>
      <trkpt lat="59.502459" lon="17.8211464">
        <ele>24.1703</ele>
        <time>2011-03-03T21:29:28Z</time>
      </trkpt>
      <trkpt lat="59.5024969" lon="17.8210897">
        <ele>24.651</ele>
        <time>2011-03-03T21:29:29Z</time>
      </trkpt>
      <trkpt lat="59.5025782" lon="17.8210194">
        <ele>25.6123</ele>
        <time>2011-03-03T21:29:31Z</time>
      </trkpt>
      <trkpt lat="59.5027088" lon="17.8208498">
        <ele>27.5349</ele>
        <time>2011-03-03T21:29:35Z</time>
      </trkpt>
      <trkpt lat="59.5028542" lon="17.8207255">
        <ele>28.9769</ele>
        <time>2011-03-03T21:29:40Z</time>
      </trkpt>
      <trkpt lat="59.5029367" lon="17.8206446">
        <ele>28.9769</ele>
        <time>2011-03-03T21:29:43Z</time>
      </trkpt>
      <trkpt lat="59.5031143" lon="17.8205252">
        <ele>32.3416</ele>
        <time>2011-03-03T21:29:48Z</time>
      </trkpt>
      <trkpt lat="59.5032486" lon="17.8204275">
        <ele>34.2642</ele>
        <time>2011-03-03T21:29:53Z</time>
      </trkpt>
      <trkpt lat="59.5033526" lon="17.8203534">
        <ele>34.2642</ele>
        <time>2011-03-03T21:29:57Z</time>
      </trkpt>
      <trkpt lat="59.5034655" lon="17.8202441">
        <ele>32.3416</ele>
        <time>2011-03-03T21:30:01Z</time>
      </trkpt>
      <trkpt lat="59.5036006" lon="17.8200815">
        <ele>31.8607</ele>
        <time>2011-03-03T21:30:05Z</time>
      </trkpt>
      <trkpt lat="59.5037458" lon="17.819966">
        <ele>30.8995</ele>
        <time>2011-03-03T21:30:09Z</time>
      </trkpt>
      <trkpt lat="59.5038699" lon="17.8198746">
        <ele>31.3801</ele>
        <time>2011-03-03T21:30:13Z</time>
      </trkpt>
      <trkpt lat="59.504026" lon="17.8197349">
        <ele>31.8607</ele>
        <time>2011-03-03T21:30:18Z</time>
      </trkpt>
      <trkpt lat="59.5041595" lon="17.8196234">
        <ele>31.8607</ele>
        <time>2011-03-03T21:30:22Z</time>
      </trkpt>
      <trkpt lat="59.5043197" lon="17.8194797">
        <ele>32.3416</ele>
        <time>2011-03-03T21:30:28Z</time>
      </trkpt>
      <trkpt lat="59.5044467" lon="17.8193386">
        <ele>32.8223</ele>
        <time>2011-03-03T21:30:33Z</time>
      </trkpt>
      <trkpt lat="59.5045798" lon="17.8191657">
        <ele>34.2642</ele>
        <time>2011-03-03T21:30:38Z</time>
      </trkpt>
      <trkpt lat="59.5046016" lon="17.8191386">
        <ele>34.2642</ele>
        <time>2011-03-03T21:30:39Z</time>
      </trkpt>
      <trkpt lat="59.5047045" lon="17.8190724">
        <ele>33.7834</ele>
        <time>2011-03-03T21:30:43Z</time>
      </trkpt>
      <trkpt lat="59.5048777" lon="17.8190261">
        <ele>33.7834</ele>
        <time>2011-03-03T21:30:49Z</time>
      </trkpt>
      <trkpt lat="59.5050352" lon="17.8189883">
        <ele>33.3029</ele>
        <time>2011-03-03T21:30:53Z</time>
      </trkpt>
      <trkpt lat="59.5052278" lon="17.8188914">
        <ele>31.3801</ele>
        <time>2011-03-03T21:30:58Z</time>
      </trkpt>
      <trkpt lat="59.5053761" lon="17.8187771">
        <ele>30.4188</ele>
        <time>2011-03-03T21:31:02Z</time>
      </trkpt>
      <trkpt lat="59.505496" lon="17.8187558">
        <ele>29.4575</ele>
        <time>2011-03-03T21:31:06Z</time>
      </trkpt>
      <trkpt lat="59.5056961" lon="17.8187224">
        <ele>28.4962</ele>
        <time>2011-03-03T21:31:12Z</time>
      </trkpt>
      <trkpt lat="59.5058452" lon="17.8186179">
        <ele>28.4962</ele>
        <time>2011-03-03T21:31:17Z</time>
      </trkpt>
      <trkpt lat="59.5059121" lon="17.8183563">
        <ele>28.0155</ele>
        <time>2011-03-03T21:31:22Z</time>
      </trkpt>
      <trkpt lat="59.5059093" lon="17.8181246">
        <ele>27.0543</ele>
        <time>2011-03-03T21:31:26Z</time>
      </trkpt>
      <trkpt lat="59.5058396" lon="17.8178772">
        <ele>26.5736</ele>
        <time>2011-03-03T21:31:30Z</time>
      </trkpt>
      <trkpt lat="59.5057655" lon="17.8176964">
        <ele>25.6123</ele>
        <time>2011-03-03T21:31:34Z</time>
      </trkpt>
      <trkpt lat="59.505606" lon="17.8174696">
        <ele>24.651</ele>
        <time>2011-03-03T21:31:40Z</time>
      </trkpt>
      <trkpt lat="59.5054266" lon="17.8172471">
        <ele>23.209</ele>
        <time>2011-03-03T21:31:44Z</time>
      </trkpt>
      <trkpt lat="59.5052489" lon="17.8170434">
        <ele>22.7283</ele>
        <time>2011-03-03T21:31:48Z</time>
      </trkpt>
      <trkpt lat="59.5050443" lon="17.8168854">
        <ele>26.0929</ele>
        <time>2011-03-03T21:31:52Z</time>
      </trkpt>
      <trkpt lat="59.5049341" lon="17.8168175">
        <ele>27.0543</ele>
        <time>2011-03-03T21:31:54Z</time>
      </trkpt>
      <trkpt lat="59.5046631" lon="17.8166641">
        <ele>28.4962</ele>
        <time>2011-03-03T21:31:59Z</time>
      </trkpt>
      <trkpt lat="59.5046156" lon="17.8166145">
        <ele>28.9769</ele>
        <time>2011-03-03T21:32:00Z</time>
      </trkpt>
      <trkpt lat="59.5044622" lon="17.8163121">
        <ele>25.6123</ele>
        <time>2011-03-03T21:32:05Z</time>
      </trkpt>
      <trkpt lat="59.5042664" lon="17.8157882">
        <ele>18.8831</ele>
        <time>2011-03-03T21:32:11Z</time>
      </trkpt>
      <trkpt lat="59.50398" lon="17.8151915">
        <ele>15.999</ele>
        <time>2011-03-03T21:32:17Z</time>
      </trkpt>
      <trkpt lat="59.5038969" lon="17.8146666">
        <ele>13.1151</ele>
        <time>2011-03-03T21:32:21Z</time>
      </trkpt>
      <trkpt lat="59.5038694" lon="17.8144284">
        <ele>10.7118</ele>
        <time>2011-03-03T21:32:23Z</time>
      </trkpt>
      <trkpt lat="59.5037211" lon="17.8138424">
        <ele>7.34717</ele>
        <time>2011-03-03T21:32:28Z</time>
      </trkpt>
      <trkpt lat="59.5035146" lon="17.8132142">
        <ele>5.42456</ele>
        <time>2011-03-03T21:32:33Z</time>
      </trkpt>
      <trkpt lat="59.5033951" lon="17.8128734">
        <ele>5.42456</ele>
        <time>2011-03-03T21:32:36Z</time>
      </trkpt>
      <trkpt lat="59.5032459" lon="17.8126014">
        <ele>5.90527</ele>
        <time>2011-03-03T21:32:39Z</time>
      </trkpt>
      <trkpt lat="59.5030465" lon="17.812398">
        <ele>5.90527</ele>
        <time>2011-03-03T21:32:43Z</time>
      </trkpt>
      <trkpt lat="59.5029361" lon="17.8122843">
        <ele>5.90527</ele>
        <time>2011-03-03T21:32:46Z</time>
      </trkpt>
      <trkpt lat="59.5028651" lon="17.8122207">
        <ele>6.38586</ele>
        <time>2011-03-03T21:32:48Z</time>
      </trkpt>
      <trkpt lat="59.5027282" lon="17.81204">
        <ele>7.82788</ele>
        <time>2011-03-03T21:32:53Z</time>
      </trkpt>
      <trkpt lat="59.5026716" lon="17.8119916">
        <ele>7.82788</ele>
        <time>2011-03-03T21:32:55Z</time>
      </trkpt>
      <trkpt lat="59.5025819" lon="17.8119226">
        <ele>8.30859</ele>
        <time>2011-03-03T21:32:59Z</time>
      </trkpt>
      <trkpt lat="59.502511" lon="17.8118218">
        <ele>8.78918</ele>
        <time>2011-03-03T21:33:02Z</time>
      </trkpt>
    </trkseg>
  </trk>
</gpx>